<?xml version="1.0" encoding="UTF-8" standalone="no" ?>
<gpx xmlns="http://www.topografix.com/GPX/1/1" xmlns:xsi="http://www.w3.org/2001/XMLSchema-instance" xsi:schemaLocation="http://www.topografix.com/GPX/1/1 http://www.topografix.com/GPX/1/1/gpx.xsd" version="1.1" creator="VisuGPX - https://www.visugpx.com">
  <metadata>
    <name>Sevilla 1</name>
  </metadata>
  <trk>
    <name><![CDATA[Sevilla 1]]></name>
    <extensions>
      <line xmlns="http://www.topografix.com/GPX/gpx_style/0/2">
        <color>0000FF</color>
        <width>4</width>
      </line>
    </extensions>
    <trkseg>
      <trkpt lat="37.47796" lon="-6.0084">
        <ele>7.865155</ele>
        <time>2022-04-09T08:52:03.000Z</time>
      </trkpt>
      <trkpt lat="37.47796" lon="-6.0084">
        <ele>7.865155</ele>
        <time>2022-04-09T08:52:06.000Z</time>
      </trkpt>
      <trkpt lat="37.47796" lon="-6.0084">
        <ele>7.865155</ele>
        <time>2022-04-09T08:52:17.000Z</time>
      </trkpt>
      <trkpt lat="37.47796" lon="-6.0084">
        <ele>7.865155</ele>
        <time>2022-04-09T08:52:19.000Z</time>
      </trkpt>
      <trkpt lat="37.47795" lon="-6.0084">
        <ele>7.865155</ele>
        <time>2022-04-09T08:52:30.000Z</time>
      </trkpt>
      <trkpt lat="37.47793" lon="-6.0084">
        <ele>7.865155</ele>
        <time>2022-04-09T08:52:31.000Z</time>
      </trkpt>
      <trkpt lat="37.47791" lon="-6.0084">
        <ele>7.865155</ele>
        <time>2022-04-09T08:52:33.000Z</time>
      </trkpt>
      <trkpt lat="37.47791" lon="-6.0084">
        <ele>7.865155</ele>
        <time>2022-04-09T08:52:34.000Z</time>
      </trkpt>
      <trkpt lat="37.47791" lon="-6.0084">
        <ele>7.865155</ele>
        <time>2022-04-09T08:52:38.000Z</time>
      </trkpt>
      <trkpt lat="37.47791" lon="-6.00839">
        <ele>7.865155</ele>
        <time>2022-04-09T08:52:44.000Z</time>
      </trkpt>
      <trkpt lat="37.47789" lon="-6.00839">
        <ele>7.865155</ele>
        <time>2022-04-09T08:52:51.000Z</time>
      </trkpt>
      <trkpt lat="37.47788" lon="-6.00839">
        <ele>7.865155</ele>
        <time>2022-04-09T08:52:58.000Z</time>
      </trkpt>
      <trkpt lat="37.47788" lon="-6.00838">
        <ele>7.865155</ele>
        <time>2022-04-09T08:53:00.000Z</time>
      </trkpt>
      <trkpt lat="37.47788" lon="-6.00838">
        <ele>7.865155</ele>
        <time>2022-04-09T08:53:03.000Z</time>
      </trkpt>
      <trkpt lat="37.47788" lon="-6.00837">
        <ele>7.865155</ele>
        <time>2022-04-09T08:53:05.000Z</time>
      </trkpt>
      <trkpt lat="37.47787" lon="-6.00837">
        <ele>7.865155</ele>
        <time>2022-04-09T08:53:12.000Z</time>
      </trkpt>
      <trkpt lat="37.47788" lon="-6.00834">
        <ele>7.865155</ele>
        <time>2022-04-09T08:53:13.000Z</time>
      </trkpt>
      <trkpt lat="37.4779" lon="-6.00833">
        <ele>7.865155</ele>
        <time>2022-04-09T08:53:14.000Z</time>
      </trkpt>
      <trkpt lat="37.47795" lon="-6.00834">
        <ele>7.865155</ele>
        <time>2022-04-09T08:53:16.000Z</time>
      </trkpt>
      <trkpt lat="37.47797" lon="-6.00837">
        <ele>7.865155</ele>
        <time>2022-04-09T08:53:17.000Z</time>
      </trkpt>
      <trkpt lat="37.47798" lon="-6.0084">
        <ele>7.865155</ele>
        <time>2022-04-09T08:53:18.000Z</time>
      </trkpt>
      <trkpt lat="37.47798" lon="-6.00854">
        <ele>7.865155</ele>
        <time>2022-04-09T08:53:23.000Z</time>
      </trkpt>
      <trkpt lat="37.47801" lon="-6.00856">
        <ele>7.865155</ele>
        <time>2022-04-09T08:53:25.000Z</time>
      </trkpt>
      <trkpt lat="37.47806" lon="-6.00857">
        <ele>7.865155</ele>
        <time>2022-04-09T08:53:27.000Z</time>
      </trkpt>
      <trkpt lat="37.47815" lon="-6.00858">
        <ele>7.865155</ele>
        <time>2022-04-09T08:53:30.000Z</time>
      </trkpt>
      <trkpt lat="37.47826" lon="-6.00857">
        <ele>7.865155</ele>
        <time>2022-04-09T08:53:34.000Z</time>
      </trkpt>
      <trkpt lat="37.47841" lon="-6.00857">
        <ele>7.865155</ele>
        <time>2022-04-09T08:53:40.000Z</time>
      </trkpt>
      <trkpt lat="37.47843" lon="-6.00856">
        <ele>7.865155</ele>
        <time>2022-04-09T08:53:41.000Z</time>
      </trkpt>
      <trkpt lat="37.4786" lon="-6.00854">
        <ele>7.873892</ele>
        <time>2022-04-09T08:53:47.000Z</time>
      </trkpt>
      <trkpt lat="37.47863" lon="-6.00853">
        <ele>7.876681</ele>
        <time>2022-04-09T08:53:48.000Z</time>
      </trkpt>
      <trkpt lat="37.47871" lon="-6.00851">
        <ele>7.885337</ele>
        <time>2022-04-09T08:53:51.000Z</time>
      </trkpt>
      <trkpt lat="37.4789" lon="-6.00849">
        <ele>7.903914</ele>
        <time>2022-04-09T08:53:58.000Z</time>
      </trkpt>
      <trkpt lat="37.47899" lon="-6.00848">
        <ele>7.912576</ele>
        <time>2022-04-09T08:54:02.000Z</time>
      </trkpt>
      <trkpt lat="37.47907" lon="-6.00845">
        <ele>7.920793</ele>
        <time>2022-04-09T08:54:05.000Z</time>
      </trkpt>
      <trkpt lat="37.4792" lon="-6.00844">
        <ele>7.933166</ele>
        <time>2022-04-09T08:54:09.000Z</time>
      </trkpt>
      <trkpt lat="37.47923" lon="-6.00845">
        <ele>7.936218</ele>
        <time>2022-04-09T08:54:10.000Z</time>
      </trkpt>
      <trkpt lat="37.47929" lon="-6.00846">
        <ele>7.94255</ele>
        <time>2022-04-09T08:54:12.000Z</time>
      </trkpt>
      <trkpt lat="37.47942" lon="-6.00852">
        <ele>7.956538</ele>
        <time>2022-04-09T08:54:16.000Z</time>
      </trkpt>
      <trkpt lat="37.47945" lon="-6.00856">
        <ele>7.960881</ele>
        <time>2022-04-09T08:54:18.000Z</time>
      </trkpt>
      <trkpt lat="37.47945" lon="-6.00859">
        <ele>7.963072</ele>
        <time>2022-04-09T08:54:19.000Z</time>
      </trkpt>
      <trkpt lat="37.47944" lon="-6.00862">
        <ele>7.965829</ele>
        <time>2022-04-09T08:54:20.000Z</time>
      </trkpt>
      <trkpt lat="37.47938" lon="-6.00866">
        <ele>7.972149</ele>
        <time>2022-04-09T08:54:22.000Z</time>
      </trkpt>
      <trkpt lat="37.4793" lon="-6.00868">
        <ele>7.980381</ele>
        <time>2022-04-09T08:54:24.000Z</time>
      </trkpt>
      <trkpt lat="37.47916" lon="-6.00869">
        <ele>7.993393</ele>
        <time>2022-04-09T08:54:27.000Z</time>
      </trkpt>
      <trkpt lat="37.47907" lon="-6.0087">
        <ele>8.002459</ele>
        <time>2022-04-09T08:54:29.000Z</time>
      </trkpt>
      <trkpt lat="37.47884" lon="-6.00874">
        <ele>8.025284</ele>
        <time>2022-04-09T08:54:34.000Z</time>
      </trkpt>
      <trkpt lat="37.47876" lon="-6.00877">
        <ele>8.033783</ele>
        <time>2022-04-09T08:54:36.000Z</time>
      </trkpt>
      <trkpt lat="37.47838" lon="-6.00883">
        <ele>8.077692</ele>
        <time>2022-04-09T08:54:44.000Z</time>
      </trkpt>
      <trkpt lat="37.47824" lon="-6.00884">
        <ele>8.09433</ele>
        <time>2022-04-09T08:54:47.000Z</time>
      </trkpt>
      <trkpt lat="37.4781" lon="-6.00887">
        <ele>8.111149</ele>
        <time>2022-04-09T08:54:50.000Z</time>
      </trkpt>
      <trkpt lat="37.47795" lon="-6.00889">
        <ele>8.128266</ele>
        <time>2022-04-09T08:54:53.000Z</time>
      </trkpt>
      <trkpt lat="37.47778" lon="-6.00893">
        <ele>8.149422</ele>
        <time>2022-04-09T08:54:57.000Z</time>
      </trkpt>
      <trkpt lat="37.47768" lon="-6.00895">
        <ele>8.161318</ele>
        <time>2022-04-09T08:54:59.000Z</time>
      </trkpt>
      <trkpt lat="37.47746" lon="-6.00898">
        <ele>8.187734</ele>
        <time>2022-04-09T08:55:04.000Z</time>
      </trkpt>
      <trkpt lat="37.47708" lon="-6.00904">
        <ele>8.232764</ele>
        <time>2022-04-09T08:55:12.000Z</time>
      </trkpt>
      <trkpt lat="37.47703" lon="-6.00903">
        <ele>8.238581</ele>
        <time>2022-04-09T08:55:13.000Z</time>
      </trkpt>
      <trkpt lat="37.47686" lon="-6.00899">
        <ele>8.233886</ele>
        <time>2022-04-09T08:55:17.000Z</time>
      </trkpt>
      <trkpt lat="37.47679" lon="-6.00892">
        <ele>8.179612</ele>
        <time>2022-04-09T08:55:19.000Z</time>
      </trkpt>
      <trkpt lat="37.47676" lon="-6.00887">
        <ele>8.146921</ele>
        <time>2022-04-09T08:55:20.000Z</time>
      </trkpt>
      <trkpt lat="37.47665" lon="-6.00869">
        <ele>8.03536</ele>
        <time>2022-04-09T08:55:23.000Z</time>
      </trkpt>
      <trkpt lat="37.47658" lon="-6.00857">
        <ele>7.96263</ele>
        <time>2022-04-09T08:55:25.000Z</time>
      </trkpt>
      <trkpt lat="37.47655" lon="-6.00851">
        <ele>7.927619</ele>
        <time>2022-04-09T08:55:26.000Z</time>
      </trkpt>
      <trkpt lat="37.4764" lon="-6.0082">
        <ele>7.752761</ele>
        <time>2022-04-09T08:55:31.000Z</time>
      </trkpt>
      <trkpt lat="37.47635" lon="-6.00809">
        <ele>7.68746</ele>
        <time>2022-04-09T08:55:33.000Z</time>
      </trkpt>
      <trkpt lat="37.47626" lon="-6.00793">
        <ele>7.593076</ele>
        <time>2022-04-09T08:55:36.000Z</time>
      </trkpt>
      <trkpt lat="37.47623" lon="-6.00788">
        <ele>7.560667</ele>
        <time>2022-04-09T08:55:37.000Z</time>
      </trkpt>
      <trkpt lat="37.47616" lon="-6.00771">
        <ele>7.465504</ele>
        <time>2022-04-09T08:55:40.000Z</time>
      </trkpt>
      <trkpt lat="37.47607" lon="-6.00755">
        <ele>7.371276</ele>
        <time>2022-04-09T08:55:43.000Z</time>
      </trkpt>
      <trkpt lat="37.47595" lon="-6.00733">
        <ele>7.238878</ele>
        <time>2022-04-09T08:55:47.000Z</time>
      </trkpt>
      <trkpt lat="37.47588" lon="-6.00724">
        <ele>7.17746</ele>
        <time>2022-04-09T08:55:49.000Z</time>
      </trkpt>
      <trkpt lat="37.47585" lon="-6.00719">
        <ele>7.146291</ele>
        <time>2022-04-09T08:55:50.000Z</time>
      </trkpt>
      <trkpt lat="37.47564" lon="-6.00685">
        <ele>7.307093</ele>
        <time>2022-04-09T08:55:57.000Z</time>
      </trkpt>
      <trkpt lat="37.47561" lon="-6.0068">
        <ele>7.32958</ele>
        <time>2022-04-09T08:55:58.000Z</time>
      </trkpt>
      <trkpt lat="37.47556" lon="-6.00669">
        <ele>7.377079</ele>
        <time>2022-04-09T08:56:00.000Z</time>
      </trkpt>
      <trkpt lat="37.47542" lon="-6.00641">
        <ele>7.50776</ele>
        <time>2022-04-09T08:56:06.000Z</time>
      </trkpt>
      <trkpt lat="37.47539" lon="-6.0063">
        <ele>7.552978</ele>
        <time>2022-04-09T08:56:08.000Z</time>
      </trkpt>
      <trkpt lat="37.4753" lon="-6.00602">
        <ele>7.667416</ele>
        <time>2022-04-09T08:56:13.000Z</time>
      </trkpt>
      <trkpt lat="37.47528" lon="-6.00598">
        <ele>7.685793</ele>
        <time>2022-04-09T08:56:14.000Z</time>
      </trkpt>
      <trkpt lat="37.47526" lon="-6.00592">
        <ele>7.712948</ele>
        <time>2022-04-09T08:56:15.000Z</time>
      </trkpt>
      <trkpt lat="37.47524" lon="-6.00587">
        <ele>7.734396</ele>
        <time>2022-04-09T08:56:16.000Z</time>
      </trkpt>
      <trkpt lat="37.47519" lon="-6.00569">
        <ele>7.80835</ele>
        <time>2022-04-09T08:56:20.000Z</time>
      </trkpt>
      <trkpt lat="37.47515" lon="-6.00554">
        <ele>7.869006</ele>
        <time>2022-04-09T08:56:23.000Z</time>
      </trkpt>
      <trkpt lat="37.47509" lon="-6.00539">
        <ele>7.934552</ele>
        <time>2022-04-09T08:56:26.000Z</time>
      </trkpt>
      <trkpt lat="37.47507" lon="-6.00534">
        <ele>7.955873</ele>
        <time>2022-04-09T08:56:27.000Z</time>
      </trkpt>
      <trkpt lat="37.47504" lon="-6.0052">
        <ele>8.012383</ele>
        <time>2022-04-09T08:56:30.000Z</time>
      </trkpt>
      <trkpt lat="37.47503" lon="-6.00516">
        <ele>8.019044</ele>
        <time>2022-04-09T08:56:31.000Z</time>
      </trkpt>
      <trkpt lat="37.47498" lon="-6.00512">
        <ele>8.016762</ele>
        <time>2022-04-09T08:56:33.000Z</time>
      </trkpt>
      <trkpt lat="37.47494" lon="-6.00511">
        <ele>8.015046</ele>
        <time>2022-04-09T08:56:34.000Z</time>
      </trkpt>
      <trkpt lat="37.47467" lon="-6.00515">
        <ele>8.00393</ele>
        <time>2022-04-09T08:56:41.000Z</time>
      </trkpt>
      <trkpt lat="37.47428" lon="-6.00519">
        <ele>7.988268</ele>
        <time>2022-04-09T08:56:50.000Z</time>
      </trkpt>
      <trkpt lat="37.47392" lon="-6.00522">
        <ele>7.973631</ele>
        <time>2022-04-09T08:56:58.000Z</time>
      </trkpt>
      <trkpt lat="37.47387" lon="-6.00522">
        <ele>7.971764</ele>
        <time>2022-04-09T08:56:59.000Z</time>
      </trkpt>
      <trkpt lat="37.47369" lon="-6.00523">
        <ele>7.964181</ele>
        <time>2022-04-09T08:57:03.000Z</time>
      </trkpt>
      <trkpt lat="37.47364" lon="-6.00524">
        <ele>7.962345</ele>
        <time>2022-04-09T08:57:04.000Z</time>
      </trkpt>
      <trkpt lat="37.4734" lon="-6.00524">
        <ele>7.952625</ele>
        <time>2022-04-09T08:57:09.000Z</time>
      </trkpt>
      <trkpt lat="37.473" lon="-6.00523">
        <ele>7.982555</ele>
        <time>2022-04-09T08:57:17.000Z</time>
      </trkpt>
      <trkpt lat="37.47296" lon="-6.00523">
        <ele>7.988629</ele>
        <time>2022-04-09T08:57:18.000Z</time>
      </trkpt>
      <trkpt lat="37.47276" lon="-6.00526">
        <ele>8.015631</ele>
        <time>2022-04-09T08:57:22.000Z</time>
      </trkpt>
      <trkpt lat="37.47255" lon="-6.00535">
        <ele>8.045902</ele>
        <time>2022-04-09T08:57:27.000Z</time>
      </trkpt>
      <trkpt lat="37.47251" lon="-6.00537">
        <ele>8.051687</ele>
        <time>2022-04-09T08:57:28.000Z</time>
      </trkpt>
      <trkpt lat="37.47242" lon="-6.0054">
        <ele>8.064276</ele>
        <time>2022-04-09T08:57:30.000Z</time>
      </trkpt>
      <trkpt lat="37.47237" lon="-6.0054">
        <ele>8.071142</ele>
        <time>2022-04-09T08:57:31.000Z</time>
      </trkpt>
      <trkpt lat="37.47233" lon="-6.0054">
        <ele>8.077875</ele>
        <time>2022-04-09T08:57:32.000Z</time>
      </trkpt>
      <trkpt lat="37.47214" lon="-6.00545">
        <ele>8.104022</ele>
        <time>2022-04-09T08:57:36.000Z</time>
      </trkpt>
      <trkpt lat="37.47179" lon="-6.00557">
        <ele>8.153302</ele>
        <time>2022-04-09T08:57:43.000Z</time>
      </trkpt>
      <trkpt lat="37.4717" lon="-6.00561">
        <ele>8.166653</ele>
        <time>2022-04-09T08:57:45.000Z</time>
      </trkpt>
      <trkpt lat="37.47146" lon="-6.00569">
        <ele>8.21062</ele>
        <time>2022-04-09T08:57:50.000Z</time>
      </trkpt>
      <trkpt lat="37.47118" lon="-6.00581">
        <ele>8.31209</ele>
        <time>2022-04-09T08:57:56.000Z</time>
      </trkpt>
      <trkpt lat="37.47088" lon="-6.00593">
        <ele>8.414673</ele>
        <time>2022-04-09T08:58:02.000Z</time>
      </trkpt>
      <trkpt lat="37.47079" lon="-6.00596">
        <ele>8.448684</ele>
        <time>2022-04-09T08:58:04.000Z</time>
      </trkpt>
      <trkpt lat="37.47037" lon="-6.0061">
        <ele>8.59265</ele>
        <time>2022-04-09T08:58:12.000Z</time>
      </trkpt>
      <trkpt lat="37.47032" lon="-6.00612">
        <ele>8.610787</ele>
        <time>2022-04-09T08:58:13.000Z</time>
      </trkpt>
      <trkpt lat="37.47006" lon="-6.00621">
        <ele>8.701367</ele>
        <time>2022-04-09T08:58:18.000Z</time>
      </trkpt>
      <trkpt lat="37.46986" lon="-6.00629">
        <ele>8.772594</ele>
        <time>2022-04-09T08:58:22.000Z</time>
      </trkpt>
      <trkpt lat="37.46952" lon="-6.0064">
        <ele>8.861992</ele>
        <time>2022-04-09T08:58:28.000Z</time>
      </trkpt>
      <trkpt lat="37.46924" lon="-6.00647">
        <ele>8.925948</ele>
        <time>2022-04-09T08:58:33.000Z</time>
      </trkpt>
      <trkpt lat="37.46907" lon="-6.00651">
        <ele>8.966729</ele>
        <time>2022-04-09T08:58:36.000Z</time>
      </trkpt>
      <trkpt lat="37.46891" lon="-6.00653">
        <ele>9.003992</ele>
        <time>2022-04-09T08:58:39.000Z</time>
      </trkpt>
      <trkpt lat="37.46882" lon="-6.00654">
        <ele>9.02397</ele>
        <time>2022-04-09T08:58:41.000Z</time>
      </trkpt>
      <trkpt lat="37.46861" lon="-6.00657">
        <ele>9.073078</ele>
        <time>2022-04-09T08:58:45.000Z</time>
      </trkpt>
      <trkpt lat="37.46851" lon="-6.0066">
        <ele>9.095688</ele>
        <time>2022-04-09T08:58:47.000Z</time>
      </trkpt>
      <trkpt lat="37.46847" lon="-6.00662">
        <ele>9.106679</ele>
        <time>2022-04-09T08:58:48.000Z</time>
      </trkpt>
      <trkpt lat="37.46826" lon="-6.00673">
        <ele>9.158696</ele>
        <time>2022-04-09T08:58:53.000Z</time>
      </trkpt>
      <trkpt lat="37.46794" lon="-6.00691">
        <ele>9.195347</ele>
        <time>2022-04-09T08:59:00.000Z</time>
      </trkpt>
      <trkpt lat="37.46783" lon="-6.00696">
        <ele>9.181319</ele>
        <time>2022-04-09T08:59:02.000Z</time>
      </trkpt>
      <trkpt lat="37.46768" lon="-6.00706">
        <ele>9.159395</ele>
        <time>2022-04-09T08:59:06.000Z</time>
      </trkpt>
      <trkpt lat="37.46764" lon="-6.00709">
        <ele>9.154375</ele>
        <time>2022-04-09T08:59:07.000Z</time>
      </trkpt>
      <trkpt lat="37.46752" lon="-6.00722">
        <ele>9.134344</ele>
        <time>2022-04-09T08:59:12.000Z</time>
      </trkpt>
      <trkpt lat="37.46742" lon="-6.00743">
        <ele>9.109968</ele>
        <time>2022-04-09T08:59:17.000Z</time>
      </trkpt>
      <trkpt lat="37.46736" lon="-6.0075">
        <ele>9.099572</ele>
        <time>2022-04-09T08:59:19.000Z</time>
      </trkpt>
      <trkpt lat="37.46727" lon="-6.00755">
        <ele>9.088028</ele>
        <time>2022-04-09T08:59:21.000Z</time>
      </trkpt>
      <trkpt lat="37.46718" lon="-6.00753">
        <ele>9.076277</ele>
        <time>2022-04-09T08:59:23.000Z</time>
      </trkpt>
      <trkpt lat="37.4671" lon="-6.00748">
        <ele>9.064971</ele>
        <time>2022-04-09T08:59:25.000Z</time>
      </trkpt>
      <trkpt lat="37.46698" lon="-6.00737">
        <ele>9.046334</ele>
        <time>2022-04-09T08:59:29.000Z</time>
      </trkpt>
      <trkpt lat="37.46677" lon="-6.00728">
        <ele>9.019537</ele>
        <time>2022-04-09T08:59:35.000Z</time>
      </trkpt>
      <trkpt lat="37.46643" lon="-6.00709">
        <ele>8.97078</ele>
        <time>2022-04-09T08:59:44.000Z</time>
      </trkpt>
      <trkpt lat="37.46639" lon="-6.00706">
        <ele>8.965339</ele>
        <time>2022-04-09T08:59:45.000Z</time>
      </trkpt>
      <trkpt lat="37.46632" lon="-6.00698">
        <ele>8.952381</ele>
        <time>2022-04-09T08:59:48.000Z</time>
      </trkpt>
      <trkpt lat="37.4662" lon="-6.007">
        <ele>8.935672</ele>
        <time>2022-04-09T08:59:52.000Z</time>
      </trkpt>
      <trkpt lat="37.46604" lon="-6.00696">
        <ele>8.91376</ele>
        <time>2022-04-09T08:59:56.000Z</time>
      </trkpt>
      <trkpt lat="37.46571" lon="-6.00678">
        <ele>8.864186</ele>
        <time>2022-04-09T09:00:04.000Z</time>
      </trkpt>
      <trkpt lat="37.46552" lon="-6.00668">
        <ele>8.836142</ele>
        <time>2022-04-09T09:00:08.000Z</time>
      </trkpt>
      <trkpt lat="37.4653" lon="-6.00656">
        <ele>8.803007</ele>
        <time>2022-04-09T09:00:13.000Z</time>
      </trkpt>
      <trkpt lat="37.46507" lon="-6.00644">
        <ele>8.7687</ele>
        <time>2022-04-09T09:00:18.000Z</time>
      </trkpt>
      <trkpt lat="37.46493" lon="-6.00637">
        <ele>8.748309</ele>
        <time>2022-04-09T09:00:21.000Z</time>
      </trkpt>
      <trkpt lat="37.46479" lon="-6.00629">
        <ele>8.720869</ele>
        <time>2022-04-09T09:00:24.000Z</time>
      </trkpt>
      <trkpt lat="37.4645" lon="-6.00612">
        <ele>8.653834</ele>
        <time>2022-04-09T09:00:30.000Z</time>
      </trkpt>
      <trkpt lat="37.46432" lon="-6.00603">
        <ele>8.612539</ele>
        <time>2022-04-09T09:00:34.000Z</time>
      </trkpt>
      <trkpt lat="37.46389" lon="-6.0058">
        <ele>8.514921</ele>
        <time>2022-04-09T09:00:43.000Z</time>
      </trkpt>
      <trkpt lat="37.46351" lon="-6.00561">
        <ele>8.429352</ele>
        <time>2022-04-09T09:00:51.000Z</time>
      </trkpt>
      <trkpt lat="37.46307" lon="-6.00537">
        <ele>8.517666</ele>
        <time>2022-04-09T09:01:00.000Z</time>
      </trkpt>
      <trkpt lat="37.46297" lon="-6.00531">
        <ele>8.613142</ele>
        <time>2022-04-09T09:01:02.000Z</time>
      </trkpt>
      <trkpt lat="37.46272" lon="-6.00519">
        <ele>8.857514</ele>
        <time>2022-04-09T09:01:07.000Z</time>
      </trkpt>
      <trkpt lat="37.46263" lon="-6.00519">
        <ele>8.94241</ele>
        <time>2022-04-09T09:01:09.000Z</time>
      </trkpt>
      <trkpt lat="37.46253" lon="-6.00522">
        <ele>9.029634</ele>
        <time>2022-04-09T09:01:11.000Z</time>
      </trkpt>
      <trkpt lat="37.46245" lon="-6.0052">
        <ele>9.108454</ele>
        <time>2022-04-09T09:01:13.000Z</time>
      </trkpt>
      <trkpt lat="37.4624" lon="-6.00512">
        <ele>9.182003</ele>
        <time>2022-04-09T09:01:15.000Z</time>
      </trkpt>
      <trkpt lat="37.46239" lon="-6.00507">
        <ele>9.218562</ele>
        <time>2022-04-09T09:01:16.000Z</time>
      </trkpt>
      <trkpt lat="37.46239" lon="-6.00502">
        <ele>9.255296</ele>
        <time>2022-04-09T09:01:17.000Z</time>
      </trkpt>
      <trkpt lat="37.46239" lon="-6.00487">
        <ele>9.356425</ele>
        <time>2022-04-09T09:01:20.000Z</time>
      </trkpt>
      <trkpt lat="37.46228" lon="-6.00468">
        <ele>9.530015</ele>
        <time>2022-04-09T09:01:25.000Z</time>
      </trkpt>
      <trkpt lat="37.46225" lon="-6.00464">
        <ele>9.568783</ele>
        <time>2022-04-09T09:01:26.000Z</time>
      </trkpt>
      <trkpt lat="37.46219" lon="-6.00456">
        <ele>9.646373</ele>
        <time>2022-04-09T09:01:28.000Z</time>
      </trkpt>
      <trkpt lat="37.46212" lon="-6.0045">
        <ele>9.720882</ele>
        <time>2022-04-09T09:01:30.000Z</time>
      </trkpt>
      <trkpt lat="37.46208" lon="-6.00448">
        <ele>9.75807</ele>
        <time>2022-04-09T09:01:31.000Z</time>
      </trkpt>
      <trkpt lat="37.46196" lon="-6.00442">
        <ele>9.880185</ele>
        <time>2022-04-09T09:01:34.000Z</time>
      </trkpt>
      <trkpt lat="37.4617" lon="-6.00428">
        <ele>10.024999</ele>
        <time>2022-04-09T09:01:40.000Z</time>
      </trkpt>
      <trkpt lat="37.46117" lon="-6.004">
        <ele>10.153006</ele>
        <time>2022-04-09T09:01:52.000Z</time>
      </trkpt>
      <trkpt lat="37.46113" lon="-6.00398">
        <ele>10.162911</ele>
        <time>2022-04-09T09:01:53.000Z</time>
      </trkpt>
      <trkpt lat="37.46087" lon="-6.00385">
        <ele>10.225114</ele>
        <time>2022-04-09T09:01:59.000Z</time>
      </trkpt>
      <trkpt lat="37.4607" lon="-6.00376">
        <ele>10.267766</ele>
        <time>2022-04-09T09:02:03.000Z</time>
      </trkpt>
      <trkpt lat="37.46025" lon="-6.00352">
        <ele>10.376931</ele>
        <time>2022-04-09T09:02:13.000Z</time>
      </trkpt>
      <trkpt lat="37.46011" lon="-6.00345">
        <ele>10.374791</ele>
        <time>2022-04-09T09:02:16.000Z</time>
      </trkpt>
      <trkpt lat="37.45969" lon="-6.00322">
        <ele>10.278232</ele>
        <time>2022-04-09T09:02:25.000Z</time>
      </trkpt>
      <trkpt lat="37.45955" lon="-6.00315">
        <ele>10.247594</ele>
        <time>2022-04-09T09:02:28.000Z</time>
      </trkpt>
      <trkpt lat="37.45951" lon="-6.00313">
        <ele>10.237724</ele>
        <time>2022-04-09T09:02:29.000Z</time>
      </trkpt>
      <trkpt lat="37.45937" lon="-6.00306">
        <ele>10.207406</ele>
        <time>2022-04-09T09:02:32.000Z</time>
      </trkpt>
      <trkpt lat="37.45929" lon="-6.00301">
        <ele>10.187279</ele>
        <time>2022-04-09T09:02:34.000Z</time>
      </trkpt>
      <trkpt lat="37.45919" lon="-6.00297">
        <ele>10.16651</ele>
        <time>2022-04-09T09:02:36.000Z</time>
      </trkpt>
      <trkpt lat="37.45896" lon="-6.00284">
        <ele>10.111875</ele>
        <time>2022-04-09T09:02:41.000Z</time>
      </trkpt>
      <trkpt lat="37.45854" lon="-6.00261">
        <ele>10.01648</ele>
        <time>2022-04-09T09:02:50.000Z</time>
      </trkpt>
      <trkpt lat="37.45849" lon="-6.00259">
        <ele>9.992812</ele>
        <time>2022-04-09T09:02:51.000Z</time>
      </trkpt>
      <trkpt lat="37.4582" lon="-6.00243">
        <ele>9.822921</ele>
        <time>2022-04-09T09:02:57.000Z</time>
      </trkpt>
      <trkpt lat="37.45801" lon="-6.00233">
        <ele>9.712278</ele>
        <time>2022-04-09T09:03:01.000Z</time>
      </trkpt>
      <trkpt lat="37.45754" lon="-6.00208">
        <ele>9.442541</ele>
        <time>2022-04-09T09:03:10.000Z</time>
      </trkpt>
      <trkpt lat="37.45728" lon="-6.00194">
        <ele>9.289376</ele>
        <time>2022-04-09T09:03:15.000Z</time>
      </trkpt>
      <trkpt lat="37.45684" lon="-6.00171">
        <ele>9.044684</ele>
        <time>2022-04-09T09:03:23.000Z</time>
      </trkpt>
      <trkpt lat="37.45675" lon="-6.00165">
        <ele>9.016077</ele>
        <time>2022-04-09T09:03:25.000Z</time>
      </trkpt>
      <trkpt lat="37.45669" lon="-6.00163">
        <ele>9.000163</ele>
        <time>2022-04-09T09:03:26.000Z</time>
      </trkpt>
      <trkpt lat="37.45652" lon="-6.00153">
        <ele>8.948756</ele>
        <time>2022-04-09T09:03:29.000Z</time>
      </trkpt>
      <trkpt lat="37.45627" lon="-6.00139">
        <ele>8.870541</ele>
        <time>2022-04-09T09:03:34.000Z</time>
      </trkpt>
      <trkpt lat="37.45611" lon="-6.00131">
        <ele>8.823308</ele>
        <time>2022-04-09T09:03:37.000Z</time>
      </trkpt>
      <trkpt lat="37.45559" lon="-6.00103">
        <ele>8.667141</ele>
        <time>2022-04-09T09:03:47.000Z</time>
      </trkpt>
      <trkpt lat="37.45543" lon="-6.00094">
        <ele>8.619648</ele>
        <time>2022-04-09T09:03:50.000Z</time>
      </trkpt>
      <trkpt lat="37.45538" lon="-6.00091">
        <ele>8.603648</ele>
        <time>2022-04-09T09:03:51.000Z</time>
      </trkpt>
      <trkpt lat="37.45505" lon="-6.00077">
        <ele>8.479827</ele>
        <time>2022-04-09T09:03:57.000Z</time>
      </trkpt>
      <trkpt lat="37.45484" lon="-6.00065">
        <ele>8.380126</ele>
        <time>2022-04-09T09:04:01.000Z</time>
      </trkpt>
      <trkpt lat="37.45447" lon="-6.00046">
        <ele>8.204047</ele>
        <time>2022-04-09T09:04:08.000Z</time>
      </trkpt>
      <trkpt lat="37.45429" lon="-6.00036">
        <ele>8.121099</ele>
        <time>2022-04-09T09:04:11.000Z</time>
      </trkpt>
      <trkpt lat="37.4538" lon="-6.0001">
        <ele>7.886995</ele>
        <time>2022-04-09T09:04:20.000Z</time>
      </trkpt>
      <trkpt lat="37.45364" lon="-6.00003">
        <ele>7.813672</ele>
        <time>2022-04-09T09:04:23.000Z</time>
      </trkpt>
      <trkpt lat="37.45351" lon="-6.00005">
        <ele>7.76371</ele>
        <time>2022-04-09T09:04:25.000Z</time>
      </trkpt>
      <trkpt lat="37.45346" lon="-6.00007">
        <ele>7.752845</ele>
        <time>2022-04-09T09:04:26.000Z</time>
      </trkpt>
      <trkpt lat="37.4534" lon="-6.00008">
        <ele>7.73915</ele>
        <time>2022-04-09T09:04:27.000Z</time>
      </trkpt>
      <trkpt lat="37.45327" lon="-6.00004">
        <ele>7.709793</ele>
        <time>2022-04-09T09:04:29.000Z</time>
      </trkpt>
      <trkpt lat="37.45318" lon="-5.99997">
        <ele>7.685711</ele>
        <time>2022-04-09T09:04:31.000Z</time>
      </trkpt>
      <trkpt lat="37.45311" lon="-5.99985">
        <ele>7.660867</ele>
        <time>2022-04-09T09:04:33.000Z</time>
      </trkpt>
      <trkpt lat="37.45306" lon="-5.99973">
        <ele>7.638187</ele>
        <time>2022-04-09T09:04:35.000Z</time>
      </trkpt>
      <trkpt lat="37.453" lon="-5.99965">
        <ele>7.618109</ele>
        <time>2022-04-09T09:04:37.000Z</time>
      </trkpt>
      <trkpt lat="37.45294" lon="-5.99961">
        <ele>7.604372</ele>
        <time>2022-04-09T09:04:38.000Z</time>
      </trkpt>
      <trkpt lat="37.45257" lon="-5.99942">
        <ele>7.516364</ele>
        <time>2022-04-09T09:04:45.000Z</time>
      </trkpt>
      <trkpt lat="37.45206" lon="-5.99916">
        <ele>7.396617</ele>
        <time>2022-04-09T09:04:54.000Z</time>
      </trkpt>
      <trkpt lat="37.45201" lon="-5.99914">
        <ele>7.385834</ele>
        <time>2022-04-09T09:04:55.000Z</time>
      </trkpt>
      <trkpt lat="37.45148" lon="-5.99885">
        <ele>7.469751</ele>
        <time>2022-04-09T09:05:04.000Z</time>
      </trkpt>
      <trkpt lat="37.45098" lon="-5.99859">
        <ele>7.558591</ele>
        <time>2022-04-09T09:05:13.000Z</time>
      </trkpt>
      <trkpt lat="37.45093" lon="-5.99857">
        <ele>7.566375</ele>
        <time>2022-04-09T09:05:14.000Z</time>
      </trkpt>
      <trkpt lat="37.45041" lon="-5.99829">
        <ele>7.658476</ele>
        <time>2022-04-09T09:05:24.000Z</time>
      </trkpt>
      <trkpt lat="37.45035" lon="-5.99826">
        <ele>7.669155</ele>
        <time>2022-04-09T09:05:25.000Z</time>
      </trkpt>
      <trkpt lat="37.44996" lon="-5.99805">
        <ele>7.606494</ele>
        <time>2022-04-09T09:05:33.000Z</time>
      </trkpt>
      <trkpt lat="37.44941" lon="-5.99776">
        <ele>7.508812</ele>
        <time>2022-04-09T09:05:44.000Z</time>
      </trkpt>
      <trkpt lat="37.4489" lon="-5.9975">
        <ele>7.416273</ele>
        <time>2022-04-09T09:05:54.000Z</time>
      </trkpt>
      <trkpt lat="37.44837" lon="-5.99722">
        <ele>7.272237</ele>
        <time>2022-04-09T09:06:04.000Z</time>
      </trkpt>
      <trkpt lat="37.44821" lon="-5.99714">
        <ele>7.216663</ele>
        <time>2022-04-09T09:06:07.000Z</time>
      </trkpt>
      <trkpt lat="37.44794" lon="-5.99699">
        <ele>7.121615</ele>
        <time>2022-04-09T09:06:12.000Z</time>
      </trkpt>
      <trkpt lat="37.44772" lon="-5.99687">
        <ele>7.044823</ele>
        <time>2022-04-09T09:06:16.000Z</time>
      </trkpt>
      <trkpt lat="37.44766" lon="-5.99684">
        <ele>7.025969</ele>
        <time>2022-04-09T09:06:17.000Z</time>
      </trkpt>
      <trkpt lat="37.44712" lon="-5.99654">
        <ele>6.83773</ele>
        <time>2022-04-09T09:06:27.000Z</time>
      </trkpt>
      <trkpt lat="37.44701" lon="-5.99648">
        <ele>6.800349</ele>
        <time>2022-04-09T09:06:29.000Z</time>
      </trkpt>
      <trkpt lat="37.44691" lon="-5.99643">
        <ele>6.795586</ele>
        <time>2022-04-09T09:06:31.000Z</time>
      </trkpt>
      <trkpt lat="37.44669" lon="-5.99631">
        <ele>6.785997</ele>
        <time>2022-04-09T09:06:35.000Z</time>
      </trkpt>
      <trkpt lat="37.44648" lon="-5.9962">
        <ele>6.776432</ele>
        <time>2022-04-09T09:06:39.000Z</time>
      </trkpt>
      <trkpt lat="37.44642" lon="-5.99618">
        <ele>6.773985</ele>
        <time>2022-04-09T09:06:40.000Z</time>
      </trkpt>
      <trkpt lat="37.44625" lon="-5.99609">
        <ele>6.766648</ele>
        <time>2022-04-09T09:06:43.000Z</time>
      </trkpt>
      <trkpt lat="37.44593" lon="-5.99594">
        <ele>6.752339</ele>
        <time>2022-04-09T09:06:49.000Z</time>
      </trkpt>
      <trkpt lat="37.44582" lon="-5.99588">
        <ele>6.747676</ele>
        <time>2022-04-09T09:06:51.000Z</time>
      </trkpt>
      <trkpt lat="37.44531" lon="-5.99559">
        <ele>6.73469</ele>
        <time>2022-04-09T09:07:01.000Z</time>
      </trkpt>
      <trkpt lat="37.44494" lon="-5.9954">
        <ele>6.795145</ele>
        <time>2022-04-09T09:07:08.000Z</time>
      </trkpt>
      <trkpt lat="37.44479" lon="-5.99534">
        <ele>6.819471</ele>
        <time>2022-04-09T09:07:11.000Z</time>
      </trkpt>
      <trkpt lat="37.44435" lon="-5.99511">
        <ele>6.892</ele>
        <time>2022-04-09T09:07:20.000Z</time>
      </trkpt>
      <trkpt lat="37.44389" lon="-5.99484">
        <ele>6.971175</ele>
        <time>2022-04-09T09:07:30.000Z</time>
      </trkpt>
      <trkpt lat="37.44361" lon="-5.99469">
        <ele>7.047998</ele>
        <time>2022-04-09T09:07:36.000Z</time>
      </trkpt>
      <trkpt lat="37.4434" lon="-5.99459">
        <ele>7.152264</ele>
        <time>2022-04-09T09:07:40.000Z</time>
      </trkpt>
      <trkpt lat="37.44304" lon="-5.99439">
        <ele>7.33764</ele>
        <time>2022-04-09T09:07:48.000Z</time>
      </trkpt>
      <trkpt lat="37.44295" lon="-5.99434">
        <ele>7.386864</ele>
        <time>2022-04-09T09:07:50.000Z</time>
      </trkpt>
      <trkpt lat="37.44242" lon="-5.99405">
        <ele>7.658475</ele>
        <time>2022-04-09T09:08:01.000Z</time>
      </trkpt>
      <trkpt lat="37.44237" lon="-5.99402">
        <ele>7.683007</ele>
        <time>2022-04-09T09:08:02.000Z</time>
      </trkpt>
      <trkpt lat="37.44183" lon="-5.99374">
        <ele>7.813338</ele>
        <time>2022-04-09T09:08:13.000Z</time>
      </trkpt>
      <trkpt lat="37.44132" lon="-5.99347">
        <ele>7.718401</ele>
        <time>2022-04-09T09:08:23.000Z</time>
      </trkpt>
      <trkpt lat="37.44126" lon="-5.99344">
        <ele>7.708188</ele>
        <time>2022-04-09T09:08:24.000Z</time>
      </trkpt>
      <trkpt lat="37.4408" lon="-5.99319">
        <ele>7.621089</ele>
        <time>2022-04-09T09:08:33.000Z</time>
      </trkpt>
      <trkpt lat="37.44064" lon="-5.99311">
        <ele>7.591947</ele>
        <time>2022-04-09T09:08:36.000Z</time>
      </trkpt>
      <trkpt lat="37.44013" lon="-5.99283">
        <ele>7.387712</ele>
        <time>2022-04-09T09:08:46.000Z</time>
      </trkpt>
      <trkpt lat="37.4396" lon="-5.99256">
        <ele>7.067388</ele>
        <time>2022-04-09T09:08:56.000Z</time>
      </trkpt>
      <trkpt lat="37.43955" lon="-5.99253">
        <ele>7.035181</ele>
        <time>2022-04-09T09:08:57.000Z</time>
      </trkpt>
      <trkpt lat="37.43934" lon="-5.99242">
        <ele>6.90739</ele>
        <time>2022-04-09T09:09:01.000Z</time>
      </trkpt>
      <trkpt lat="37.43923" lon="-5.99236">
        <ele>6.842115</ele>
        <time>2022-04-09T09:09:03.000Z</time>
      </trkpt>
      <trkpt lat="37.43902" lon="-5.99224">
        <ele>6.711875</ele>
        <time>2022-04-09T09:09:07.000Z</time>
      </trkpt>
      <trkpt lat="37.43852" lon="-5.99199">
        <ele>6.430038</ele>
        <time>2022-04-09T09:09:16.000Z</time>
      </trkpt>
      <trkpt lat="37.43847" lon="-5.99196">
        <ele>6.402657</ele>
        <time>2022-04-09T09:09:17.000Z</time>
      </trkpt>
      <trkpt lat="37.43835" lon="-5.9919">
        <ele>6.346213</ele>
        <time>2022-04-09T09:09:19.000Z</time>
      </trkpt>
      <trkpt lat="37.43818" lon="-5.99181">
        <ele>6.260263</ele>
        <time>2022-04-09T09:09:22.000Z</time>
      </trkpt>
      <trkpt lat="37.43777" lon="-5.99162">
        <ele>6.06136</ele>
        <time>2022-04-09T09:09:29.000Z</time>
      </trkpt>
      <trkpt lat="37.43736" lon="-5.99148">
        <ele>5.867832</ele>
        <time>2022-04-09T09:09:36.000Z</time>
      </trkpt>
      <trkpt lat="37.43725" lon="-5.99144">
        <ele>5.815201</ele>
        <time>2022-04-09T09:09:38.000Z</time>
      </trkpt>
      <trkpt lat="37.43719" lon="-5.99143">
        <ele>5.788522</ele>
        <time>2022-04-09T09:09:39.000Z</time>
      </trkpt>
      <trkpt lat="37.43713" lon="-5.99141">
        <ele>5.76192</ele>
        <time>2022-04-09T09:09:40.000Z</time>
      </trkpt>
      <trkpt lat="37.43708" lon="-5.9914">
        <ele>5.735906</ele>
        <time>2022-04-09T09:09:41.000Z</time>
      </trkpt>
      <trkpt lat="37.43702" lon="-5.99138">
        <ele>5.709751</ele>
        <time>2022-04-09T09:09:42.000Z</time>
      </trkpt>
      <trkpt lat="37.43658" lon="-5.99127">
        <ele>5.825551</ele>
        <time>2022-04-09T09:09:50.000Z</time>
      </trkpt>
      <trkpt lat="37.43641" lon="-5.99123">
        <ele>5.868248</ele>
        <time>2022-04-09T09:09:53.000Z</time>
      </trkpt>
      <trkpt lat="37.43625" lon="-5.99119">
        <ele>5.909953</ele>
        <time>2022-04-09T09:09:56.000Z</time>
      </trkpt>
      <trkpt lat="37.43609" lon="-5.99115">
        <ele>5.951409</ele>
        <time>2022-04-09T09:09:59.000Z</time>
      </trkpt>
      <trkpt lat="37.43604" lon="-5.99113">
        <ele>5.965075</ele>
        <time>2022-04-09T09:10:00.000Z</time>
      </trkpt>
      <trkpt lat="37.43593" lon="-5.9911">
        <ele>5.992626</ele>
        <time>2022-04-09T09:10:02.000Z</time>
      </trkpt>
      <trkpt lat="37.43555" lon="-5.99101">
        <ele>6.091674</ele>
        <time>2022-04-09T09:10:09.000Z</time>
      </trkpt>
      <trkpt lat="37.43539" lon="-5.99096">
        <ele>6.13243</ele>
        <time>2022-04-09T09:10:12.000Z</time>
      </trkpt>
      <trkpt lat="37.43529" lon="-5.99093">
        <ele>6.160271</ele>
        <time>2022-04-09T09:10:14.000Z</time>
      </trkpt>
      <trkpt lat="37.43513" lon="-5.99089">
        <ele>6.186478</ele>
        <time>2022-04-09T09:10:17.000Z</time>
      </trkpt>
      <trkpt lat="37.4348" lon="-5.99079">
        <ele>6.234432</ele>
        <time>2022-04-09T09:10:23.000Z</time>
      </trkpt>
      <trkpt lat="37.43428" lon="-5.99061">
        <ele>6.311933</ele>
        <time>2022-04-09T09:10:33.000Z</time>
      </trkpt>
      <trkpt lat="37.43423" lon="-5.99059">
        <ele>6.319722</ele>
        <time>2022-04-09T09:10:34.000Z</time>
      </trkpt>
      <trkpt lat="37.43368" lon="-5.99036">
        <ele>6.403078</ele>
        <time>2022-04-09T09:10:44.000Z</time>
      </trkpt>
      <trkpt lat="37.43362" lon="-5.99034">
        <ele>6.41196</ele>
        <time>2022-04-09T09:10:45.000Z</time>
      </trkpt>
      <trkpt lat="37.4331" lon="-5.99012">
        <ele>7.684836</ele>
        <time>2022-04-09T09:10:54.000Z</time>
      </trkpt>
      <trkpt lat="37.4328" lon="-5.98999">
        <ele>8.566645</ele>
        <time>2022-04-09T09:11:00.000Z</time>
      </trkpt>
      <trkpt lat="37.43261" lon="-5.98992">
        <ele>9.105756</ele>
        <time>2022-04-09T09:11:04.000Z</time>
      </trkpt>
      <trkpt lat="37.43244" lon="-5.98986">
        <ele>9.586385</ele>
        <time>2022-04-09T09:11:08.000Z</time>
      </trkpt>
      <trkpt lat="37.4324" lon="-5.98985">
        <ele>9.695542</ele>
        <time>2022-04-09T09:11:09.000Z</time>
      </trkpt>
      <trkpt lat="37.43237" lon="-5.98983">
        <ele>9.796145</ele>
        <time>2022-04-09T09:11:10.000Z</time>
      </trkpt>
      <trkpt lat="37.4322" lon="-5.98976">
        <ele>10.293823</ele>
        <time>2022-04-09T09:11:15.000Z</time>
      </trkpt>
      <trkpt lat="37.43213" lon="-5.98973">
        <ele>10.501</ele>
        <time>2022-04-09T09:11:17.000Z</time>
      </trkpt>
      <trkpt lat="37.432" lon="-5.98968">
        <ele>10.866051</ele>
        <time>2022-04-09T09:11:21.000Z</time>
      </trkpt>
      <trkpt lat="37.43185" lon="-5.98962">
        <ele>11.293452</ele>
        <time>2022-04-09T09:11:26.000Z</time>
      </trkpt>
      <trkpt lat="37.43182" lon="-5.9896">
        <ele>11.382864</ele>
        <time>2022-04-09T09:11:27.000Z</time>
      </trkpt>
      <trkpt lat="37.43179" lon="-5.98959">
        <ele>11.465047</ele>
        <time>2022-04-09T09:11:28.000Z</time>
      </trkpt>
      <trkpt lat="37.43154" lon="-5.98947">
        <ele>12.151991</ele>
        <time>2022-04-09T09:11:36.000Z</time>
      </trkpt>
      <trkpt lat="37.4315" lon="-5.98945">
        <ele>12.252068</ele>
        <time>2022-04-09T09:11:37.000Z</time>
      </trkpt>
      <trkpt lat="37.43128" lon="-5.98934">
        <ele>12.851598</ele>
        <time>2022-04-09T09:11:44.000Z</time>
      </trkpt>
      <trkpt lat="37.43118" lon="-5.98929">
        <ele>13.122725</ele>
        <time>2022-04-09T09:11:47.000Z</time>
      </trkpt>
      <trkpt lat="37.43106" lon="-5.98922">
        <ele>13.447131</ele>
        <time>2022-04-09T09:11:51.000Z</time>
      </trkpt>
      <trkpt lat="37.43091" lon="-5.98914">
        <ele>13.849369</ele>
        <time>2022-04-09T09:11:56.000Z</time>
      </trkpt>
      <trkpt lat="37.43077" lon="-5.98905">
        <ele>14.247613</ele>
        <time>2022-04-09T09:12:01.000Z</time>
      </trkpt>
      <trkpt lat="37.43054" lon="-5.98891">
        <ele>14.890138</ele>
        <time>2022-04-09T09:12:09.000Z</time>
      </trkpt>
      <trkpt lat="37.43036" lon="-5.98881">
        <ele>15.387228</ele>
        <time>2022-04-09T09:12:15.000Z</time>
      </trkpt>
      <trkpt lat="37.43015" lon="-5.98868">
        <ele>15.804857</ele>
        <time>2022-04-09T09:12:21.000Z</time>
      </trkpt>
      <trkpt lat="37.42983" lon="-5.98847">
        <ele>14.597229</ele>
        <time>2022-04-09T09:12:30.000Z</time>
      </trkpt>
      <trkpt lat="37.4296" lon="-5.98831">
        <ele>13.73447</ele>
        <time>2022-04-09T09:12:36.000Z</time>
      </trkpt>
      <trkpt lat="37.42955" lon="-5.98827">
        <ele>13.548951</ele>
        <time>2022-04-09T09:12:37.000Z</time>
      </trkpt>
      <trkpt lat="37.4294" lon="-5.98817">
        <ele>12.967253</ele>
        <time>2022-04-09T09:12:40.000Z</time>
      </trkpt>
      <trkpt lat="37.42922" lon="-5.98806">
        <ele>12.307212</ele>
        <time>2022-04-09T09:12:43.000Z</time>
      </trkpt>
      <trkpt lat="37.42917" lon="-5.98802">
        <ele>12.089998</ele>
        <time>2022-04-09T09:12:44.000Z</time>
      </trkpt>
      <trkpt lat="37.42899" lon="-5.98789">
        <ele>11.425423</ele>
        <time>2022-04-09T09:12:47.000Z</time>
      </trkpt>
      <trkpt lat="37.42881" lon="-5.98777">
        <ele>10.741562</ele>
        <time>2022-04-09T09:12:50.000Z</time>
      </trkpt>
      <trkpt lat="37.42869" lon="-5.98769">
        <ele>10.283515</ele>
        <time>2022-04-09T09:12:52.000Z</time>
      </trkpt>
      <trkpt lat="37.42857" lon="-5.9876">
        <ele>9.863021</ele>
        <time>2022-04-09T09:12:54.000Z</time>
      </trkpt>
      <trkpt lat="37.42829" lon="-5.98741">
        <ele>9.224159</ele>
        <time>2022-04-09T09:12:59.000Z</time>
      </trkpt>
      <trkpt lat="37.42819" lon="-5.98734">
        <ele>9.006122</ele>
        <time>2022-04-09T09:13:01.000Z</time>
      </trkpt>
      <trkpt lat="37.42792" lon="-5.98714">
        <ele>8.380395</ele>
        <time>2022-04-09T09:13:07.000Z</time>
      </trkpt>
      <trkpt lat="37.42777" lon="-5.98703">
        <ele>8.037651</ele>
        <time>2022-04-09T09:13:10.000Z</time>
      </trkpt>
      <trkpt lat="37.42765" lon="-5.98695">
        <ele>7.760955</ele>
        <time>2022-04-09T09:13:13.000Z</time>
      </trkpt>
      <trkpt lat="37.42758" lon="-5.98693">
        <ele>7.6192</ele>
        <time>2022-04-09T09:13:15.000Z</time>
      </trkpt>
      <trkpt lat="37.42743" lon="-5.98687">
        <ele>7.310564</ele>
        <time>2022-04-09T09:13:20.000Z</time>
      </trkpt>
      <trkpt lat="37.42733" lon="-5.98691">
        <ele>7.106633</ele>
        <time>2022-04-09T09:13:24.000Z</time>
      </trkpt>
      <trkpt lat="37.4273" lon="-5.98693">
        <ele>7.030919</ele>
        <time>2022-04-09T09:13:28.000Z</time>
      </trkpt>
      <trkpt lat="37.42728" lon="-5.98694">
        <ele>6.994579</ele>
        <time>2022-04-09T09:13:30.000Z</time>
      </trkpt>
      <trkpt lat="37.42727" lon="-5.98694">
        <ele>6.964591</ele>
        <time>2022-04-09T09:13:32.000Z</time>
      </trkpt>
      <trkpt lat="37.42726" lon="-5.98694">
        <ele>6.938697</ele>
        <time>2022-04-09T09:13:34.000Z</time>
      </trkpt>
      <trkpt lat="37.42723" lon="-5.98694">
        <ele>6.888968</ele>
        <time>2022-04-09T09:13:39.000Z</time>
      </trkpt>
      <trkpt lat="37.42721" lon="-5.98695">
        <ele>6.849854</ele>
        <time>2022-04-09T09:13:40.000Z</time>
      </trkpt>
      <trkpt lat="37.42712" lon="-5.987">
        <ele>6.636542</ele>
        <time>2022-04-09T09:13:44.000Z</time>
      </trkpt>
      <trkpt lat="37.42698" lon="-5.98709">
        <ele>6.339803</ele>
        <time>2022-04-09T09:13:50.000Z</time>
      </trkpt>
      <trkpt lat="37.42698" lon="-5.98709">
        <ele>6.339803</ele>
        <time>2022-04-09T09:13:54.000Z</time>
      </trkpt>
      <trkpt lat="37.42698" lon="-5.98709">
        <ele>6.339803</ele>
        <time>2022-04-09T09:14:04.000Z</time>
      </trkpt>
      <trkpt lat="37.42698" lon="-5.98709">
        <ele>6.339803</ele>
        <time>2022-04-09T09:14:23.000Z</time>
      </trkpt>
      <trkpt lat="37.42698" lon="-5.98709">
        <ele>6.339803</ele>
        <time>2022-04-09T09:14:37.000Z</time>
      </trkpt>
      <trkpt lat="37.42698" lon="-5.98709">
        <ele>6.339803</ele>
        <time>2022-04-09T09:14:38.000Z</time>
      </trkpt>
      <trkpt lat="37.42698" lon="-5.98709">
        <ele>6.339803</ele>
        <time>2022-04-09T09:14:42.000Z</time>
      </trkpt>
      <trkpt lat="37.42698" lon="-5.98709">
        <ele>6.339803</ele>
        <time>2022-04-09T09:14:45.000Z</time>
      </trkpt>
      <trkpt lat="37.42698" lon="-5.98709">
        <ele>6.339803</ele>
        <time>2022-04-09T09:14:54.000Z</time>
      </trkpt>
      <trkpt lat="37.42698" lon="-5.98709">
        <ele>6.339803</ele>
        <time>2022-04-09T09:15:16.000Z</time>
      </trkpt>
      <trkpt lat="37.42698" lon="-5.98709">
        <ele>6.339803</ele>
        <time>2022-04-09T09:15:23.000Z</time>
      </trkpt>
      <trkpt lat="37.42696" lon="-5.98712">
        <ele>6.337429</ele>
        <time>2022-04-09T09:15:28.000Z</time>
      </trkpt>
      <trkpt lat="37.42692" lon="-5.98716">
        <ele>6.332403</ele>
        <time>2022-04-09T09:15:30.000Z</time>
      </trkpt>
      <trkpt lat="37.42679" lon="-5.98728">
        <ele>6.31562</ele>
        <time>2022-04-09T09:15:35.000Z</time>
      </trkpt>
      <trkpt lat="37.42656" lon="-5.98748">
        <ele>6.287939</ele>
        <time>2022-04-09T09:15:43.000Z</time>
      </trkpt>
      <trkpt lat="37.42631" lon="-5.98769">
        <ele>6.257289</ele>
        <time>2022-04-09T09:15:51.000Z</time>
      </trkpt>
      <trkpt lat="37.4262" lon="-5.98779">
        <ele>6.243521</ele>
        <time>2022-04-09T09:15:55.000Z</time>
      </trkpt>
      <trkpt lat="37.42614" lon="-5.98784">
        <ele>6.236722</ele>
        <time>2022-04-09T09:15:57.000Z</time>
      </trkpt>
      <trkpt lat="37.42594" lon="-5.98799">
        <ele>6.213128</ele>
        <time>2022-04-09T09:16:03.000Z</time>
      </trkpt>
      <trkpt lat="37.42586" lon="-5.98803">
        <ele>6.20469</ele>
        <time>2022-04-09T09:16:05.000Z</time>
      </trkpt>
      <trkpt lat="37.42559" lon="-5.98813">
        <ele>6.17626</ele>
        <time>2022-04-09T09:16:13.000Z</time>
      </trkpt>
      <trkpt lat="37.42541" lon="-5.98818">
        <ele>6.115315</ele>
        <time>2022-04-09T09:16:19.000Z</time>
      </trkpt>
      <trkpt lat="37.42537" lon="-5.98821">
        <ele>6.03468</ele>
        <time>2022-04-09T09:16:21.000Z</time>
      </trkpt>
      <trkpt lat="37.42536" lon="-5.98827">
        <ele>5.938938</ele>
        <time>2022-04-09T09:16:23.000Z</time>
      </trkpt>
      <trkpt lat="37.42524" lon="-5.98842">
        <ele>5.615407</ele>
        <time>2022-04-09T09:16:29.000Z</time>
      </trkpt>
      <trkpt lat="37.42504" lon="-5.98855">
        <ele>5.162169</ele>
        <time>2022-04-09T09:16:37.000Z</time>
      </trkpt>
      <trkpt lat="37.42483" lon="-5.98874">
        <ele>4.652317</ele>
        <time>2022-04-09T09:16:43.000Z</time>
      </trkpt>
      <trkpt lat="37.42458" lon="-5.98895">
        <ele>4.065372</ele>
        <time>2022-04-09T09:16:49.000Z</time>
      </trkpt>
      <trkpt lat="37.42454" lon="-5.98899">
        <ele>3.969729</ele>
        <time>2022-04-09T09:16:50.000Z</time>
      </trkpt>
      <trkpt lat="37.42443" lon="-5.98908">
        <ele>3.712935</ele>
        <time>2022-04-09T09:16:53.000Z</time>
      </trkpt>
      <trkpt lat="37.42439" lon="-5.98911">
        <ele>3.619883</ele>
        <time>2022-04-09T09:16:54.000Z</time>
      </trkpt>
      <trkpt lat="37.42432" lon="-5.98917">
        <ele>3.447873</ele>
        <time>2022-04-09T09:16:56.000Z</time>
      </trkpt>
      <trkpt lat="37.42426" lon="-5.98921">
        <ele>3.327404</ele>
        <time>2022-04-09T09:16:58.000Z</time>
      </trkpt>
      <trkpt lat="37.42417" lon="-5.98925">
        <ele>3.124425</ele>
        <time>2022-04-09T09:17:01.000Z</time>
      </trkpt>
      <trkpt lat="37.42396" lon="-5.98927">
        <ele>2.716894</ele>
        <time>2022-04-09T09:17:07.000Z</time>
      </trkpt>
      <trkpt lat="37.42391" lon="-5.98927">
        <ele>2.624169</ele>
        <time>2022-04-09T09:17:11.000Z</time>
      </trkpt>
      <trkpt lat="37.4239" lon="-5.98927">
        <ele>2.620703</ele>
        <time>2022-04-09T09:17:20.000Z</time>
      </trkpt>
      <trkpt lat="37.4239" lon="-5.98927">
        <ele>2.620703</ele>
        <time>2022-04-09T09:17:26.000Z</time>
      </trkpt>
      <trkpt lat="37.4239" lon="-5.98927">
        <ele>2.620703</ele>
        <time>2022-04-09T09:17:29.000Z</time>
      </trkpt>
      <trkpt lat="37.4239" lon="-5.98927">
        <ele>2.620703</ele>
        <time>2022-04-09T09:17:33.000Z</time>
      </trkpt>
      <trkpt lat="37.4239" lon="-5.98927">
        <ele>2.620703</ele>
        <time>2022-04-09T09:17:35.000Z</time>
      </trkpt>
      <trkpt lat="37.4239" lon="-5.98926">
        <ele>2.6193</ele>
        <time>2022-04-09T09:17:41.000Z</time>
      </trkpt>
      <trkpt lat="37.42385" lon="-5.98923">
        <ele>2.59698</ele>
        <time>2022-04-09T09:17:43.000Z</time>
      </trkpt>
      <trkpt lat="37.42367" lon="-5.98908">
        <ele>2.49606</ele>
        <time>2022-04-09T09:17:50.000Z</time>
      </trkpt>
      <trkpt lat="37.42364" lon="-5.98906">
        <ele>2.48131</ele>
        <time>2022-04-09T09:17:51.000Z</time>
      </trkpt>
      <trkpt lat="37.42351" lon="-5.98899">
        <ele>2.41876</ele>
        <time>2022-04-09T09:17:55.000Z</time>
      </trkpt>
      <trkpt lat="37.42327" lon="-5.98885">
        <ele>2.297461</ele>
        <time>2022-04-09T09:18:03.000Z</time>
      </trkpt>
      <trkpt lat="37.42323" lon="-5.98883">
        <ele>2.280541</ele>
        <time>2022-04-09T09:18:04.000Z</time>
      </trkpt>
      <trkpt lat="37.42304" lon="-5.98872">
        <ele>2.184348</ele>
        <time>2022-04-09T09:18:10.000Z</time>
      </trkpt>
      <trkpt lat="37.42288" lon="-5.98862">
        <ele>2.106374</ele>
        <time>2022-04-09T09:18:15.000Z</time>
      </trkpt>
      <trkpt lat="37.42279" lon="-5.98855">
        <ele>2.057338</ele>
        <time>2022-04-09T09:18:18.000Z</time>
      </trkpt>
      <trkpt lat="37.42251" lon="-5.98839">
        <ele>1.919524</ele>
        <time>2022-04-09T09:18:26.000Z</time>
      </trkpt>
      <trkpt lat="37.42223" lon="-5.9882">
        <ele>1.808781</ele>
        <time>2022-04-09T09:18:35.000Z</time>
      </trkpt>
      <trkpt lat="37.42202" lon="-5.98807">
        <ele>1.786677</ele>
        <time>2022-04-09T09:18:42.000Z</time>
      </trkpt>
      <trkpt lat="37.42175" lon="-5.98801">
        <ele>1.761873</ele>
        <time>2022-04-09T09:18:49.000Z</time>
      </trkpt>
      <trkpt lat="37.42163" lon="-5.98798">
        <ele>1.750421</ele>
        <time>2022-04-09T09:18:52.000Z</time>
      </trkpt>
      <trkpt lat="37.42135" lon="-5.98794">
        <ele>1.724352</ele>
        <time>2022-04-09T09:18:59.000Z</time>
      </trkpt>
      <trkpt lat="37.42123" lon="-5.98792">
        <ele>1.712615</ele>
        <time>2022-04-09T09:19:02.000Z</time>
      </trkpt>
      <trkpt lat="37.42106" lon="-5.98789">
        <ele>1.697349</ele>
        <time>2022-04-09T09:19:06.000Z</time>
      </trkpt>
      <trkpt lat="37.42086" lon="-5.98786">
        <ele>1.678172</ele>
        <time>2022-04-09T09:19:11.000Z</time>
      </trkpt>
      <trkpt lat="37.42078" lon="-5.98784">
        <ele>1.670625</ele>
        <time>2022-04-09T09:19:13.000Z</time>
      </trkpt>
      <trkpt lat="37.42069" lon="-5.98781">
        <ele>1.662439</ele>
        <time>2022-04-09T09:19:15.000Z</time>
      </trkpt>
      <trkpt lat="37.42037" lon="-5.98776">
        <ele>1.642834</ele>
        <time>2022-04-09T09:19:23.000Z</time>
      </trkpt>
      <trkpt lat="37.42014" lon="-5.98772">
        <ele>1.633133</ele>
        <time>2022-04-09T09:19:29.000Z</time>
      </trkpt>
      <trkpt lat="37.42011" lon="-5.98771">
        <ele>1.631472</ele>
        <time>2022-04-09T09:19:30.000Z</time>
      </trkpt>
      <trkpt lat="37.41991" lon="-5.98768">
        <ele>1.623039</ele>
        <time>2022-04-09T09:19:35.000Z</time>
      </trkpt>
      <trkpt lat="37.41983" lon="-5.98767">
        <ele>1.619618</ele>
        <time>2022-04-09T09:19:37.000Z</time>
      </trkpt>
      <trkpt lat="37.4195" lon="-5.98766">
        <ele>1.606082</ele>
        <time>2022-04-09T09:19:45.000Z</time>
      </trkpt>
      <trkpt lat="37.4192" lon="-5.98771">
        <ele>1.593279</ele>
        <time>2022-04-09T09:19:52.000Z</time>
      </trkpt>
      <trkpt lat="37.41908" lon="-5.98772">
        <ele>1.588191</ele>
        <time>2022-04-09T09:19:55.000Z</time>
      </trkpt>
      <trkpt lat="37.419" lon="-5.98772">
        <ele>1.58466</ele>
        <time>2022-04-09T09:19:57.000Z</time>
      </trkpt>
      <trkpt lat="37.41891" lon="-5.98773">
        <ele>1.581194</ele>
        <time>2022-04-09T09:19:59.000Z</time>
      </trkpt>
      <trkpt lat="37.41864" lon="-5.98777">
        <ele>1.601073</ele>
        <time>2022-04-09T09:20:06.000Z</time>
      </trkpt>
      <trkpt lat="37.41835" lon="-5.98782">
        <ele>1.651809</ele>
        <time>2022-04-09T09:20:13.000Z</time>
      </trkpt>
      <trkpt lat="37.4181" lon="-5.98785">
        <ele>1.696537</ele>
        <time>2022-04-09T09:20:19.000Z</time>
      </trkpt>
      <trkpt lat="37.41802" lon="-5.98786">
        <ele>1.712292</ele>
        <time>2022-04-09T09:20:21.000Z</time>
      </trkpt>
      <trkpt lat="37.41797" lon="-5.98786">
        <ele>1.720136</ele>
        <time>2022-04-09T09:20:22.000Z</time>
      </trkpt>
      <trkpt lat="37.41776" lon="-5.98788">
        <ele>1.75744</ele>
        <time>2022-04-09T09:20:27.000Z</time>
      </trkpt>
      <trkpt lat="37.41749" lon="-5.98791">
        <ele>1.806807</ele>
        <time>2022-04-09T09:20:34.000Z</time>
      </trkpt>
      <trkpt lat="37.41715" lon="-5.98802">
        <ele>1.868496</ele>
        <time>2022-04-09T09:20:43.000Z</time>
      </trkpt>
      <trkpt lat="37.41681" lon="-5.98812">
        <ele>1.914775</ele>
        <time>2022-04-09T09:20:53.000Z</time>
      </trkpt>
      <trkpt lat="37.41645" lon="-5.98823">
        <ele>1.948806</ele>
        <time>2022-04-09T09:21:02.000Z</time>
      </trkpt>
      <trkpt lat="37.41615" lon="-5.98833">
        <ele>1.977828</ele>
        <time>2022-04-09T09:21:09.000Z</time>
      </trkpt>
      <trkpt lat="37.41606" lon="-5.98836">
        <ele>1.986413</ele>
        <time>2022-04-09T09:21:11.000Z</time>
      </trkpt>
      <trkpt lat="37.41598" lon="-5.98839">
        <ele>1.994314</ele>
        <time>2022-04-09T09:21:13.000Z</time>
      </trkpt>
      <trkpt lat="37.4159" lon="-5.98842">
        <ele>2.002796</ele>
        <time>2022-04-09T09:21:15.000Z</time>
      </trkpt>
      <trkpt lat="37.41577" lon="-5.98845">
        <ele>2.015284</ele>
        <time>2022-04-09T09:21:18.000Z</time>
      </trkpt>
      <trkpt lat="37.4156" lon="-5.9885">
        <ele>2.031183</ele>
        <time>2022-04-09T09:21:22.000Z</time>
      </trkpt>
      <trkpt lat="37.41539" lon="-5.98857">
        <ele>2.051622</ele>
        <time>2022-04-09T09:21:27.000Z</time>
      </trkpt>
      <trkpt lat="37.41484" lon="-5.98875">
        <ele>2.070925</ele>
        <time>2022-04-09T09:21:40.000Z</time>
      </trkpt>
      <trkpt lat="37.41455" lon="-5.98883">
        <ele>2.075367</ele>
        <time>2022-04-09T09:21:47.000Z</time>
      </trkpt>
      <trkpt lat="37.41431" lon="-5.98889">
        <ele>2.079131</ele>
        <time>2022-04-09T09:21:54.000Z</time>
      </trkpt>
      <trkpt lat="37.41417" lon="-5.989">
        <ele>2.081664</ele>
        <time>2022-04-09T09:21:59.000Z</time>
      </trkpt>
      <trkpt lat="37.41396" lon="-5.98932">
        <ele>2.086772</ele>
        <time>2022-04-09T09:22:08.000Z</time>
      </trkpt>
      <trkpt lat="37.4137" lon="-5.98952">
        <ele>2.091448</ele>
        <time>2022-04-09T09:22:15.000Z</time>
      </trkpt>
      <trkpt lat="37.41349" lon="-5.9896">
        <ele>2.041899</ele>
        <time>2022-04-09T09:22:20.000Z</time>
      </trkpt>
      <trkpt lat="37.41345" lon="-5.98961">
        <ele>2.030687</ele>
        <time>2022-04-09T09:22:21.000Z</time>
      </trkpt>
      <trkpt lat="37.41329" lon="-5.98961">
        <ele>1.991592</ele>
        <time>2022-04-09T09:22:25.000Z</time>
      </trkpt>
      <trkpt lat="37.41322" lon="-5.98962">
        <ele>1.973039</ele>
        <time>2022-04-09T09:22:27.000Z</time>
      </trkpt>
      <trkpt lat="37.41295" lon="-5.98961">
        <ele>1.904236</ele>
        <time>2022-04-09T09:22:33.000Z</time>
      </trkpt>
      <trkpt lat="37.41286" lon="-5.98961">
        <ele>1.882885</ele>
        <time>2022-04-09T09:22:35.000Z</time>
      </trkpt>
      <trkpt lat="37.41279" lon="-5.98962">
        <ele>1.864332</ele>
        <time>2022-04-09T09:22:37.000Z</time>
      </trkpt>
      <trkpt lat="37.41263" lon="-5.98963">
        <ele>1.82421</ele>
        <time>2022-04-09T09:22:41.000Z</time>
      </trkpt>
      <trkpt lat="37.41249" lon="-5.98963">
        <ele>1.787906</ele>
        <time>2022-04-09T09:22:45.000Z</time>
      </trkpt>
      <trkpt lat="37.41234" lon="-5.98971">
        <ele>1.745863</ele>
        <time>2022-04-09T09:22:50.000Z</time>
      </trkpt>
      <trkpt lat="37.41208" lon="-5.9899">
        <ele>1.670781</ele>
        <time>2022-04-09T09:22:58.000Z</time>
      </trkpt>
      <trkpt lat="37.41204" lon="-5.98993">
        <ele>1.659077</ele>
        <time>2022-04-09T09:22:59.000Z</time>
      </trkpt>
      <trkpt lat="37.41188" lon="-5.99005">
        <ele>1.602377</ele>
        <time>2022-04-09T09:23:04.000Z</time>
      </trkpt>
      <trkpt lat="37.41178" lon="-5.99013">
        <ele>1.566583</ele>
        <time>2022-04-09T09:23:06.000Z</time>
      </trkpt>
      <trkpt lat="37.4117" lon="-5.9902">
        <ele>1.532862</ele>
        <time>2022-04-09T09:23:08.000Z</time>
      </trkpt>
      <trkpt lat="37.41148" lon="-5.99037">
        <ele>1.448039</ele>
        <time>2022-04-09T09:23:13.000Z</time>
      </trkpt>
      <trkpt lat="37.41136" lon="-5.99047">
        <ele>1.402077</ele>
        <time>2022-04-09T09:23:16.000Z</time>
      </trkpt>
      <trkpt lat="37.4112" lon="-5.99059">
        <ele>1.339817</ele>
        <time>2022-04-09T09:23:20.000Z</time>
      </trkpt>
      <trkpt lat="37.41113" lon="-5.99065">
        <ele>1.310548</ele>
        <time>2022-04-09T09:23:22.000Z</time>
      </trkpt>
      <trkpt lat="37.41109" lon="-5.99067">
        <ele>1.296726</ele>
        <time>2022-04-09T09:23:23.000Z</time>
      </trkpt>
      <trkpt lat="37.41092" lon="-5.9908">
        <ele>1.230809</ele>
        <time>2022-04-09T09:23:28.000Z</time>
      </trkpt>
      <trkpt lat="37.41073" lon="-5.99094">
        <ele>1.159218</ele>
        <time>2022-04-09T09:23:33.000Z</time>
      </trkpt>
      <trkpt lat="37.41066" lon="-5.99098">
        <ele>1.135437</ele>
        <time>2022-04-09T09:23:35.000Z</time>
      </trkpt>
      <trkpt lat="37.41063" lon="-5.991">
        <ele>1.124499</ele>
        <time>2022-04-09T09:23:36.000Z</time>
      </trkpt>
      <trkpt lat="37.41043" lon="-5.99114">
        <ele>1.048562</ele>
        <time>2022-04-09T09:23:42.000Z</time>
      </trkpt>
      <trkpt lat="37.41024" lon="-5.99127">
        <ele>1.081594</ele>
        <time>2022-04-09T09:23:48.000Z</time>
      </trkpt>
      <trkpt lat="37.41011" lon="-5.99137">
        <ele>1.109847</ele>
        <time>2022-04-09T09:23:52.000Z</time>
      </trkpt>
      <trkpt lat="37.41003" lon="-5.99142">
        <ele>1.125667</ele>
        <time>2022-04-09T09:23:54.000Z</time>
      </trkpt>
      <trkpt lat="37.40985" lon="-5.99156">
        <ele>1.166012</ele>
        <time>2022-04-09T09:23:59.000Z</time>
      </trkpt>
      <trkpt lat="37.40969" lon="-5.99168">
        <ele>1.199825</ele>
        <time>2022-04-09T09:24:04.000Z</time>
      </trkpt>
      <trkpt lat="37.40952" lon="-5.99182">
        <ele>1.236859</ele>
        <time>2022-04-09T09:24:09.000Z</time>
      </trkpt>
      <trkpt lat="37.40945" lon="-5.99189">
        <ele>1.254595</ele>
        <time>2022-04-09T09:24:12.000Z</time>
      </trkpt>
      <trkpt lat="37.40929" lon="-5.99202">
        <ele>1.288587</ele>
        <time>2022-04-09T09:24:18.000Z</time>
      </trkpt>
      <trkpt lat="37.40892" lon="-5.9923">
        <ele>1.36968</ele>
        <time>2022-04-09T09:24:29.000Z</time>
      </trkpt>
      <trkpt lat="37.40861" lon="-5.99253">
        <ele>1.419192</ele>
        <time>2022-04-09T09:24:38.000Z</time>
      </trkpt>
      <trkpt lat="37.40828" lon="-5.99278">
        <ele>1.468326</ele>
        <time>2022-04-09T09:24:47.000Z</time>
      </trkpt>
      <trkpt lat="37.40819" lon="-5.99285">
        <ele>1.48301</ele>
        <time>2022-04-09T09:24:50.000Z</time>
      </trkpt>
      <trkpt lat="37.4079" lon="-5.99306">
        <ele>1.525608</ele>
        <time>2022-04-09T09:24:58.000Z</time>
      </trkpt>
      <trkpt lat="37.40781" lon="-5.99313">
        <ele>1.539643</ele>
        <time>2022-04-09T09:25:01.000Z</time>
      </trkpt>
      <trkpt lat="37.40772" lon="-5.99321">
        <ele>1.554548</ele>
        <time>2022-04-09T09:25:04.000Z</time>
      </trkpt>
      <trkpt lat="37.40743" lon="-5.99341">
        <ele>1.597736</ele>
        <time>2022-04-09T09:25:12.000Z</time>
      </trkpt>
      <trkpt lat="37.40731" lon="-5.9935">
        <ele>1.616843</ele>
        <time>2022-04-09T09:25:15.000Z</time>
      </trkpt>
      <trkpt lat="37.40714" lon="-5.99364">
        <ele>1.648881</ele>
        <time>2022-04-09T09:25:20.000Z</time>
      </trkpt>
      <trkpt lat="37.40692" lon="-5.9938">
        <ele>1.688128</ele>
        <time>2022-04-09T09:25:26.000Z</time>
      </trkpt>
      <trkpt lat="37.40689" lon="-5.99383">
        <ele>1.694723</ele>
        <time>2022-04-09T09:25:27.000Z</time>
      </trkpt>
      <trkpt lat="37.40678" lon="-5.99391">
        <ele>1.714918</ele>
        <time>2022-04-09T09:25:30.000Z</time>
      </trkpt>
      <trkpt lat="37.40655" lon="-5.99409">
        <ele>1.756878</ele>
        <time>2022-04-09T09:25:37.000Z</time>
      </trkpt>
      <trkpt lat="37.40653" lon="-5.99411">
        <ele>1.761551</ele>
        <time>2022-04-09T09:25:38.000Z</time>
      </trkpt>
      <trkpt lat="37.40635" lon="-5.99427">
        <ele>1.795605</ele>
        <time>2022-04-09T09:25:44.000Z</time>
      </trkpt>
      <trkpt lat="37.40611" lon="-5.99444">
        <ele>1.838434</ele>
        <time>2022-04-09T09:25:52.000Z</time>
      </trkpt>
      <trkpt lat="37.40592" lon="-5.99458">
        <ele>1.87311</ele>
        <time>2022-04-09T09:25:58.000Z</time>
      </trkpt>
      <trkpt lat="37.40562" lon="-5.99485">
        <ele>1.927749</ele>
        <time>2022-04-09T09:26:07.000Z</time>
      </trkpt>
      <trkpt lat="37.40546" lon="-5.99502">
        <ele>1.957006</ele>
        <time>2022-04-09T09:26:12.000Z</time>
      </trkpt>
      <trkpt lat="37.40537" lon="-5.9951">
        <ele>1.973493</ele>
        <time>2022-04-09T09:26:15.000Z</time>
      </trkpt>
      <trkpt lat="37.4053" lon="-5.99516">
        <ele>1.984751</ele>
        <time>2022-04-09T09:26:17.000Z</time>
      </trkpt>
      <trkpt lat="37.40506" lon="-5.99535">
        <ele>2.024855</ele>
        <time>2022-04-09T09:26:24.000Z</time>
      </trkpt>
      <trkpt lat="37.40487" lon="-5.99553">
        <ele>2.058696</ele>
        <time>2022-04-09T09:26:29.000Z</time>
      </trkpt>
      <trkpt lat="37.40483" lon="-5.99558">
        <ele>2.066153</ele>
        <time>2022-04-09T09:26:30.000Z</time>
      </trkpt>
      <trkpt lat="37.40454" lon="-5.99587">
        <ele>2.119737</ele>
        <time>2022-04-09T09:26:38.000Z</time>
      </trkpt>
      <trkpt lat="37.40439" lon="-5.996">
        <ele>2.144803</ele>
        <time>2022-04-09T09:26:42.000Z</time>
      </trkpt>
      <trkpt lat="37.40432" lon="-5.99607">
        <ele>2.14776</ele>
        <time>2022-04-09T09:26:44.000Z</time>
      </trkpt>
      <trkpt lat="37.40421" lon="-5.99617">
        <ele>2.144946</ele>
        <time>2022-04-09T09:26:47.000Z</time>
      </trkpt>
      <trkpt lat="37.40391" lon="-5.99646">
        <ele>2.137195</ele>
        <time>2022-04-09T09:26:56.000Z</time>
      </trkpt>
      <trkpt lat="37.40378" lon="-5.99656">
        <ele>2.13401</ele>
        <time>2022-04-09T09:27:00.000Z</time>
      </trkpt>
      <trkpt lat="37.40349" lon="-5.99684">
        <ele>2.126723</ele>
        <time>2022-04-09T09:27:08.000Z</time>
      </trkpt>
      <trkpt lat="37.40328" lon="-5.99706">
        <ele>2.121145</ele>
        <time>2022-04-09T09:27:15.000Z</time>
      </trkpt>
      <trkpt lat="37.40325" lon="-5.99708">
        <ele>2.120454</ele>
        <time>2022-04-09T09:27:16.000Z</time>
      </trkpt>
      <trkpt lat="37.40315" lon="-5.99718">
        <ele>2.117821</ele>
        <time>2022-04-09T09:27:20.000Z</time>
      </trkpt>
      <trkpt lat="37.40304" lon="-5.99727">
        <ele>2.115058</ele>
        <time>2022-04-09T09:27:24.000Z</time>
      </trkpt>
      <trkpt lat="37.40284" lon="-5.99748">
        <ele>2.120774</ele>
        <time>2022-04-09T09:27:31.000Z</time>
      </trkpt>
      <trkpt lat="37.40259" lon="-5.99769">
        <ele>2.141324</ele>
        <time>2022-04-09T09:27:39.000Z</time>
      </trkpt>
      <trkpt lat="37.4024" lon="-5.9979">
        <ele>2.15902</ele>
        <time>2022-04-09T09:27:45.000Z</time>
      </trkpt>
      <trkpt lat="37.40233" lon="-5.99798">
        <ele>2.165367</ele>
        <time>2022-04-09T09:27:47.000Z</time>
      </trkpt>
      <trkpt lat="37.4022" lon="-5.9981">
        <ele>2.176473</ele>
        <time>2022-04-09T09:27:51.000Z</time>
      </trkpt>
      <trkpt lat="37.4021" lon="-5.99819">
        <ele>2.184629</ele>
        <time>2022-04-09T09:27:54.000Z</time>
      </trkpt>
      <trkpt lat="37.40181" lon="-5.99844">
        <ele>2.209522</ele>
        <time>2022-04-09T09:28:03.000Z</time>
      </trkpt>
      <trkpt lat="37.40147" lon="-5.99875">
        <ele>2.237301</ele>
        <time>2022-04-09T09:28:12.000Z</time>
      </trkpt>
      <trkpt lat="37.40144" lon="-5.99878">
        <ele>2.23835</ele>
        <time>2022-04-09T09:28:13.000Z</time>
      </trkpt>
      <trkpt lat="37.40126" lon="-5.99895">
        <ele>2.243943</ele>
        <time>2022-04-09T09:28:18.000Z</time>
      </trkpt>
      <trkpt lat="37.40081" lon="-5.99938">
        <ele>2.257825</ele>
        <time>2022-04-09T09:28:30.000Z</time>
      </trkpt>
      <trkpt lat="37.40053" lon="-5.99965">
        <ele>2.266731</ele>
        <time>2022-04-09T09:28:38.000Z</time>
      </trkpt>
      <trkpt lat="37.40029" lon="-5.99988">
        <ele>2.274067</ele>
        <time>2022-04-09T09:28:45.000Z</time>
      </trkpt>
      <trkpt lat="37.40024" lon="-5.99992">
        <ele>2.275479</ele>
        <time>2022-04-09T09:28:46.000Z</time>
      </trkpt>
      <trkpt lat="37.40013" lon="-6.00003">
        <ele>2.278929</ele>
        <time>2022-04-09T09:28:49.000Z</time>
      </trkpt>
      <trkpt lat="37.39995" lon="-6.00019">
        <ele>2.278145</ele>
        <time>2022-04-09T09:28:54.000Z</time>
      </trkpt>
      <trkpt lat="37.39969" lon="-6.00045">
        <ele>2.26936</ele>
        <time>2022-04-09T09:29:02.000Z</time>
      </trkpt>
      <trkpt lat="37.39949" lon="-6.00063">
        <ele>2.263092</ele>
        <time>2022-04-09T09:29:09.000Z</time>
      </trkpt>
      <trkpt lat="37.39935" lon="-6.00076">
        <ele>2.258498</ele>
        <time>2022-04-09T09:29:15.000Z</time>
      </trkpt>
      <trkpt lat="37.39905" lon="-6.00104">
        <ele>2.248758</ele>
        <time>2022-04-09T09:29:26.000Z</time>
      </trkpt>
      <trkpt lat="37.39883" lon="-6.00123">
        <ele>2.241829</ele>
        <time>2022-04-09T09:29:34.000Z</time>
      </trkpt>
      <trkpt lat="37.39877" lon="-6.00128">
        <ele>2.239923</ele>
        <time>2022-04-09T09:29:36.000Z</time>
      </trkpt>
      <trkpt lat="37.39859" lon="-6.00149">
        <ele>2.233459</ele>
        <time>2022-04-09T09:29:42.000Z</time>
      </trkpt>
      <trkpt lat="37.39841" lon="-6.00165">
        <ele>2.227696</ele>
        <time>2022-04-09T09:29:48.000Z</time>
      </trkpt>
      <trkpt lat="37.39835" lon="-6.0017">
        <ele>2.225834</ele>
        <time>2022-04-09T09:29:50.000Z</time>
      </trkpt>
      <trkpt lat="37.39808" lon="-6.00194">
        <ele>2.216923</ele>
        <time>2022-04-09T09:29:59.000Z</time>
      </trkpt>
      <trkpt lat="37.39784" lon="-6.00217">
        <ele>2.20889</ele>
        <time>2022-04-09T09:30:07.000Z</time>
      </trkpt>
      <trkpt lat="37.39777" lon="-6.00222">
        <ele>2.206714</ele>
        <time>2022-04-09T09:30:09.000Z</time>
      </trkpt>
      <trkpt lat="37.39751" lon="-6.00247">
        <ele>2.197984</ele>
        <time>2022-04-09T09:30:17.000Z</time>
      </trkpt>
      <trkpt lat="37.39738" lon="-6.00259">
        <ele>2.193525</ele>
        <time>2022-04-09T09:30:21.000Z</time>
      </trkpt>
      <trkpt lat="37.39705" lon="-6.00291">
        <ele>2.195503</ele>
        <time>2022-04-09T09:30:31.000Z</time>
      </trkpt>
      <trkpt lat="37.39672" lon="-6.00322">
        <ele>2.220428</ele>
        <time>2022-04-09T09:30:41.000Z</time>
      </trkpt>
      <trkpt lat="37.39648" lon="-6.00342">
        <ele>2.237582</ele>
        <time>2022-04-09T09:30:48.000Z</time>
      </trkpt>
      <trkpt lat="37.39635" lon="-6.00355">
        <ele>2.2479</ele>
        <time>2022-04-09T09:30:52.000Z</time>
      </trkpt>
      <trkpt lat="37.39615" lon="-6.00375">
        <ele>2.263123</ele>
        <time>2022-04-09T09:30:58.000Z</time>
      </trkpt>
      <trkpt lat="37.39585" lon="-6.00403">
        <ele>2.285919</ele>
        <time>2022-04-09T09:31:08.000Z</time>
      </trkpt>
      <trkpt lat="37.39569" lon="-6.00418">
        <ele>2.336722</ele>
        <time>2022-04-09T09:31:13.000Z</time>
      </trkpt>
      <trkpt lat="37.39565" lon="-6.00421">
        <ele>2.377619</ele>
        <time>2022-04-09T09:31:14.000Z</time>
      </trkpt>
      <trkpt lat="37.39536" lon="-6.00442">
        <ele>2.690222</ele>
        <time>2022-04-09T09:31:22.000Z</time>
      </trkpt>
      <trkpt lat="37.39509" lon="-6.00458">
        <ele>2.966216</ele>
        <time>2022-04-09T09:31:30.000Z</time>
      </trkpt>
      <trkpt lat="37.39502" lon="-6.00462">
        <ele>3.036688</ele>
        <time>2022-04-09T09:31:32.000Z</time>
      </trkpt>
      <trkpt lat="37.39474" lon="-6.00482">
        <ele>3.339581</ele>
        <time>2022-04-09T09:31:40.000Z</time>
      </trkpt>
      <trkpt lat="37.39449" lon="-6.00495">
        <ele>3.587454</ele>
        <time>2022-04-09T09:31:47.000Z</time>
      </trkpt>
      <trkpt lat="37.39446" lon="-6.00496">
        <ele>3.61977</ele>
        <time>2022-04-09T09:31:48.000Z</time>
      </trkpt>
      <trkpt lat="37.39429" lon="-6.00502">
        <ele>3.783411</ele>
        <time>2022-04-09T09:31:53.000Z</time>
      </trkpt>
      <trkpt lat="37.39404" lon="-6.00514">
        <ele>3.998917</ele>
        <time>2022-04-09T09:32:00.000Z</time>
      </trkpt>
      <trkpt lat="37.39398" lon="-6.00516">
        <ele>4.028849</ele>
        <time>2022-04-09T09:32:02.000Z</time>
      </trkpt>
      <trkpt lat="37.39374" lon="-6.00525">
        <ele>4.15611</ele>
        <time>2022-04-09T09:32:09.000Z</time>
      </trkpt>
      <trkpt lat="37.39363" lon="-6.00527">
        <ele>4.209321</ele>
        <time>2022-04-09T09:32:12.000Z</time>
      </trkpt>
      <trkpt lat="37.39353" lon="-6.00531">
        <ele>4.262027</ele>
        <time>2022-04-09T09:32:15.000Z</time>
      </trkpt>
      <trkpt lat="37.39332" lon="-6.00534">
        <ele>4.368614</ele>
        <time>2022-04-09T09:32:21.000Z</time>
      </trkpt>
      <trkpt lat="37.39329" lon="-6.00535">
        <ele>4.384726</ele>
        <time>2022-04-09T09:32:22.000Z</time>
      </trkpt>
      <trkpt lat="37.3932" lon="-6.00535">
        <ele>4.428384</ele>
        <time>2022-04-09T09:32:25.000Z</time>
      </trkpt>
      <trkpt lat="37.39313" lon="-6.00534">
        <ele>4.467131</ele>
        <time>2022-04-09T09:32:28.000Z</time>
      </trkpt>
      <trkpt lat="37.39308" lon="-6.0053">
        <ele>4.49793</ele>
        <time>2022-04-09T09:32:32.000Z</time>
      </trkpt>
      <trkpt lat="37.39307" lon="-6.0053">
        <ele>4.499485</ele>
        <time>2022-04-09T09:32:34.000Z</time>
      </trkpt>
      <trkpt lat="37.39307" lon="-6.0053">
        <ele>4.499485</ele>
        <time>2022-04-09T09:32:36.000Z</time>
      </trkpt>
      <trkpt lat="37.39307" lon="-6.0053">
        <ele>4.499485</ele>
        <time>2022-04-09T09:32:37.000Z</time>
      </trkpt>
      <trkpt lat="37.39307" lon="-6.00529">
        <ele>4.501675</ele>
        <time>2022-04-09T09:32:46.000Z</time>
      </trkpt>
      <trkpt lat="37.39307" lon="-6.00529">
        <ele>4.501675</ele>
        <time>2022-04-09T09:32:53.000Z</time>
      </trkpt>
      <trkpt lat="37.39307" lon="-6.00529">
        <ele>4.502471</ele>
        <time>2022-04-09T09:33:01.000Z</time>
      </trkpt>
      <trkpt lat="37.39307" lon="-6.0053">
        <ele>4.503412</ele>
        <time>2022-04-09T09:33:09.000Z</time>
      </trkpt>
      <trkpt lat="37.39307" lon="-6.0053">
        <ele>4.503412</ele>
        <time>2022-04-09T09:33:12.000Z</time>
      </trkpt>
      <trkpt lat="37.39307" lon="-6.0053">
        <ele>4.503412</ele>
        <time>2022-04-09T09:33:16.000Z</time>
      </trkpt>
      <trkpt lat="37.39307" lon="-6.0053">
        <ele>4.503412</ele>
        <time>2022-04-09T09:33:20.000Z</time>
      </trkpt>
      <trkpt lat="37.39307" lon="-6.0053">
        <ele>4.503412</ele>
        <time>2022-04-09T09:33:22.000Z</time>
      </trkpt>
      <trkpt lat="37.39307" lon="-6.0053">
        <ele>4.503412</ele>
        <time>2022-04-09T09:33:27.000Z</time>
      </trkpt>
      <trkpt lat="37.39307" lon="-6.0053">
        <ele>4.503412</ele>
        <time>2022-04-09T09:33:42.000Z</time>
      </trkpt>
      <trkpt lat="37.39307" lon="-6.0053">
        <ele>4.503412</ele>
        <time>2022-04-09T09:33:56.000Z</time>
      </trkpt>
      <trkpt lat="37.39307" lon="-6.0053">
        <ele>4.503412</ele>
        <time>2022-04-09T09:33:59.000Z</time>
      </trkpt>
      <trkpt lat="37.39307" lon="-6.0053">
        <ele>4.503412</ele>
        <time>2022-04-09T09:34:16.000Z</time>
      </trkpt>
      <trkpt lat="37.39307" lon="-6.0053">
        <ele>4.503412</ele>
        <time>2022-04-09T09:34:24.000Z</time>
      </trkpt>
      <trkpt lat="37.39307" lon="-6.0053">
        <ele>4.503412</ele>
        <time>2022-04-09T09:34:29.000Z</time>
      </trkpt>
      <trkpt lat="37.39307" lon="-6.0053">
        <ele>4.503412</ele>
        <time>2022-04-09T09:34:32.000Z</time>
      </trkpt>
      <trkpt lat="37.39307" lon="-6.0053">
        <ele>4.503913</ele>
        <time>2022-04-09T09:34:45.000Z</time>
      </trkpt>
      <trkpt lat="37.39302" lon="-6.00535">
        <ele>4.535132</ele>
        <time>2022-04-09T09:34:48.000Z</time>
      </trkpt>
      <trkpt lat="37.39292" lon="-6.00543">
        <ele>4.596627</ele>
        <time>2022-04-09T09:34:52.000Z</time>
      </trkpt>
      <trkpt lat="37.39289" lon="-6.00544">
        <ele>4.611803</ele>
        <time>2022-04-09T09:34:53.000Z</time>
      </trkpt>
      <trkpt lat="37.39267" lon="-6.00549">
        <ele>4.721637</ele>
        <time>2022-04-09T09:35:00.000Z</time>
      </trkpt>
      <trkpt lat="37.39249" lon="-6.00553">
        <ele>4.814843</ele>
        <time>2022-04-09T09:35:05.000Z</time>
      </trkpt>
      <trkpt lat="37.39237" lon="-6.00557">
        <ele>4.856937</ele>
        <time>2022-04-09T09:35:08.000Z</time>
      </trkpt>
      <trkpt lat="37.39233" lon="-6.00558">
        <ele>4.838682</ele>
        <time>2022-04-09T09:35:09.000Z</time>
      </trkpt>
      <trkpt lat="37.39224" lon="-6.00559">
        <ele>4.79991</ele>
        <time>2022-04-09T09:35:11.000Z</time>
      </trkpt>
      <trkpt lat="37.39201" lon="-6.00563">
        <ele>4.702444</ele>
        <time>2022-04-09T09:35:16.000Z</time>
      </trkpt>
      <trkpt lat="37.39196" lon="-6.00563">
        <ele>4.68064</ele>
        <time>2022-04-09T09:35:17.000Z</time>
      </trkpt>
      <trkpt lat="37.39189" lon="-6.00563">
        <ele>4.648565</ele>
        <time>2022-04-09T09:35:19.000Z</time>
      </trkpt>
      <trkpt lat="37.39184" lon="-6.00563">
        <ele>4.626743</ele>
        <time>2022-04-09T09:35:20.000Z</time>
      </trkpt>
      <trkpt lat="37.3918" lon="-6.00564">
        <ele>4.611068</ele>
        <time>2022-04-09T09:35:21.000Z</time>
      </trkpt>
      <trkpt lat="37.39157" lon="-6.00567">
        <ele>4.513518</ele>
        <time>2022-04-09T09:35:26.000Z</time>
      </trkpt>
      <trkpt lat="37.39148" lon="-6.00567">
        <ele>4.473799</ele>
        <time>2022-04-09T09:35:28.000Z</time>
      </trkpt>
      <trkpt lat="37.39139" lon="-6.00568">
        <ele>4.434069</ele>
        <time>2022-04-09T09:35:30.000Z</time>
      </trkpt>
      <trkpt lat="37.39134" lon="-6.00568">
        <ele>4.413986</ele>
        <time>2022-04-09T09:35:31.000Z</time>
      </trkpt>
      <trkpt lat="37.39124" lon="-6.00567">
        <ele>4.372111</ele>
        <time>2022-04-09T09:35:33.000Z</time>
      </trkpt>
      <trkpt lat="37.39109" lon="-6.00567">
        <ele>4.307175</ele>
        <time>2022-04-09T09:35:36.000Z</time>
      </trkpt>
      <trkpt lat="37.3907" lon="-6.00562">
        <ele>4.141133</ele>
        <time>2022-04-09T09:35:44.000Z</time>
      </trkpt>
      <trkpt lat="37.39066" lon="-6.00561">
        <ele>4.12378</ele>
        <time>2022-04-09T09:35:45.000Z</time>
      </trkpt>
      <trkpt lat="37.39048" lon="-6.00558">
        <ele>4.123735</ele>
        <time>2022-04-09T09:35:49.000Z</time>
      </trkpt>
      <trkpt lat="37.39038" lon="-6.00558">
        <ele>4.145291</ele>
        <time>2022-04-09T09:35:51.000Z</time>
      </trkpt>
      <trkpt lat="37.39015" lon="-6.00552">
        <ele>4.195223</ele>
        <time>2022-04-09T09:35:57.000Z</time>
      </trkpt>
      <trkpt lat="37.39003" lon="-6.00547">
        <ele>4.223452</ele>
        <time>2022-04-09T09:36:01.000Z</time>
      </trkpt>
      <trkpt lat="37.38996" lon="-6.00544">
        <ele>4.239338</ele>
        <time>2022-04-09T09:36:03.000Z</time>
      </trkpt>
      <trkpt lat="37.38976" lon="-6.00536">
        <ele>4.285019</ele>
        <time>2022-04-09T09:36:09.000Z</time>
      </trkpt>
      <trkpt lat="37.38969" lon="-6.00532">
        <ele>4.300055</ele>
        <time>2022-04-09T09:36:11.000Z</time>
      </trkpt>
      <trkpt lat="37.38953" lon="-6.0052">
        <ele>4.340686</ele>
        <time>2022-04-09T09:36:16.000Z</time>
      </trkpt>
      <trkpt lat="37.38938" lon="-6.00503">
        <ele>4.384223</ele>
        <time>2022-04-09T09:36:21.000Z</time>
      </trkpt>
      <trkpt lat="37.38935" lon="-6.00499">
        <ele>4.392838</ele>
        <time>2022-04-09T09:36:22.000Z</time>
      </trkpt>
      <trkpt lat="37.38932" lon="-6.00495">
        <ele>4.403147</ele>
        <time>2022-04-09T09:36:23.000Z</time>
      </trkpt>
      <trkpt lat="37.38926" lon="-6.00483">
        <ele>4.426152</ele>
        <time>2022-04-09T09:36:26.000Z</time>
      </trkpt>
      <trkpt lat="37.3892" lon="-6.00464">
        <ele>4.462712</ele>
        <time>2022-04-09T09:36:31.000Z</time>
      </trkpt>
      <trkpt lat="37.38916" lon="-6.00448">
        <ele>4.481972</ele>
        <time>2022-04-09T09:36:35.000Z</time>
      </trkpt>
      <trkpt lat="37.38915" lon="-6.00442">
        <ele>4.477201</ele>
        <time>2022-04-09T09:36:37.000Z</time>
      </trkpt>
      <trkpt lat="37.38916" lon="-6.00435">
        <ele>4.472524</ele>
        <time>2022-04-09T09:36:39.000Z</time>
      </trkpt>
      <trkpt lat="37.38914" lon="-6.00425">
        <ele>4.465214</ele>
        <time>2022-04-09T09:36:43.000Z</time>
      </trkpt>
      <trkpt lat="37.38903" lon="-6.00411">
        <ele>4.451226</ele>
        <time>2022-04-09T09:36:50.000Z</time>
      </trkpt>
      <trkpt lat="37.38887" lon="-6.00394">
        <ele>4.432329</ele>
        <time>2022-04-09T09:36:56.000Z</time>
      </trkpt>
      <trkpt lat="37.3888" lon="-6.00387">
        <ele>4.424938</ele>
        <time>2022-04-09T09:36:58.000Z</time>
      </trkpt>
      <trkpt lat="37.38868" lon="-6.00376">
        <ele>4.411591</ele>
        <time>2022-04-09T09:37:01.000Z</time>
      </trkpt>
      <trkpt lat="37.38864" lon="-6.00373">
        <ele>4.407437</ele>
        <time>2022-04-09T09:37:02.000Z</time>
      </trkpt>
      <trkpt lat="37.38852" lon="-6.00366">
        <ele>4.395474</ele>
        <time>2022-04-09T09:37:05.000Z</time>
      </trkpt>
      <trkpt lat="37.38838" lon="-6.00355">
        <ele>4.380647</ele>
        <time>2022-04-09T09:37:09.000Z</time>
      </trkpt>
      <trkpt lat="37.3883" lon="-6.00353">
        <ele>4.373489</ele>
        <time>2022-04-09T09:37:11.000Z</time>
      </trkpt>
      <trkpt lat="37.38812" lon="-6.00342">
        <ele>4.35567</ele>
        <time>2022-04-09T09:37:16.000Z</time>
      </trkpt>
      <trkpt lat="37.38785" lon="-6.00326">
        <ele>4.329293</ele>
        <time>2022-04-09T09:37:23.000Z</time>
      </trkpt>
      <trkpt lat="37.38775" lon="-6.00318">
        <ele>4.351802</ele>
        <time>2022-04-09T09:37:26.000Z</time>
      </trkpt>
      <trkpt lat="37.3876" lon="-6.00305">
        <ele>4.44499</ele>
        <time>2022-04-09T09:37:32.000Z</time>
      </trkpt>
      <trkpt lat="37.38737" lon="-6.0028">
        <ele>4.5909</ele>
        <time>2022-04-09T09:37:41.000Z</time>
      </trkpt>
      <trkpt lat="37.38713" lon="-6.00253">
        <ele>4.748722</ele>
        <time>2022-04-09T09:37:49.000Z</time>
      </trkpt>
      <trkpt lat="37.38704" lon="-6.00243">
        <ele>4.806715</ele>
        <time>2022-04-09T09:37:52.000Z</time>
      </trkpt>
      <trkpt lat="37.38697" lon="-6.00229">
        <ele>4.871054</ele>
        <time>2022-04-09T09:37:56.000Z</time>
      </trkpt>
      <trkpt lat="37.38694" lon="-6.00211">
        <ele>4.942678</ele>
        <time>2022-04-09T09:38:01.000Z</time>
      </trkpt>
      <trkpt lat="37.38693" lon="-6.00199">
        <ele>4.987225</ele>
        <time>2022-04-09T09:38:05.000Z</time>
      </trkpt>
      <trkpt lat="37.3869" lon="-6.00192">
        <ele>5.018035</ele>
        <time>2022-04-09T09:38:07.000Z</time>
      </trkpt>
      <trkpt lat="37.38684" lon="-6.00184">
        <ele>5.059016</ele>
        <time>2022-04-09T09:38:09.000Z</time>
      </trkpt>
      <trkpt lat="37.38683" lon="-6.0017">
        <ele>5.112848</ele>
        <time>2022-04-09T09:38:12.000Z</time>
      </trkpt>
      <trkpt lat="37.38681" lon="-6.00167">
        <ele>5.128951</ele>
        <time>2022-04-09T09:38:13.000Z</time>
      </trkpt>
      <trkpt lat="37.38666" lon="-6.00142">
        <ele>5.366665</ele>
        <time>2022-04-09T09:38:20.000Z</time>
      </trkpt>
      <trkpt lat="37.38652" lon="-6.00116">
        <ele>5.797676</ele>
        <time>2022-04-09T09:38:28.000Z</time>
      </trkpt>
      <trkpt lat="37.38647" lon="-6.00108">
        <ele>5.932688</ele>
        <time>2022-04-09T09:38:31.000Z</time>
      </trkpt>
      <trkpt lat="37.38637" lon="-6.0009">
        <ele>6.228209</ele>
        <time>2022-04-09T09:38:37.000Z</time>
      </trkpt>
      <trkpt lat="37.38634" lon="-6.00084">
        <ele>6.320679</ele>
        <time>2022-04-09T09:38:39.000Z</time>
      </trkpt>
      <trkpt lat="37.38635" lon="-6.00075">
        <ele>6.446848</ele>
        <time>2022-04-09T09:38:42.000Z</time>
      </trkpt>
      <trkpt lat="37.3864" lon="-6.00058">
        <ele>6.687906</ele>
        <time>2022-04-09T09:38:48.000Z</time>
      </trkpt>
      <trkpt lat="37.38628" lon="-6.00046">
        <ele>6.931101</ele>
        <time>2022-04-09T09:38:53.000Z</time>
      </trkpt>
      <trkpt lat="37.38615" lon="-6.00031">
        <ele>7.228261</ele>
        <time>2022-04-09T09:38:59.000Z</time>
      </trkpt>
      <trkpt lat="37.38613" lon="-6.00029">
        <ele>7.272929</ele>
        <time>2022-04-09T09:39:00.000Z</time>
      </trkpt>
      <trkpt lat="37.38606" lon="-6.00019">
        <ele>7.457344</ele>
        <time>2022-04-09T09:39:04.000Z</time>
      </trkpt>
      <trkpt lat="37.38601" lon="-6.00012">
        <ele>7.582403</ele>
        <time>2022-04-09T09:39:07.000Z</time>
      </trkpt>
      <trkpt lat="37.386" lon="-6.00011">
        <ele>7.606624</ele>
        <time>2022-04-09T09:39:08.000Z</time>
      </trkpt>
      <trkpt lat="37.386" lon="-6.00006">
        <ele>7.664957</ele>
        <time>2022-04-09T09:39:12.000Z</time>
      </trkpt>
      <trkpt lat="37.38597" lon="-6.00011">
        <ele>7.740523</ele>
        <time>2022-04-09T09:39:19.000Z</time>
      </trkpt>
      <trkpt lat="37.38597" lon="-6.00012">
        <ele>7.745756</ele>
        <time>2022-04-09T09:39:28.000Z</time>
      </trkpt>
      <trkpt lat="37.38597" lon="-6.00012">
        <ele>7.745756</ele>
        <time>2022-04-09T09:39:36.000Z</time>
      </trkpt>
      <trkpt lat="37.38597" lon="-6.00012">
        <ele>7.745756</ele>
        <time>2022-04-09T09:39:46.000Z</time>
      </trkpt>
      <trkpt lat="37.38597" lon="-6.00012">
        <ele>7.745756</ele>
        <time>2022-04-09T09:39:49.000Z</time>
      </trkpt>
      <trkpt lat="37.38597" lon="-6.00012">
        <ele>7.745756</ele>
        <time>2022-04-09T09:39:54.000Z</time>
      </trkpt>
      <trkpt lat="37.38598" lon="-6.0001">
        <ele>7.774197</ele>
        <time>2022-04-09T09:40:19.000Z</time>
      </trkpt>
      <trkpt lat="37.386" lon="-6.00005">
        <ele>7.848992</ele>
        <time>2022-04-09T09:40:22.000Z</time>
      </trkpt>
      <trkpt lat="37.38601" lon="-6.00003">
        <ele>7.871768</ele>
        <time>2022-04-09T09:40:23.000Z</time>
      </trkpt>
      <trkpt lat="37.38598" lon="-5.99999">
        <ele>7.942364</ele>
        <time>2022-04-09T09:40:26.000Z</time>
      </trkpt>
      <trkpt lat="37.38598" lon="-5.99998">
        <ele>7.957399</ele>
        <time>2022-04-09T09:40:27.000Z</time>
      </trkpt>
      <trkpt lat="37.38589" lon="-5.99992">
        <ele>8.130351</ele>
        <time>2022-04-09T09:40:34.000Z</time>
      </trkpt>
      <trkpt lat="37.38583" lon="-5.99983">
        <ele>8.217826</ele>
        <time>2022-04-09T09:40:40.000Z</time>
      </trkpt>
      <trkpt lat="37.38572" lon="-5.99971">
        <ele>8.180045</ele>
        <time>2022-04-09T09:40:46.000Z</time>
      </trkpt>
      <trkpt lat="37.38557" lon="-5.99955">
        <ele>8.131253</ele>
        <time>2022-04-09T09:40:52.000Z</time>
      </trkpt>
      <trkpt lat="37.38555" lon="-5.99954">
        <ele>8.124849</ele>
        <time>2022-04-09T09:40:53.000Z</time>
      </trkpt>
      <trkpt lat="37.38535" lon="-5.99938">
        <ele>8.065321</ele>
        <time>2022-04-09T09:41:01.000Z</time>
      </trkpt>
      <trkpt lat="37.38525" lon="-5.99928">
        <ele>8.033911</ele>
        <time>2022-04-09T09:41:07.000Z</time>
      </trkpt>
      <trkpt lat="37.38512" lon="-5.99913">
        <ele>7.99047</ele>
        <time>2022-04-09T09:41:13.000Z</time>
      </trkpt>
      <trkpt lat="37.38505" lon="-5.99896">
        <ele>7.951295</ele>
        <time>2022-04-09T09:41:20.000Z</time>
      </trkpt>
      <trkpt lat="37.38507" lon="-5.99892">
        <ele>7.943268</ele>
        <time>2022-04-09T09:41:24.000Z</time>
      </trkpt>
      <trkpt lat="37.38507" lon="-5.99892">
        <ele>7.943268</ele>
        <time>2022-04-09T09:41:33.000Z</time>
      </trkpt>
      <trkpt lat="37.38515" lon="-5.99884">
        <ele>7.916994</ele>
        <time>2022-04-09T09:41:39.000Z</time>
      </trkpt>
      <trkpt lat="37.38521" lon="-5.99869">
        <ele>7.882353</ele>
        <time>2022-04-09T09:41:45.000Z</time>
      </trkpt>
      <trkpt lat="37.38521" lon="-5.99864">
        <ele>7.873537</ele>
        <time>2022-04-09T09:41:47.000Z</time>
      </trkpt>
      <trkpt lat="37.38519" lon="-5.9986">
        <ele>7.863085</ele>
        <time>2022-04-09T09:41:49.000Z</time>
      </trkpt>
      <trkpt lat="37.38516" lon="-5.99855">
        <ele>7.851285</ele>
        <time>2022-04-09T09:41:53.000Z</time>
      </trkpt>
      <trkpt lat="37.3852" lon="-5.99851">
        <ele>7.838993</ele>
        <time>2022-04-09T09:41:57.000Z</time>
      </trkpt>
      <trkpt lat="37.38521" lon="-5.99849">
        <ele>7.834916</ele>
        <time>2022-04-09T09:41:58.000Z</time>
      </trkpt>
      <trkpt lat="37.38524" lon="-5.99844">
        <ele>7.822685</ele>
        <time>2022-04-09T09:42:00.000Z</time>
      </trkpt>
      <trkpt lat="37.3853" lon="-5.9983">
        <ele>7.790708</ele>
        <time>2022-04-09T09:42:05.000Z</time>
      </trkpt>
      <trkpt lat="37.38533" lon="-5.99823">
        <ele>7.775252</ele>
        <time>2022-04-09T09:42:07.000Z</time>
      </trkpt>
      <trkpt lat="37.38535" lon="-5.99816">
        <ele>7.784353</ele>
        <time>2022-04-09T09:42:09.000Z</time>
      </trkpt>
      <trkpt lat="37.38541" lon="-5.99804">
        <ele>7.808388</ele>
        <time>2022-04-09T09:42:12.000Z</time>
      </trkpt>
      <trkpt lat="37.38544" lon="-5.99796">
        <ele>7.824659</ele>
        <time>2022-04-09T09:42:14.000Z</time>
      </trkpt>
      <trkpt lat="37.38548" lon="-5.99788">
        <ele>7.841655</ele>
        <time>2022-04-09T09:42:18.000Z</time>
      </trkpt>
      <trkpt lat="37.38553" lon="-5.99772">
        <ele>7.870845</ele>
        <time>2022-04-09T09:42:23.000Z</time>
      </trkpt>
      <trkpt lat="37.38562" lon="-5.99761">
        <ele>7.898281</ele>
        <time>2022-04-09T09:42:29.000Z</time>
      </trkpt>
      <trkpt lat="37.38563" lon="-5.9976">
        <ele>7.901675</ele>
        <time>2022-04-09T09:42:35.000Z</time>
      </trkpt>
      <trkpt lat="37.38562" lon="-5.99758">
        <ele>7.904964</ele>
        <time>2022-04-09T09:42:45.000Z</time>
      </trkpt>
      <trkpt lat="37.38562" lon="-5.99756">
        <ele>7.908659</ele>
        <time>2022-04-09T09:42:46.000Z</time>
      </trkpt>
      <trkpt lat="37.38565" lon="-5.99751">
        <ele>7.919859</ele>
        <time>2022-04-09T09:42:48.000Z</time>
      </trkpt>
      <trkpt lat="37.38567" lon="-5.99746">
        <ele>7.92889</ele>
        <time>2022-04-09T09:42:50.000Z</time>
      </trkpt>
      <trkpt lat="37.38568" lon="-5.99744">
        <ele>7.932992</ele>
        <time>2022-04-09T09:42:53.000Z</time>
      </trkpt>
      <trkpt lat="37.38572" lon="-5.99735">
        <ele>7.951773</ele>
        <time>2022-04-09T09:42:57.000Z</time>
      </trkpt>
      <trkpt lat="37.38575" lon="-5.99731">
        <ele>7.961799</ele>
        <time>2022-04-09T09:42:59.000Z</time>
      </trkpt>
      <trkpt lat="37.38577" lon="-5.9973">
        <ele>7.964978</ele>
        <time>2022-04-09T09:43:01.000Z</time>
      </trkpt>
      <trkpt lat="37.38579" lon="-5.9973">
        <ele>7.970525</ele>
        <time>2022-04-09T09:43:08.000Z</time>
      </trkpt>
      <trkpt lat="37.38586" lon="-5.99719">
        <ele>7.99505</ele>
        <time>2022-04-09T09:43:13.000Z</time>
      </trkpt>
      <trkpt lat="37.38588" lon="-5.99717">
        <ele>8.000289</ele>
        <time>2022-04-09T09:43:14.000Z</time>
      </trkpt>
      <trkpt lat="37.38589" lon="-5.99709">
        <ele>8.014788</ele>
        <time>2022-04-09T09:43:17.000Z</time>
      </trkpt>
      <trkpt lat="37.38589" lon="-5.99708">
        <ele>8.016166</ele>
        <time>2022-04-09T09:43:18.000Z</time>
      </trkpt>
      <trkpt lat="37.38585" lon="-5.99709">
        <ele>8.025747</ele>
        <time>2022-04-09T09:43:19.000Z</time>
      </trkpt>
      <trkpt lat="37.3858" lon="-5.9971">
        <ele>8.037311</ele>
        <time>2022-04-09T09:43:21.000Z</time>
      </trkpt>
      <trkpt lat="37.38576" lon="-5.99705">
        <ele>8.048182</ele>
        <time>2022-04-09T09:43:22.000Z</time>
      </trkpt>
      <trkpt lat="37.3857" lon="-5.99703">
        <ele>8.061283</ele>
        <time>2022-04-09T09:43:25.000Z</time>
      </trkpt>
      <trkpt lat="37.38569" lon="-5.99701">
        <ele>8.066036</ele>
        <time>2022-04-09T09:43:28.000Z</time>
      </trkpt>
      <trkpt lat="37.38568" lon="-5.99699">
        <ele>8.069562</ele>
        <time>2022-04-09T09:43:29.000Z</time>
      </trkpt>
      <trkpt lat="37.38568" lon="-5.99694">
        <ele>8.07846</ele>
        <time>2022-04-09T09:43:31.000Z</time>
      </trkpt>
      <trkpt lat="37.38568" lon="-5.99692">
        <ele>8.083531</ele>
        <time>2022-04-09T09:43:32.000Z</time>
      </trkpt>
      <trkpt lat="37.38569" lon="-5.99689">
        <ele>8.089094</ele>
        <time>2022-04-09T09:43:33.000Z</time>
      </trkpt>
      <trkpt lat="37.38573" lon="-5.99675">
        <ele>8.115055</ele>
        <time>2022-04-09T09:43:39.000Z</time>
      </trkpt>
      <trkpt lat="37.38574" lon="-5.99673">
        <ele>8.119515</ele>
        <time>2022-04-09T09:43:40.000Z</time>
      </trkpt>
      <trkpt lat="37.38577" lon="-5.99668">
        <ele>8.130684</ele>
        <time>2022-04-09T09:43:42.000Z</time>
      </trkpt>
      <trkpt lat="37.38581" lon="-5.99655">
        <ele>8.154411</ele>
        <time>2022-04-09T09:43:46.000Z</time>
      </trkpt>
      <trkpt lat="37.38582" lon="-5.9965">
        <ele>8.163033</ele>
        <time>2022-04-09T09:43:48.000Z</time>
      </trkpt>
      <trkpt lat="37.38583" lon="-5.99649">
        <ele>8.166904</ele>
        <time>2022-04-09T09:43:49.000Z</time>
      </trkpt>
      <trkpt lat="37.38586" lon="-5.99647">
        <ele>8.176887</ele>
        <time>2022-04-09T09:43:52.000Z</time>
      </trkpt>
      <trkpt lat="37.38586" lon="-5.99646">
        <ele>8.180242</ele>
        <time>2022-04-09T09:43:53.000Z</time>
      </trkpt>
      <trkpt lat="37.38591" lon="-5.99633">
        <ele>8.234607</ele>
        <time>2022-04-09T09:43:58.000Z</time>
      </trkpt>
      <trkpt lat="37.38592" lon="-5.99629">
        <ele>8.251202</ele>
        <time>2022-04-09T09:44:00.000Z</time>
      </trkpt>
      <trkpt lat="37.38594" lon="-5.99624">
        <ele>8.273991</ele>
        <time>2022-04-09T09:44:03.000Z</time>
      </trkpt>
      <trkpt lat="37.38595" lon="-5.9962">
        <ele>8.290667</ele>
        <time>2022-04-09T09:44:06.000Z</time>
      </trkpt>
      <trkpt lat="37.38598" lon="-5.99614">
        <ele>8.315032</ele>
        <time>2022-04-09T09:44:09.000Z</time>
      </trkpt>
      <trkpt lat="37.386" lon="-5.99611">
        <ele>8.332265</ele>
        <time>2022-04-09T09:44:11.000Z</time>
      </trkpt>
      <trkpt lat="37.38601" lon="-5.99609">
        <ele>8.340698</ele>
        <time>2022-04-09T09:44:14.000Z</time>
      </trkpt>
      <trkpt lat="37.38601" lon="-5.99607">
        <ele>8.346122</ele>
        <time>2022-04-09T09:44:18.000Z</time>
      </trkpt>
      <trkpt lat="37.38604" lon="-5.99607">
        <ele>8.362315</ele>
        <time>2022-04-09T09:44:23.000Z</time>
      </trkpt>
      <trkpt lat="37.38606" lon="-5.9961">
        <ele>8.37675</ele>
        <time>2022-04-09T09:44:24.000Z</time>
      </trkpt>
      <trkpt lat="37.38614" lon="-5.9962">
        <ele>8.431403</ele>
        <time>2022-04-09T09:44:30.000Z</time>
      </trkpt>
      <trkpt lat="37.38614" lon="-5.99618">
        <ele>8.439564</ele>
        <time>2022-04-09T09:44:38.000Z</time>
      </trkpt>
      <trkpt lat="37.38616" lon="-5.99612">
        <ele>8.462418</ele>
        <time>2022-04-09T09:44:43.000Z</time>
      </trkpt>
      <trkpt lat="37.38616" lon="-5.9961">
        <ele>8.471029</ele>
        <time>2022-04-09T09:44:44.000Z</time>
      </trkpt>
      <trkpt lat="37.38618" lon="-5.99609">
        <ele>8.481198</ele>
        <time>2022-04-09T09:44:45.000Z</time>
      </trkpt>
      <trkpt lat="37.38625" lon="-5.99607">
        <ele>8.518208</ele>
        <time>2022-04-09T09:44:48.000Z</time>
      </trkpt>
      <trkpt lat="37.3863" lon="-5.99605">
        <ele>8.541285</ele>
        <time>2022-04-09T09:44:54.000Z</time>
      </trkpt>
      <trkpt lat="37.38631" lon="-5.99604">
        <ele>8.550116</ele>
        <time>2022-04-09T09:45:03.000Z</time>
      </trkpt>
      <trkpt lat="37.38633" lon="-5.99604">
        <ele>8.558453</ele>
        <time>2022-04-09T09:45:08.000Z</time>
      </trkpt>
      <trkpt lat="37.38634" lon="-5.99603">
        <ele>8.564035</ele>
        <time>2022-04-09T09:45:18.000Z</time>
      </trkpt>
      <trkpt lat="37.38634" lon="-5.99599">
        <ele>8.579279</ele>
        <time>2022-04-09T09:45:24.000Z</time>
      </trkpt>
      <trkpt lat="37.38636" lon="-5.99595">
        <ele>8.596502</ele>
        <time>2022-04-09T09:45:26.000Z</time>
      </trkpt>
      <trkpt lat="37.38637" lon="-5.99581">
        <ele>8.648537</ele>
        <time>2022-04-09T09:45:32.000Z</time>
      </trkpt>
      <trkpt lat="37.38645" lon="-5.99559">
        <ele>8.741469</ele>
        <time>2022-04-09T09:45:38.000Z</time>
      </trkpt>
      <trkpt lat="37.38646" lon="-5.99556">
        <ele>8.754932</ele>
        <time>2022-04-09T09:45:39.000Z</time>
      </trkpt>
      <trkpt lat="37.38647" lon="-5.99552">
        <ele>8.769882</ele>
        <time>2022-04-09T09:45:40.000Z</time>
      </trkpt>
      <trkpt lat="37.38649" lon="-5.99543">
        <ele>8.805443</ele>
        <time>2022-04-09T09:45:42.000Z</time>
      </trkpt>
      <trkpt lat="37.38647" lon="-5.99529">
        <ele>8.860216</ele>
        <time>2022-04-09T09:45:45.000Z</time>
      </trkpt>
      <trkpt lat="37.38648" lon="-5.99524">
        <ele>8.882786</ele>
        <time>2022-04-09T09:45:47.000Z</time>
      </trkpt>
      <trkpt lat="37.38655" lon="-5.99509">
        <ele>8.948917</ele>
        <time>2022-04-09T09:45:51.000Z</time>
      </trkpt>
      <trkpt lat="37.38655" lon="-5.99504">
        <ele>8.966693</ele>
        <time>2022-04-09T09:45:52.000Z</time>
      </trkpt>
      <trkpt lat="37.38654" lon="-5.99493">
        <ele>9.011006</ele>
        <time>2022-04-09T09:45:55.000Z</time>
      </trkpt>
      <trkpt lat="37.38654" lon="-5.99487">
        <ele>9.034286</ele>
        <time>2022-04-09T09:45:57.000Z</time>
      </trkpt>
      <trkpt lat="37.38659" lon="-5.99477">
        <ele>9.092079</ele>
        <time>2022-04-09T09:46:01.000Z</time>
      </trkpt>
      <trkpt lat="37.38663" lon="-5.99473">
        <ele>9.125239</ele>
        <time>2022-04-09T09:46:04.000Z</time>
      </trkpt>
      <trkpt lat="37.38663" lon="-5.99473">
        <ele>9.127265</ele>
        <time>2022-04-09T09:46:07.000Z</time>
      </trkpt>
      <trkpt lat="37.38663" lon="-5.99473">
        <ele>9.127265</ele>
        <time>2022-04-09T09:46:09.000Z</time>
      </trkpt>
      <trkpt lat="37.38663" lon="-5.99474">
        <ele>9.135042</ele>
        <time>2022-04-09T09:46:14.000Z</time>
      </trkpt>
      <trkpt lat="37.38667" lon="-5.99474">
        <ele>9.160624</ele>
        <time>2022-04-09T09:46:16.000Z</time>
      </trkpt>
      <trkpt lat="37.38679" lon="-5.99476">
        <ele>9.239759</ele>
        <time>2022-04-09T09:46:21.000Z</time>
      </trkpt>
      <trkpt lat="37.38684" lon="-5.99474">
        <ele>9.274187</ele>
        <time>2022-04-09T09:46:23.000Z</time>
      </trkpt>
      <trkpt lat="37.38689" lon="-5.99471">
        <ele>9.307642</ele>
        <time>2022-04-09T09:46:26.000Z</time>
      </trkpt>
      <trkpt lat="37.38693" lon="-5.99466">
        <ele>9.345014</ele>
        <time>2022-04-09T09:46:29.000Z</time>
      </trkpt>
      <trkpt lat="37.38694" lon="-5.99465">
        <ele>9.356672</ele>
        <time>2022-04-09T09:46:30.000Z</time>
      </trkpt>
      <trkpt lat="37.38696" lon="-5.99464">
        <ele>9.369455</ele>
        <time>2022-04-09T09:46:31.000Z</time>
      </trkpt>
      <trkpt lat="37.38703" lon="-5.99465">
        <ele>9.415241</ele>
        <time>2022-04-09T09:46:36.000Z</time>
      </trkpt>
      <trkpt lat="37.38705" lon="-5.99465">
        <ele>9.429635</ele>
        <time>2022-04-09T09:46:38.000Z</time>
      </trkpt>
      <trkpt lat="37.38709" lon="-5.99463">
        <ele>9.456513</ele>
        <time>2022-04-09T09:46:40.000Z</time>
      </trkpt>
      <trkpt lat="37.38726" lon="-5.99452">
        <ele>9.579515</ele>
        <time>2022-04-09T09:46:46.000Z</time>
      </trkpt>
      <trkpt lat="37.38729" lon="-5.9945">
        <ele>9.603884</ele>
        <time>2022-04-09T09:46:48.000Z</time>
      </trkpt>
      <trkpt lat="37.38736" lon="-5.99452">
        <ele>9.648238</ele>
        <time>2022-04-09T09:46:50.000Z</time>
      </trkpt>
      <trkpt lat="37.38739" lon="-5.99453">
        <ele>9.667924</ele>
        <time>2022-04-09T09:46:51.000Z</time>
      </trkpt>
      <trkpt lat="37.38754" lon="-5.99448">
        <ele>9.772138</ele>
        <time>2022-04-09T09:46:56.000Z</time>
      </trkpt>
      <trkpt lat="37.38763" lon="-5.99448">
        <ele>9.826956</ele>
        <time>2022-04-09T09:46:59.000Z</time>
      </trkpt>
      <trkpt lat="37.38764" lon="-5.99443">
        <ele>9.853856</ele>
        <time>2022-04-09T09:47:01.000Z</time>
      </trkpt>
      <trkpt lat="37.38766" lon="-5.99423">
        <ele>9.961494</ele>
        <time>2022-04-09T09:47:05.000Z</time>
      </trkpt>
      <trkpt lat="37.3877" lon="-5.99424">
        <ele>9.983424</ele>
        <time>2022-04-09T09:47:06.000Z</time>
      </trkpt>
      <trkpt lat="37.38771" lon="-5.9942">
        <ele>10.005353</ele>
        <time>2022-04-09T09:47:07.000Z</time>
      </trkpt>
      <trkpt lat="37.38782" lon="-5.99441">
        <ele>10.139521</ele>
        <time>2022-04-09T09:47:09.000Z</time>
      </trkpt>
      <trkpt lat="37.38785" lon="-5.99446">
        <ele>10.167938</ele>
        <time>2022-04-09T09:47:10.000Z</time>
      </trkpt>
      <trkpt lat="37.38793" lon="-5.99447">
        <ele>10.217908</ele>
        <time>2022-04-09T09:47:13.000Z</time>
      </trkpt>
      <trkpt lat="37.38794" lon="-5.99446">
        <ele>10.218326</ele>
        <time>2022-04-09T09:47:14.000Z</time>
      </trkpt>
      <trkpt lat="37.38798" lon="-5.99445">
        <ele>10.219263</ele>
        <time>2022-04-09T09:47:16.000Z</time>
      </trkpt>
      <trkpt lat="37.38805" lon="-5.99451">
        <ele>10.221276</ele>
        <time>2022-04-09T09:47:19.000Z</time>
      </trkpt>
      <trkpt lat="37.38812" lon="-5.9946">
        <ele>10.223855</ele>
        <time>2022-04-09T09:47:24.000Z</time>
      </trkpt>
      <trkpt lat="37.38813" lon="-5.99461">
        <ele>10.224229</ele>
        <time>2022-04-09T09:47:25.000Z</time>
      </trkpt>
      <trkpt lat="37.38814" lon="-5.99463">
        <ele>10.224668</ele>
        <time>2022-04-09T09:47:26.000Z</time>
      </trkpt>
      <trkpt lat="37.38817" lon="-5.99469">
        <ele>10.226154</ele>
        <time>2022-04-09T09:47:29.000Z</time>
      </trkpt>
      <trkpt lat="37.38818" lon="-5.9947">
        <ele>10.226597</ele>
        <time>2022-04-09T09:47:30.000Z</time>
      </trkpt>
      <trkpt lat="37.3882" lon="-5.99472">
        <ele>10.227194</ele>
        <time>2022-04-09T09:47:32.000Z</time>
      </trkpt>
      <trkpt lat="37.38821" lon="-5.99472">
        <ele>10.227296</ele>
        <time>2022-04-09T09:47:33.000Z</time>
      </trkpt>
      <trkpt lat="37.38821" lon="-5.99471">
        <ele>10.227563</ele>
        <time>2022-04-09T09:47:37.000Z</time>
      </trkpt>
      <trkpt lat="37.38821" lon="-5.99471">
        <ele>10.227563</ele>
        <time>2022-04-09T09:47:46.000Z</time>
      </trkpt>
      <trkpt lat="37.38821" lon="-5.99471">
        <ele>10.227563</ele>
        <time>2022-04-09T09:48:05.000Z</time>
      </trkpt>
      <trkpt lat="37.38821" lon="-5.99471">
        <ele>10.227563</ele>
        <time>2022-04-09T09:48:09.000Z</time>
      </trkpt>
      <trkpt lat="37.38821" lon="-5.99471">
        <ele>10.227563</ele>
        <time>2022-04-09T09:48:10.000Z</time>
      </trkpt>
      <trkpt lat="37.38821" lon="-5.99471">
        <ele>10.227563</ele>
        <time>2022-04-09T09:48:17.000Z</time>
      </trkpt>
      <trkpt lat="37.38821" lon="-5.99471">
        <ele>10.227563</ele>
        <time>2022-04-09T09:48:21.000Z</time>
      </trkpt>
      <trkpt lat="37.38821" lon="-5.99471">
        <ele>10.227563</ele>
        <time>2022-04-09T09:48:26.000Z</time>
      </trkpt>
      <trkpt lat="37.38821" lon="-5.99471">
        <ele>10.227614</ele>
        <time>2022-04-09T09:48:29.000Z</time>
      </trkpt>
      <trkpt lat="37.38821" lon="-5.9947">
        <ele>10.22779</ele>
        <time>2022-04-09T09:48:31.000Z</time>
      </trkpt>
      <trkpt lat="37.38819" lon="-5.99466">
        <ele>10.22886</ele>
        <time>2022-04-09T09:48:34.000Z</time>
      </trkpt>
      <trkpt lat="37.38817" lon="-5.99463">
        <ele>10.229612</ele>
        <time>2022-04-09T09:48:36.000Z</time>
      </trkpt>
      <trkpt lat="37.3881" lon="-5.99453">
        <ele>10.232133</ele>
        <time>2022-04-09T09:48:42.000Z</time>
      </trkpt>
      <trkpt lat="37.3881" lon="-5.99453">
        <ele>10.232274</ele>
        <time>2022-04-09T09:48:44.000Z</time>
      </trkpt>
      <trkpt lat="37.3881" lon="-5.99451">
        <ele>10.232618</ele>
        <time>2022-04-09T09:48:48.000Z</time>
      </trkpt>
      <trkpt lat="37.3881" lon="-5.99451">
        <ele>10.232618</ele>
        <time>2022-04-09T09:48:49.000Z</time>
      </trkpt>
      <trkpt lat="37.38807" lon="-5.99448">
        <ele>10.233597</ele>
        <time>2022-04-09T09:48:57.000Z</time>
      </trkpt>
      <trkpt lat="37.38802" lon="-5.99443">
        <ele>10.235192</ele>
        <time>2022-04-09T09:49:02.000Z</time>
      </trkpt>
      <trkpt lat="37.388" lon="-5.99441">
        <ele>10.235867</ele>
        <time>2022-04-09T09:49:04.000Z</time>
      </trkpt>
      <trkpt lat="37.38798" lon="-5.99439">
        <ele>10.23639</ele>
        <time>2022-04-09T09:49:06.000Z</time>
      </trkpt>
      <trkpt lat="37.38798" lon="-5.99439">
        <ele>10.236566</ele>
        <time>2022-04-09T09:49:07.000Z</time>
      </trkpt>
      <trkpt lat="37.38793" lon="-5.99437">
        <ele>10.237738</ele>
        <time>2022-04-09T09:49:10.000Z</time>
      </trkpt>
      <trkpt lat="37.38788" lon="-5.99437">
        <ele>10.239074</ele>
        <time>2022-04-09T09:49:12.000Z</time>
      </trkpt>
      <trkpt lat="37.38778" lon="-5.99436">
        <ele>10.241494</ele>
        <time>2022-04-09T09:49:16.000Z</time>
      </trkpt>
      <trkpt lat="37.38773" lon="-5.99436">
        <ele>10.242929</ele>
        <time>2022-04-09T09:49:19.000Z</time>
      </trkpt>
      <trkpt lat="37.3877" lon="-5.99435">
        <ele>10.243613</ele>
        <time>2022-04-09T09:49:21.000Z</time>
      </trkpt>
      <trkpt lat="37.38767" lon="-5.99434">
        <ele>10.244406</ele>
        <time>2022-04-09T09:49:23.000Z</time>
      </trkpt>
      <trkpt lat="37.38765" lon="-5.99434">
        <ele>10.244763</ele>
        <time>2022-04-09T09:49:24.000Z</time>
      </trkpt>
      <trkpt lat="37.38765" lon="-5.99434">
        <ele>10.24499</ele>
        <time>2022-04-09T09:49:25.000Z</time>
      </trkpt>
      <trkpt lat="37.38763" lon="-5.99433">
        <ele>10.245422</ele>
        <time>2022-04-09T09:49:26.000Z</time>
      </trkpt>
      <trkpt lat="37.38744" lon="-5.99426">
        <ele>10.250427</ele>
        <time>2022-04-09T09:49:33.000Z</time>
      </trkpt>
      <trkpt lat="37.38729" lon="-5.99424">
        <ele>10.254173</ele>
        <time>2022-04-09T09:49:38.000Z</time>
      </trkpt>
      <trkpt lat="37.38726" lon="-5.99425">
        <ele>10.254916</ele>
        <time>2022-04-09T09:49:39.000Z</time>
      </trkpt>
      <trkpt lat="37.38709" lon="-5.99426">
        <ele>10.259199</ele>
        <time>2022-04-09T09:49:44.000Z</time>
      </trkpt>
      <trkpt lat="37.38704" lon="-5.99424">
        <ele>10.260629</ele>
        <time>2022-04-09T09:49:46.000Z</time>
      </trkpt>
      <trkpt lat="37.3869" lon="-5.99424">
        <ele>10.283718</ele>
        <time>2022-04-09T09:49:51.000Z</time>
      </trkpt>
      <trkpt lat="37.3868" lon="-5.99424">
        <ele>10.332863</ele>
        <time>2022-04-09T09:49:55.000Z</time>
      </trkpt>
      <trkpt lat="37.38672" lon="-5.99424">
        <ele>10.373088</ele>
        <time>2022-04-09T09:49:58.000Z</time>
      </trkpt>
      <trkpt lat="37.38666" lon="-5.99419">
        <ele>10.407035</ele>
        <time>2022-04-09T09:50:03.000Z</time>
      </trkpt>
      <trkpt lat="37.38663" lon="-5.99417">
        <ele>10.423196</ele>
        <time>2022-04-09T09:50:14.000Z</time>
      </trkpt>
      <trkpt lat="37.38661" lon="-5.99416">
        <ele>10.433493</ele>
        <time>2022-04-09T09:50:18.000Z</time>
      </trkpt>
      <trkpt lat="37.38661" lon="-5.99416">
        <ele>10.433493</ele>
        <time>2022-04-09T09:50:19.000Z</time>
      </trkpt>
      <trkpt lat="37.38661" lon="-5.99416">
        <ele>10.433493</ele>
        <time>2022-04-09T09:50:20.000Z</time>
      </trkpt>
      <trkpt lat="37.38661" lon="-5.99416">
        <ele>10.433493</ele>
        <time>2022-04-09T09:50:24.000Z</time>
      </trkpt>
      <trkpt lat="37.38662" lon="-5.99416">
        <ele>10.435393</ele>
        <time>2022-04-09T09:50:26.000Z</time>
      </trkpt>
      <trkpt lat="37.38666" lon="-5.99409">
        <ele>10.47059</ele>
        <time>2022-04-09T09:50:29.000Z</time>
      </trkpt>
      <trkpt lat="37.38666" lon="-5.99404">
        <ele>10.491484</ele>
        <time>2022-04-09T09:50:31.000Z</time>
      </trkpt>
      <trkpt lat="37.38665" lon="-5.99396">
        <ele>10.525799</ele>
        <time>2022-04-09T09:50:34.000Z</time>
      </trkpt>
      <trkpt lat="37.38664" lon="-5.9939">
        <ele>10.548036</ele>
        <time>2022-04-09T09:50:36.000Z</time>
      </trkpt>
      <trkpt lat="37.38664" lon="-5.99379">
        <ele>10.591793</ele>
        <time>2022-04-09T09:50:39.000Z</time>
      </trkpt>
      <trkpt lat="37.38667" lon="-5.99364">
        <ele>10.652968</ele>
        <time>2022-04-09T09:50:44.000Z</time>
      </trkpt>
      <trkpt lat="37.38667" lon="-5.9936">
        <ele>10.666367</ele>
        <time>2022-04-09T09:50:45.000Z</time>
      </trkpt>
      <trkpt lat="37.38669" lon="-5.99347">
        <ele>10.722379</ele>
        <time>2022-04-09T09:50:50.000Z</time>
      </trkpt>
      <trkpt lat="37.3867" lon="-5.99345">
        <ele>10.731204</ele>
        <time>2022-04-09T09:50:51.000Z</time>
      </trkpt>
      <trkpt lat="37.38671" lon="-5.99339">
        <ele>10.752469</ele>
        <time>2022-04-09T09:50:56.000Z</time>
      </trkpt>
      <trkpt lat="37.38671" lon="-5.9933">
        <ele>10.788758</ele>
        <time>2022-04-09T09:51:00.000Z</time>
      </trkpt>
      <trkpt lat="37.38673" lon="-5.99327">
        <ele>10.806356</ele>
        <time>2022-04-09T09:51:01.000Z</time>
      </trkpt>
      <trkpt lat="37.38677" lon="-5.9931">
        <ele>10.875063</ele>
        <time>2022-04-09T09:51:08.000Z</time>
      </trkpt>
      <trkpt lat="37.38678" lon="-5.99305">
        <ele>10.894476</ele>
        <time>2022-04-09T09:51:13.000Z</time>
      </trkpt>
      <trkpt lat="37.38678" lon="-5.99304">
        <ele>10.898057</ele>
        <time>2022-04-09T09:51:14.000Z</time>
      </trkpt>
      <trkpt lat="37.38678" lon="-5.99302">
        <ele>10.906349</ele>
        <time>2022-04-09T09:51:16.000Z</time>
      </trkpt>
      <trkpt lat="37.38678" lon="-5.99296">
        <ele>10.932085</ele>
        <time>2022-04-09T09:51:21.000Z</time>
      </trkpt>
      <trkpt lat="37.38678" lon="-5.99287">
        <ele>10.965599</ele>
        <time>2022-04-09T09:51:26.000Z</time>
      </trkpt>
      <trkpt lat="37.38679" lon="-5.99283">
        <ele>10.983117</ele>
        <time>2022-04-09T09:51:29.000Z</time>
      </trkpt>
      <trkpt lat="37.38679" lon="-5.99282">
        <ele>10.987181</ele>
        <time>2022-04-09T09:51:30.000Z</time>
      </trkpt>
      <trkpt lat="37.3868" lon="-5.99281">
        <ele>10.991837</ele>
        <time>2022-04-09T09:51:31.000Z</time>
      </trkpt>
      <trkpt lat="37.3868" lon="-5.9928">
        <ele>10.994371</ele>
        <time>2022-04-09T09:51:34.000Z</time>
      </trkpt>
      <trkpt lat="37.3868" lon="-5.9928">
        <ele>10.995859</ele>
        <time>2022-04-09T09:51:44.000Z</time>
      </trkpt>
      <trkpt lat="37.38239" lon="-5.99314">
        <ele>12.514656</ele>
        <time>2022-04-09T12:06:42.000Z</time>
      </trkpt>
      <trkpt lat="37.38232" lon="-5.99305">
        <ele>12.555709</ele>
        <time>2022-04-09T12:06:46.000Z</time>
      </trkpt>
      <trkpt lat="37.38228" lon="-5.99309">
        <ele>12.580461</ele>
        <time>2022-04-09T12:06:48.000Z</time>
      </trkpt>
      <trkpt lat="37.38225" lon="-5.99318">
        <ele>12.611022</ele>
        <time>2022-04-09T12:06:52.000Z</time>
      </trkpt>
      <trkpt lat="37.38225" lon="-5.99335">
        <ele>12.665903</ele>
        <time>2022-04-09T12:06:57.000Z</time>
      </trkpt>
      <trkpt lat="37.38225" lon="-5.99342">
        <ele>12.686122</ele>
        <time>2022-04-09T12:06:59.000Z</time>
      </trkpt>
      <trkpt lat="37.38226" lon="-5.99348">
        <ele>12.706656</ele>
        <time>2022-04-09T12:07:01.000Z</time>
      </trkpt>
      <trkpt lat="37.38226" lon="-5.99357">
        <ele>12.734639</ele>
        <time>2022-04-09T12:07:05.000Z</time>
      </trkpt>
      <trkpt lat="37.38222" lon="-5.9936">
        <ele>12.752373</ele>
        <time>2022-04-09T12:07:07.000Z</time>
      </trkpt>
      <trkpt lat="37.3822" lon="-5.99363">
        <ele>12.767528</ele>
        <time>2022-04-09T12:07:09.000Z</time>
      </trkpt>
      <trkpt lat="37.38219" lon="-5.99365">
        <ele>12.774456</ele>
        <time>2022-04-09T12:07:10.000Z</time>
      </trkpt>
      <trkpt lat="37.38219" lon="-5.99371">
        <ele>12.792746</ele>
        <time>2022-04-09T12:07:12.000Z</time>
      </trkpt>
      <trkpt lat="37.3822" lon="-5.99393">
        <ele>12.862238</ele>
        <time>2022-04-09T12:07:19.000Z</time>
      </trkpt>
      <trkpt lat="37.38219" lon="-5.99402">
        <ele>12.891708</ele>
        <time>2022-04-09T12:07:24.000Z</time>
      </trkpt>
      <trkpt lat="37.38222" lon="-5.99421">
        <ele>12.953944</ele>
        <time>2022-04-09T12:07:30.000Z</time>
      </trkpt>
      <trkpt lat="37.38225" lon="-5.99431">
        <ele>12.987491</ele>
        <time>2022-04-09T12:07:35.000Z</time>
      </trkpt>
      <trkpt lat="37.38225" lon="-5.99432">
        <ele>12.993608</ele>
        <time>2022-04-09T12:07:36.000Z</time>
      </trkpt>
      <trkpt lat="37.38228" lon="-5.9945">
        <ele>13.064182</ele>
        <time>2022-04-09T12:07:43.000Z</time>
      </trkpt>
      <trkpt lat="37.38229" lon="-5.99453">
        <ele>13.082443</ele>
        <time>2022-04-09T12:07:45.000Z</time>
      </trkpt>
      <trkpt lat="37.3823" lon="-5.99455">
        <ele>13.094364</ele>
        <time>2022-04-09T12:07:47.000Z</time>
      </trkpt>
      <trkpt lat="37.38231" lon="-5.99456">
        <ele>13.100589</ele>
        <time>2022-04-09T12:07:48.000Z</time>
      </trkpt>
      <trkpt lat="37.3823" lon="-5.99456">
        <ele>13.107944</ele>
        <time>2022-04-09T12:07:53.000Z</time>
      </trkpt>
      <trkpt lat="37.3823" lon="-5.99456">
        <ele>13.110394</ele>
        <time>2022-04-09T12:07:55.000Z</time>
      </trkpt>
      <trkpt lat="37.38229" lon="-5.99457">
        <ele>13.118843</ele>
        <time>2022-04-09T12:07:58.000Z</time>
      </trkpt>
      <trkpt lat="37.38228" lon="-5.99457">
        <ele>13.125484</ele>
        <time>2022-04-09T12:08:00.000Z</time>
      </trkpt>
      <trkpt lat="37.3823" lon="-5.99454">
        <ele>13.144701</ele>
        <time>2022-04-09T12:08:05.000Z</time>
      </trkpt>
      <trkpt lat="37.3823" lon="-5.99455">
        <ele>13.148842</ele>
        <time>2022-04-09T12:08:13.000Z</time>
      </trkpt>
      <trkpt lat="37.38231" lon="-5.99455">
        <ele>13.152698</ele>
        <time>2022-04-09T12:08:14.000Z</time>
      </trkpt>
      <trkpt lat="37.38231" lon="-5.99454">
        <ele>13.155034</ele>
        <time>2022-04-09T12:08:24.000Z</time>
      </trkpt>
      <trkpt lat="37.3823" lon="-5.99457">
        <ele>13.168875</ele>
        <time>2022-04-09T12:08:32.000Z</time>
      </trkpt>
      <trkpt lat="37.3823" lon="-5.99459">
        <ele>13.182308</ele>
        <time>2022-04-09T12:08:34.000Z</time>
      </trkpt>
      <trkpt lat="37.38231" lon="-5.99464">
        <ele>13.21081</ele>
        <time>2022-04-09T12:08:39.000Z</time>
      </trkpt>
      <trkpt lat="37.38231" lon="-5.99468">
        <ele>13.237347</ele>
        <time>2022-04-09T12:08:42.000Z</time>
      </trkpt>
      <trkpt lat="37.38232" lon="-5.99468">
        <ele>13.242782</ele>
        <time>2022-04-09T12:08:44.000Z</time>
      </trkpt>
      <trkpt lat="37.38232" lon="-5.99469">
        <ele>13.247512</ele>
        <time>2022-04-09T12:08:50.000Z</time>
      </trkpt>
      <trkpt lat="37.38232" lon="-5.99468">
        <ele>13.253937</ele>
        <time>2022-04-09T12:08:55.000Z</time>
      </trkpt>
      <trkpt lat="37.38231" lon="-5.99466">
        <ele>13.26708</ele>
        <time>2022-04-09T12:09:00.000Z</time>
      </trkpt>
      <trkpt lat="37.38233" lon="-5.99468">
        <ele>13.286057</ele>
        <time>2022-04-09T12:09:04.000Z</time>
      </trkpt>
      <trkpt lat="37.38233" lon="-5.99468">
        <ele>13.288338</ele>
        <time>2022-04-09T12:09:05.000Z</time>
      </trkpt>
      <trkpt lat="37.38232" lon="-5.99466">
        <ele>13.303048</ele>
        <time>2022-04-09T12:09:10.000Z</time>
      </trkpt>
      <trkpt lat="37.38232" lon="-5.99464">
        <ele>13.314729</ele>
        <time>2022-04-09T12:09:12.000Z</time>
      </trkpt>
      <trkpt lat="37.38233" lon="-5.99469">
        <ele>13.344842</ele>
        <time>2022-04-09T12:09:18.000Z</time>
      </trkpt>
      <trkpt lat="37.38233" lon="-5.99469">
        <ele>13.350098</ele>
        <time>2022-04-09T12:09:23.000Z</time>
      </trkpt>
      <trkpt lat="37.38233" lon="-5.9947">
        <ele>13.360685</ele>
        <time>2022-04-09T12:09:28.000Z</time>
      </trkpt>
      <trkpt lat="37.38233" lon="-5.99471">
        <ele>13.366144</ele>
        <time>2022-04-09T12:09:32.000Z</time>
      </trkpt>
      <trkpt lat="37.38233" lon="-5.99473">
        <ele>13.374935</ele>
        <time>2022-04-09T12:09:35.000Z</time>
      </trkpt>
      <trkpt lat="37.38232" lon="-5.99474">
        <ele>13.385602</ele>
        <time>2022-04-09T12:09:37.000Z</time>
      </trkpt>
      <trkpt lat="37.38231" lon="-5.99472">
        <ele>13.400836</ele>
        <time>2022-04-09T12:09:44.000Z</time>
      </trkpt>
      <trkpt lat="37.38231" lon="-5.9947">
        <ele>13.417423</ele>
        <time>2022-04-09T12:09:49.000Z</time>
      </trkpt>
      <trkpt lat="37.38231" lon="-5.99467">
        <ele>13.430856</ele>
        <time>2022-04-09T12:09:51.000Z</time>
      </trkpt>
      <trkpt lat="37.38231" lon="-5.99466">
        <ele>13.44205</ele>
        <time>2022-04-09T12:09:52.000Z</time>
      </trkpt>
      <trkpt lat="37.38231" lon="-5.99464">
        <ele>13.451015</ele>
        <time>2022-04-09T12:09:56.000Z</time>
      </trkpt>
      <trkpt lat="37.38231" lon="-5.99464">
        <ele>13.45351</ele>
        <time>2022-04-09T12:09:57.000Z</time>
      </trkpt>
      <trkpt lat="37.38243" lon="-5.99606">
        <ele>14.286923</ele>
        <time>2022-04-09T13:13:24.000Z</time>
      </trkpt>
      <trkpt lat="37.38243" lon="-5.99606">
        <ele>14.286923</ele>
        <time>2022-04-09T13:13:25.000Z</time>
      </trkpt>
      <trkpt lat="37.38244" lon="-5.99618">
        <ele>14.357319</ele>
        <time>2022-04-09T13:13:28.000Z</time>
      </trkpt>
      <trkpt lat="37.38241" lon="-5.99603">
        <ele>14.394767</ele>
        <time>2022-04-09T13:13:30.000Z</time>
      </trkpt>
      <trkpt lat="37.38238" lon="-5.99588">
        <ele>14.429507</ele>
        <time>2022-04-09T13:13:31.000Z</time>
      </trkpt>
      <trkpt lat="37.38226" lon="-5.99569">
        <ele>14.482082</ele>
        <time>2022-04-09T13:13:35.000Z</time>
      </trkpt>
      <trkpt lat="37.38223" lon="-5.99568">
        <ele>14.491279</ele>
        <time>2022-04-09T13:13:37.000Z</time>
      </trkpt>
      <trkpt lat="37.38224" lon="-5.99566">
        <ele>14.49773</ele>
        <time>2022-04-09T13:13:43.000Z</time>
      </trkpt>
      <trkpt lat="37.38223" lon="-5.99565">
        <ele>14.50056</ele>
        <time>2022-04-09T13:13:44.000Z</time>
      </trkpt>
      <trkpt lat="37.38221" lon="-5.99565">
        <ele>14.506969</ele>
        <time>2022-04-09T13:13:54.000Z</time>
      </trkpt>
      <trkpt lat="37.3822" lon="-5.99566">
        <ele>14.509768</ele>
        <time>2022-04-09T13:14:02.000Z</time>
      </trkpt>
      <trkpt lat="37.3822" lon="-5.99565">
        <ele>14.512432</ele>
        <time>2022-04-09T13:14:22.000Z</time>
      </trkpt>
      <trkpt lat="37.38223" lon="-5.99567">
        <ele>14.519737</ele>
        <time>2022-04-09T13:14:37.000Z</time>
      </trkpt>
      <trkpt lat="37.3822" lon="-5.99571">
        <ele>14.530481</ele>
        <time>2022-04-09T13:14:39.000Z</time>
      </trkpt>
      <trkpt lat="37.38218" lon="-5.99575">
        <ele>14.542935</ele>
        <time>2022-04-09T13:14:41.000Z</time>
      </trkpt>
      <trkpt lat="37.38211" lon="-5.99585">
        <ele>14.572091</ele>
        <time>2022-04-09T13:14:45.000Z</time>
      </trkpt>
      <trkpt lat="37.38209" lon="-5.99585">
        <ele>14.577215</ele>
        <time>2022-04-09T13:14:46.000Z</time>
      </trkpt>
      <trkpt lat="37.38206" lon="-5.99585">
        <ele>14.5839</ele>
        <time>2022-04-09T13:14:47.000Z</time>
      </trkpt>
      <trkpt lat="37.38204" lon="-5.99584">
        <ele>14.589624</ele>
        <time>2022-04-09T13:14:48.000Z</time>
      </trkpt>
      <trkpt lat="37.38197" lon="-5.9958">
        <ele>14.613758</ele>
        <time>2022-04-09T13:14:52.000Z</time>
      </trkpt>
      <trkpt lat="37.38193" lon="-5.99576">
        <ele>14.626322</ele>
        <time>2022-04-09T13:14:54.000Z</time>
      </trkpt>
      <trkpt lat="37.38189" lon="-5.99573">
        <ele>14.639988</ele>
        <time>2022-04-09T13:14:57.000Z</time>
      </trkpt>
      <trkpt lat="37.38187" lon="-5.99571">
        <ele>14.647516</ele>
        <time>2022-04-09T13:14:59.000Z</time>
      </trkpt>
      <trkpt lat="37.38171" lon="-5.99566">
        <ele>14.692103</ele>
        <time>2022-04-09T13:15:05.000Z</time>
      </trkpt>
      <trkpt lat="37.38155" lon="-5.99553">
        <ele>14.745742</ele>
        <time>2022-04-09T13:15:11.000Z</time>
      </trkpt>
      <trkpt lat="37.38152" lon="-5.99551">
        <ele>14.753908</ele>
        <time>2022-04-09T13:15:12.000Z</time>
      </trkpt>
      <trkpt lat="37.3815" lon="-5.99549">
        <ele>14.762506</ele>
        <time>2022-04-09T13:15:13.000Z</time>
      </trkpt>
      <trkpt lat="37.38147" lon="-5.99548">
        <ele>14.770063</ele>
        <time>2022-04-09T13:15:14.000Z</time>
      </trkpt>
      <trkpt lat="37.3814" lon="-5.99544">
        <ele>14.791714</ele>
        <time>2022-04-09T13:15:18.000Z</time>
      </trkpt>
      <trkpt lat="37.38136" lon="-5.99546">
        <ele>14.804724</ele>
        <time>2022-04-09T13:15:21.000Z</time>
      </trkpt>
      <trkpt lat="37.38136" lon="-5.99548">
        <ele>14.808957</ele>
        <time>2022-04-09T13:15:22.000Z</time>
      </trkpt>
      <trkpt lat="37.38136" lon="-5.9955">
        <ele>14.81319</ele>
        <time>2022-04-09T13:15:23.000Z</time>
      </trkpt>
      <trkpt lat="37.38141" lon="-5.99555">
        <ele>14.83063</ele>
        <time>2022-04-09T13:15:26.000Z</time>
      </trkpt>
      <trkpt lat="37.38147" lon="-5.99558">
        <ele>14.849093</ele>
        <time>2022-04-09T13:15:31.000Z</time>
      </trkpt>
      <trkpt lat="37.38148" lon="-5.99558">
        <ele>14.8505</ele>
        <time>2022-04-09T13:15:33.000Z</time>
      </trkpt>
      <trkpt lat="37.38148" lon="-5.99558">
        <ele>14.8505</ele>
        <time>2022-04-09T13:15:37.000Z</time>
      </trkpt>
      <trkpt lat="37.38145" lon="-5.99561">
        <ele>14.861015</ele>
        <time>2022-04-09T13:15:42.000Z</time>
      </trkpt>
      <trkpt lat="37.38143" lon="-5.99559">
        <ele>14.807507</ele>
        <time>2022-04-09T13:15:45.000Z</time>
      </trkpt>
      <trkpt lat="37.38141" lon="-5.99558">
        <ele>14.775069</ele>
        <time>2022-04-09T13:15:46.000Z</time>
      </trkpt>
      <trkpt lat="37.3814" lon="-5.99557">
        <ele>14.74184</ele>
        <time>2022-04-09T13:15:47.000Z</time>
      </trkpt>
      <trkpt lat="37.38137" lon="-5.99555">
        <ele>14.662699</ele>
        <time>2022-04-09T13:15:49.000Z</time>
      </trkpt>
      <trkpt lat="37.38134" lon="-5.99552">
        <ele>14.556105</ele>
        <time>2022-04-09T13:15:52.000Z</time>
      </trkpt>
      <trkpt lat="37.3813" lon="-5.99549">
        <ele>14.457432</ele>
        <time>2022-04-09T13:15:55.000Z</time>
      </trkpt>
      <trkpt lat="37.38126" lon="-5.99549">
        <ele>14.382984</ele>
        <time>2022-04-09T13:16:00.000Z</time>
      </trkpt>
      <trkpt lat="37.38126" lon="-5.99549">
        <ele>14.368654</ele>
        <time>2022-04-09T13:16:03.000Z</time>
      </trkpt>
      <trkpt lat="37.38126" lon="-5.99549">
        <ele>14.364036</ele>
        <time>2022-04-09T13:16:04.000Z</time>
      </trkpt>
      <trkpt lat="37.38125" lon="-5.99549">
        <ele>14.353286</ele>
        <time>2022-04-09T13:16:07.000Z</time>
      </trkpt>
      <trkpt lat="37.38126" lon="-5.99549">
        <ele>14.334367</ele>
        <time>2022-04-09T13:16:09.000Z</time>
      </trkpt>
      <trkpt lat="37.38126" lon="-5.99548">
        <ele>14.330698</ele>
        <time>2022-04-09T13:16:24.000Z</time>
      </trkpt>
      <trkpt lat="37.38126" lon="-5.99549">
        <ele>14.320761</ele>
        <time>2022-04-09T13:16:30.000Z</time>
      </trkpt>
      <trkpt lat="37.38127" lon="-5.99549">
        <ele>14.293082</ele>
        <time>2022-04-09T13:16:43.000Z</time>
      </trkpt>
      <trkpt lat="37.38127" lon="-5.99549">
        <ele>14.287578</ele>
        <time>2022-04-09T13:16:48.000Z</time>
      </trkpt>
      <trkpt lat="37.38127" lon="-5.9955">
        <ele>14.282074</ele>
        <time>2022-04-09T13:16:51.000Z</time>
      </trkpt>
      <trkpt lat="37.38123" lon="-5.99546">
        <ele>14.161169</ele>
        <time>2022-04-09T13:17:03.000Z</time>
      </trkpt>
      <trkpt lat="37.38121" lon="-5.99544">
        <ele>14.097649</ele>
        <time>2022-04-09T13:17:04.000Z</time>
      </trkpt>
      <trkpt lat="37.38108" lon="-5.99538">
        <ele>13.782293</ele>
        <time>2022-04-09T13:17:09.000Z</time>
      </trkpt>
      <trkpt lat="37.38088" lon="-5.99525">
        <ele>13.274566</ele>
        <time>2022-04-09T13:17:16.000Z</time>
      </trkpt>
      <trkpt lat="37.38085" lon="-5.99524">
        <ele>13.199081</ele>
        <time>2022-04-09T13:17:17.000Z</time>
      </trkpt>
      <trkpt lat="37.38067" lon="-5.99509">
        <ele>12.699736</ele>
        <time>2022-04-09T13:17:23.000Z</time>
      </trkpt>
      <trkpt lat="37.38056" lon="-5.99503">
        <ele>12.421738</ele>
        <time>2022-04-09T13:17:26.000Z</time>
      </trkpt>
      <trkpt lat="37.38044" lon="-5.99495">
        <ele>12.114563</ele>
        <time>2022-04-09T13:17:29.000Z</time>
      </trkpt>
      <trkpt lat="37.38041" lon="-5.99492">
        <ele>12.015124</ele>
        <time>2022-04-09T13:17:30.000Z</time>
      </trkpt>
      <trkpt lat="37.38032" lon="-5.99491">
        <ele>11.806173</ele>
        <time>2022-04-09T13:17:33.000Z</time>
      </trkpt>
      <trkpt lat="37.38017" lon="-5.99485">
        <ele>11.457652</ele>
        <time>2022-04-09T13:17:38.000Z</time>
      </trkpt>
      <trkpt lat="37.37992" lon="-5.99468">
        <ele>10.791718</ele>
        <time>2022-04-09T13:17:46.000Z</time>
      </trkpt>
      <trkpt lat="37.37965" lon="-5.99452">
        <ele>10.706</ele>
        <time>2022-04-09T13:17:54.000Z</time>
      </trkpt>
      <trkpt lat="37.37941" lon="-5.99438">
        <ele>10.70347</ele>
        <time>2022-04-09T13:18:01.000Z</time>
      </trkpt>
      <trkpt lat="37.37923" lon="-5.99426">
        <ele>10.701541</ele>
        <time>2022-04-09T13:18:08.000Z</time>
      </trkpt>
      <trkpt lat="37.3791" lon="-5.99417">
        <ele>10.700066</ele>
        <time>2022-04-09T13:18:13.000Z</time>
      </trkpt>
      <trkpt lat="37.37901" lon="-5.99413">
        <ele>10.699161</ele>
        <time>2022-04-09T13:18:16.000Z</time>
      </trkpt>
      <trkpt lat="37.37898" lon="-5.99412">
        <ele>10.698897</ele>
        <time>2022-04-09T13:18:17.000Z</time>
      </trkpt>
      <trkpt lat="37.37891" lon="-5.99408">
        <ele>10.698124</ele>
        <time>2022-04-09T13:18:19.000Z</time>
      </trkpt>
      <trkpt lat="37.37876" lon="-5.99399">
        <ele>10.696533</ele>
        <time>2022-04-09T13:18:24.000Z</time>
      </trkpt>
      <trkpt lat="37.37873" lon="-5.99397">
        <ele>10.696193</ele>
        <time>2022-04-09T13:18:25.000Z</time>
      </trkpt>
      <trkpt lat="37.37861" lon="-5.9939">
        <ele>10.694943</ele>
        <time>2022-04-09T13:18:29.000Z</time>
      </trkpt>
      <trkpt lat="37.37845" lon="-5.9938">
        <ele>10.693261</ele>
        <time>2022-04-09T13:18:34.000Z</time>
      </trkpt>
      <trkpt lat="37.37826" lon="-5.99368">
        <ele>10.692644</ele>
        <time>2022-04-09T13:18:41.000Z</time>
      </trkpt>
      <trkpt lat="37.37803" lon="-5.99354">
        <ele>10.940344</ele>
        <time>2022-04-09T13:18:49.000Z</time>
      </trkpt>
      <trkpt lat="37.37787" lon="-5.99344">
        <ele>11.11643</ele>
        <time>2022-04-09T13:18:55.000Z</time>
      </trkpt>
      <trkpt lat="37.37782" lon="-5.99341">
        <ele>11.165258</ele>
        <time>2022-04-09T13:18:57.000Z</time>
      </trkpt>
      <trkpt lat="37.37766" lon="-5.99329">
        <ele>11.342856</ele>
        <time>2022-04-09T13:19:04.000Z</time>
      </trkpt>
      <trkpt lat="37.37748" lon="-5.99319">
        <ele>11.5357</ele>
        <time>2022-04-09T13:19:12.000Z</time>
      </trkpt>
      <trkpt lat="37.37745" lon="-5.99318">
        <ele>11.561094</ele>
        <time>2022-04-09T13:19:13.000Z</time>
      </trkpt>
      <trkpt lat="37.37741" lon="-5.99315">
        <ele>11.606667</ele>
        <time>2022-04-09T13:19:15.000Z</time>
      </trkpt>
      <trkpt lat="37.37721" lon="-5.99304">
        <ele>11.819813</ele>
        <time>2022-04-09T13:19:23.000Z</time>
      </trkpt>
      <trkpt lat="37.37707" lon="-5.99298">
        <ele>11.953872</ele>
        <time>2022-04-09T13:19:29.000Z</time>
      </trkpt>
      <trkpt lat="37.37704" lon="-5.99295">
        <ele>11.989237</ele>
        <time>2022-04-09T13:19:31.000Z</time>
      </trkpt>
      <trkpt lat="37.37695" lon="-5.9929">
        <ele>12.09124</ele>
        <time>2022-04-09T13:19:37.000Z</time>
      </trkpt>
      <trkpt lat="37.37681" lon="-5.99285">
        <ele>12.229356</ele>
        <time>2022-04-09T13:19:45.000Z</time>
      </trkpt>
      <trkpt lat="37.37673" lon="-5.99284">
        <ele>12.308217</ele>
        <time>2022-04-09T13:19:49.000Z</time>
      </trkpt>
      <trkpt lat="37.37667" lon="-5.99279">
        <ele>12.376388</ele>
        <time>2022-04-09T13:19:52.000Z</time>
      </trkpt>
      <trkpt lat="37.37661" lon="-5.99272">
        <ele>12.478464</ele>
        <time>2022-04-09T13:19:58.000Z</time>
      </trkpt>
      <trkpt lat="37.37658" lon="-5.99263">
        <ele>12.61386</ele>
        <time>2022-04-09T13:20:03.000Z</time>
      </trkpt>
      <trkpt lat="37.37657" lon="-5.99259">
        <ele>12.676013</ele>
        <time>2022-04-09T13:20:05.000Z</time>
      </trkpt>
      <trkpt lat="37.37651" lon="-5.99248">
        <ele>12.850192</ele>
        <time>2022-04-09T13:20:11.000Z</time>
      </trkpt>
      <trkpt lat="37.37637" lon="-5.99237">
        <ele>13.132315</ele>
        <time>2022-04-09T13:20:19.000Z</time>
      </trkpt>
      <trkpt lat="37.37636" lon="-5.99235">
        <ele>13.172343</ele>
        <time>2022-04-09T13:20:20.000Z</time>
      </trkpt>
      <trkpt lat="37.37624" lon="-5.99227">
        <ele>13.411172</ele>
        <time>2022-04-09T13:20:27.000Z</time>
      </trkpt>
      <trkpt lat="37.37616" lon="-5.99223">
        <ele>13.55875</ele>
        <time>2022-04-09T13:20:32.000Z</time>
      </trkpt>
      <trkpt lat="37.37611" lon="-5.9922">
        <ele>13.648205</ele>
        <time>2022-04-09T13:20:35.000Z</time>
      </trkpt>
      <trkpt lat="37.3761" lon="-5.99219">
        <ele>13.672179</ele>
        <time>2022-04-09T13:20:36.000Z</time>
      </trkpt>
      <trkpt lat="37.37604" lon="-5.99215">
        <ele>13.788733</ele>
        <time>2022-04-09T13:20:40.000Z</time>
      </trkpt>
      <trkpt lat="37.37603" lon="-5.99214">
        <ele>13.818061</ele>
        <time>2022-04-09T13:20:41.000Z</time>
      </trkpt>
      <trkpt lat="37.37592" lon="-5.99204">
        <ele>14.043303</ele>
        <time>2022-04-09T13:20:48.000Z</time>
      </trkpt>
      <trkpt lat="37.37582" lon="-5.99195">
        <ele>14.258596</ele>
        <time>2022-04-09T13:20:54.000Z</time>
      </trkpt>
      <trkpt lat="37.37566" lon="-5.99193">
        <ele>14.536851</ele>
        <time>2022-04-09T13:21:01.000Z</time>
      </trkpt>
      <trkpt lat="37.3756" lon="-5.99195">
        <ele>14.648809</ele>
        <time>2022-04-09T13:21:04.000Z</time>
      </trkpt>
      <trkpt lat="37.37555" lon="-5.99196">
        <ele>14.734757</ele>
        <time>2022-04-09T13:21:07.000Z</time>
      </trkpt>
      <trkpt lat="37.37554" lon="-5.99197">
        <ele>14.753387</ele>
        <time>2022-04-09T13:21:08.000Z</time>
      </trkpt>
      <trkpt lat="37.37553" lon="-5.99197">
        <ele>14.777783</ele>
        <time>2022-04-09T13:21:11.000Z</time>
      </trkpt>
      <trkpt lat="37.37554" lon="-5.99195">
        <ele>14.812654</ele>
        <time>2022-04-09T13:21:17.000Z</time>
      </trkpt>
      <trkpt lat="37.37554" lon="-5.99194">
        <ele>14.824825</ele>
        <time>2022-04-09T13:21:19.000Z</time>
      </trkpt>
      <trkpt lat="37.37555" lon="-5.99194">
        <ele>14.830199</ele>
        <time>2022-04-09T13:21:23.000Z</time>
      </trkpt>
      <trkpt lat="37.37552" lon="-5.99194">
        <ele>14.882594</ele>
        <time>2022-04-09T13:21:47.000Z</time>
      </trkpt>
      <trkpt lat="37.3755" lon="-5.99193">
        <ele>14.906131</ele>
        <time>2022-04-09T13:22:01.000Z</time>
      </trkpt>
      <trkpt lat="37.37553" lon="-5.99192">
        <ele>14.950355</ele>
        <time>2022-04-09T13:22:03.000Z</time>
      </trkpt>
      <trkpt lat="37.3756" lon="-5.99191">
        <ele>15.070957</ele>
        <time>2022-04-09T13:22:06.000Z</time>
      </trkpt>
      <trkpt lat="37.37567" lon="-5.99188">
        <ele>15.198245</ele>
        <time>2022-04-09T13:22:09.000Z</time>
      </trkpt>
      <trkpt lat="37.37575" lon="-5.99186">
        <ele>15.352165</ele>
        <time>2022-04-09T13:22:12.000Z</time>
      </trkpt>
      <trkpt lat="37.37581" lon="-5.99189">
        <ele>15.463448</ele>
        <time>2022-04-09T13:22:14.000Z</time>
      </trkpt>
      <trkpt lat="37.37598" lon="-5.99198">
        <ele>15.600409</ele>
        <time>2022-04-09T13:22:19.000Z</time>
      </trkpt>
      <trkpt lat="37.37625" lon="-5.99215">
        <ele>15.746668</ele>
        <time>2022-04-09T13:22:26.000Z</time>
      </trkpt>
      <trkpt lat="37.37647" lon="-5.99228">
        <ele>15.862925</ele>
        <time>2022-04-09T13:22:32.000Z</time>
      </trkpt>
      <trkpt lat="37.37651" lon="-5.99231">
        <ele>15.884951</ele>
        <time>2022-04-09T13:22:33.000Z</time>
      </trkpt>
      <trkpt lat="37.37666" lon="-5.99243">
        <ele>15.972911</ele>
        <time>2022-04-09T13:22:37.000Z</time>
      </trkpt>
      <trkpt lat="37.37675" lon="-5.99248">
        <ele>16.017822</ele>
        <time>2022-04-09T13:22:39.000Z</time>
      </trkpt>
      <trkpt lat="37.37688" lon="-5.99256">
        <ele>16.089748</ele>
        <time>2022-04-09T13:22:42.000Z</time>
      </trkpt>
      <trkpt lat="37.37706" lon="-5.99266">
        <ele>16.186562</ele>
        <time>2022-04-09T13:22:46.000Z</time>
      </trkpt>
      <trkpt lat="37.37723" lon="-5.99276">
        <ele>16.274123</ele>
        <time>2022-04-09T13:22:50.000Z</time>
      </trkpt>
      <trkpt lat="37.37743" lon="-5.99288">
        <ele>16.382959</ele>
        <time>2022-04-09T13:22:55.000Z</time>
      </trkpt>
      <trkpt lat="37.37747" lon="-5.9929">
        <ele>16.404843</ele>
        <time>2022-04-09T13:22:56.000Z</time>
      </trkpt>
      <trkpt lat="37.37755" lon="-5.99295">
        <ele>16.438654</ele>
        <time>2022-04-09T13:22:58.000Z</time>
      </trkpt>
      <trkpt lat="37.37759" lon="-5.99298">
        <ele>16.455316</ele>
        <time>2022-04-09T13:22:59.000Z</time>
      </trkpt>
      <trkpt lat="37.37771" lon="-5.99305">
        <ele>16.508561</ele>
        <time>2022-04-09T13:23:02.000Z</time>
      </trkpt>
      <trkpt lat="37.37787" lon="-5.99315">
        <ele>16.577087</ele>
        <time>2022-04-09T13:23:06.000Z</time>
      </trkpt>
      <trkpt lat="37.37795" lon="-5.99319">
        <ele>16.612083</ele>
        <time>2022-04-09T13:23:08.000Z</time>
      </trkpt>
      <trkpt lat="37.37799" lon="-5.99322">
        <ele>16.630007</ele>
        <time>2022-04-09T13:23:09.000Z</time>
      </trkpt>
      <trkpt lat="37.37808" lon="-5.99327">
        <ele>16.666113</ele>
        <time>2022-04-09T13:23:11.000Z</time>
      </trkpt>
      <trkpt lat="37.37834" lon="-5.99343">
        <ele>16.777773</ele>
        <time>2022-04-09T13:23:17.000Z</time>
      </trkpt>
      <trkpt lat="37.37864" lon="-5.99359">
        <ele>16.906912</ele>
        <time>2022-04-09T13:23:24.000Z</time>
      </trkpt>
      <trkpt lat="37.37884" lon="-5.99373">
        <ele>16.993882</ele>
        <time>2022-04-09T13:23:29.000Z</time>
      </trkpt>
      <trkpt lat="37.37892" lon="-5.99378">
        <ele>17.029154</ele>
        <time>2022-04-09T13:23:31.000Z</time>
      </trkpt>
      <trkpt lat="37.37896" lon="-5.9938">
        <ele>17.046243</ele>
        <time>2022-04-09T13:23:32.000Z</time>
      </trkpt>
      <trkpt lat="37.37909" lon="-5.9939">
        <ele>17.107596</ele>
        <time>2022-04-09T13:23:36.000Z</time>
      </trkpt>
      <trkpt lat="37.37914" lon="-5.99392">
        <ele>17.12849</ele>
        <time>2022-04-09T13:23:37.000Z</time>
      </trkpt>
      <trkpt lat="37.37917" lon="-5.99394">
        <ele>17.143499</ele>
        <time>2022-04-09T13:23:38.000Z</time>
      </trkpt>
      <trkpt lat="37.3792" lon="-5.99395">
        <ele>17.157122</ele>
        <time>2022-04-09T13:23:39.000Z</time>
      </trkpt>
      <trkpt lat="37.37942" lon="-5.99411">
        <ele>17.268435</ele>
        <time>2022-04-09T13:23:46.000Z</time>
      </trkpt>
      <trkpt lat="37.3796" lon="-5.99422">
        <ele>17.359185</ele>
        <time>2022-04-09T13:23:51.000Z</time>
      </trkpt>
      <trkpt lat="37.37972" lon="-5.99428">
        <ele>17.415988</ele>
        <time>2022-04-09T13:23:54.000Z</time>
      </trkpt>
      <trkpt lat="37.37999" lon="-5.99445">
        <ele>17.551724</ele>
        <time>2022-04-09T13:24:01.000Z</time>
      </trkpt>
      <trkpt lat="37.38015" lon="-5.99453">
        <ele>17.628127</ele>
        <time>2022-04-09T13:24:05.000Z</time>
      </trkpt>
      <trkpt lat="37.3803" lon="-5.99461">
        <ele>17.698123</ele>
        <time>2022-04-09T13:24:09.000Z</time>
      </trkpt>
      <trkpt lat="37.38037" lon="-5.99465">
        <ele>17.733665</ele>
        <time>2022-04-09T13:24:11.000Z</time>
      </trkpt>
      <trkpt lat="37.38045" lon="-5.99469">
        <ele>17.770161</ele>
        <time>2022-04-09T13:24:13.000Z</time>
      </trkpt>
      <trkpt lat="37.38069" lon="-5.99485">
        <ele>17.890092</ele>
        <time>2022-04-09T13:24:20.000Z</time>
      </trkpt>
      <trkpt lat="37.38081" lon="-5.99495">
        <ele>17.698116</ele>
        <time>2022-04-09T13:24:24.000Z</time>
      </trkpt>
      <trkpt lat="37.38088" lon="-5.99499">
        <ele>17.582009</ele>
        <time>2022-04-09T13:24:26.000Z</time>
      </trkpt>
      <trkpt lat="37.38095" lon="-5.99504">
        <ele>17.466885</ele>
        <time>2022-04-09T13:24:28.000Z</time>
      </trkpt>
      <trkpt lat="37.38104" lon="-5.99511">
        <ele>17.297417</ele>
        <time>2022-04-09T13:24:31.000Z</time>
      </trkpt>
      <trkpt lat="37.38115" lon="-5.9952">
        <ele>17.088906</ele>
        <time>2022-04-09T13:24:35.000Z</time>
      </trkpt>
      <trkpt lat="37.38119" lon="-5.99534">
        <ele>16.910036</ele>
        <time>2022-04-09T13:24:39.000Z</time>
      </trkpt>
      <trkpt lat="37.38125" lon="-5.99544">
        <ele>16.751558</ele>
        <time>2022-04-09T13:24:43.000Z</time>
      </trkpt>
      <trkpt lat="37.3813" lon="-5.99555">
        <ele>16.600596</ele>
        <time>2022-04-09T13:24:48.000Z</time>
      </trkpt>
      <trkpt lat="37.38132" lon="-5.99556">
        <ele>16.573795</ele>
        <time>2022-04-09T13:24:49.000Z</time>
      </trkpt>
      <trkpt lat="37.38134" lon="-5.99556">
        <ele>16.53204</ele>
        <time>2022-04-09T13:24:53.000Z</time>
      </trkpt>
      <trkpt lat="37.38134" lon="-5.99556">
        <ele>16.53204</ele>
        <time>2022-04-09T13:25:03.000Z</time>
      </trkpt>
      <trkpt lat="37.38134" lon="-5.99556">
        <ele>16.53204</ele>
        <time>2022-04-09T13:25:07.000Z</time>
      </trkpt>
      <trkpt lat="37.38135" lon="-5.99556">
        <ele>16.526799</ele>
        <time>2022-04-09T13:25:08.000Z</time>
      </trkpt>
      <trkpt lat="37.38143" lon="-5.99561">
        <ele>16.377314</ele>
        <time>2022-04-09T13:25:11.000Z</time>
      </trkpt>
      <trkpt lat="37.38164" lon="-5.99579">
        <ele>15.989211</ele>
        <time>2022-04-09T13:25:16.000Z</time>
      </trkpt>
      <trkpt lat="37.38169" lon="-5.99583">
        <ele>15.904861</ele>
        <time>2022-04-09T13:25:17.000Z</time>
      </trkpt>
      <trkpt lat="37.38189" lon="-5.99604">
        <ele>15.497997</ele>
        <time>2022-04-09T13:25:22.000Z</time>
      </trkpt>
      <trkpt lat="37.38196" lon="-5.99614">
        <ele>15.338396</ele>
        <time>2022-04-09T13:25:24.000Z</time>
      </trkpt>
      <trkpt lat="37.382" lon="-5.99618">
        <ele>15.257844</ele>
        <time>2022-04-09T13:25:25.000Z</time>
      </trkpt>
      <trkpt lat="37.3821" lon="-5.99632">
        <ele>15.046092</ele>
        <time>2022-04-09T13:25:28.000Z</time>
      </trkpt>
      <trkpt lat="37.38219" lon="-5.99643">
        <ele>14.895393</ele>
        <time>2022-04-09T13:25:30.000Z</time>
      </trkpt>
      <trkpt lat="37.38232" lon="-5.99656">
        <ele>14.700441</ele>
        <time>2022-04-09T13:25:33.000Z</time>
      </trkpt>
      <trkpt lat="37.38236" lon="-5.99661">
        <ele>14.634136</ele>
        <time>2022-04-09T13:25:34.000Z</time>
      </trkpt>
      <trkpt lat="37.38258" lon="-5.99681">
        <ele>14.312309</ele>
        <time>2022-04-09T13:25:39.000Z</time>
      </trkpt>
      <trkpt lat="37.38274" lon="-5.99696">
        <ele>14.078139</ele>
        <time>2022-04-09T13:25:43.000Z</time>
      </trkpt>
      <trkpt lat="37.38309" lon="-5.99727">
        <ele>13.562811</ele>
        <time>2022-04-09T13:25:52.000Z</time>
      </trkpt>
      <trkpt lat="37.38337" lon="-5.99758">
        <ele>13.124852</ele>
        <time>2022-04-09T13:26:00.000Z</time>
      </trkpt>
      <trkpt lat="37.38343" lon="-5.99765">
        <ele>13.019587</ele>
        <time>2022-04-09T13:26:02.000Z</time>
      </trkpt>
      <trkpt lat="37.38372" lon="-5.99795">
        <ele>13.090009</ele>
        <time>2022-04-09T13:26:10.000Z</time>
      </trkpt>
      <trkpt lat="37.38375" lon="-5.99799">
        <ele>13.104778</ele>
        <time>2022-04-09T13:26:11.000Z</time>
      </trkpt>
      <trkpt lat="37.38389" lon="-5.99814">
        <ele>13.164513</ele>
        <time>2022-04-09T13:26:15.000Z</time>
      </trkpt>
      <trkpt lat="37.38406" lon="-5.99834">
        <ele>13.240039</ele>
        <time>2022-04-09T13:26:20.000Z</time>
      </trkpt>
      <trkpt lat="37.3844" lon="-5.99872">
        <ele>13.386615</ele>
        <time>2022-04-09T13:26:30.000Z</time>
      </trkpt>
      <trkpt lat="37.3847" lon="-5.99903">
        <ele>13.513517</ele>
        <time>2022-04-09T13:26:39.000Z</time>
      </trkpt>
      <trkpt lat="37.38484" lon="-5.99919">
        <ele>13.576943</ele>
        <time>2022-04-09T13:26:43.000Z</time>
      </trkpt>
      <trkpt lat="37.38514" lon="-5.99952">
        <ele>13.729052</ele>
        <time>2022-04-09T13:26:52.000Z</time>
      </trkpt>
      <trkpt lat="37.38518" lon="-5.99955">
        <ele>13.74577</ele>
        <time>2022-04-09T13:26:53.000Z</time>
      </trkpt>
      <trkpt lat="37.38524" lon="-5.99963">
        <ele>13.779052</ele>
        <time>2022-04-09T13:26:55.000Z</time>
      </trkpt>
      <trkpt lat="37.38539" lon="-5.9998">
        <ele>13.855856</ele>
        <time>2022-04-09T13:27:00.000Z</time>
      </trkpt>
      <trkpt lat="37.38562" lon="-6.00007">
        <ele>13.974728</ele>
        <time>2022-04-09T13:27:08.000Z</time>
      </trkpt>
      <trkpt lat="37.38582" lon="-6.00031">
        <ele>14.080802</ele>
        <time>2022-04-09T13:27:15.000Z</time>
      </trkpt>
      <trkpt lat="37.38602" lon="-6.00049">
        <ele>14.173378</ele>
        <time>2022-04-09T13:27:22.000Z</time>
      </trkpt>
      <trkpt lat="37.38625" lon="-6.00076">
        <ele>14.344366</ele>
        <time>2022-04-09T13:27:30.000Z</time>
      </trkpt>
      <trkpt lat="37.38644" lon="-6.00104">
        <ele>14.585782</ele>
        <time>2022-04-09T13:27:37.000Z</time>
      </trkpt>
      <trkpt lat="37.3865" lon="-6.00116">
        <ele>14.679831</ele>
        <time>2022-04-09T13:27:40.000Z</time>
      </trkpt>
      <trkpt lat="37.3866" lon="-6.00133">
        <ele>14.81615</ele>
        <time>2022-04-09T13:27:44.000Z</time>
      </trkpt>
      <trkpt lat="37.38677" lon="-6.00163">
        <ele>15.060501</ele>
        <time>2022-04-09T13:27:51.000Z</time>
      </trkpt>
      <trkpt lat="37.38682" lon="-6.0017">
        <ele>15.118167</ele>
        <time>2022-04-09T13:27:53.000Z</time>
      </trkpt>
      <trkpt lat="37.38687" lon="-6.0018">
        <ele>15.192816</ele>
        <time>2022-04-09T13:27:55.000Z</time>
      </trkpt>
      <trkpt lat="37.38688" lon="-6.00184">
        <ele>15.224023</ele>
        <time>2022-04-09T13:27:56.000Z</time>
      </trkpt>
      <trkpt lat="37.38701" lon="-6.00209">
        <ele>15.416946</ele>
        <time>2022-04-09T13:28:02.000Z</time>
      </trkpt>
      <trkpt lat="37.38711" lon="-6.00223">
        <ele>15.537088</ele>
        <time>2022-04-09T13:28:06.000Z</time>
      </trkpt>
      <trkpt lat="37.38719" lon="-6.00232">
        <ele>15.624259</ele>
        <time>2022-04-09T13:28:09.000Z</time>
      </trkpt>
      <trkpt lat="37.38737" lon="-6.00255">
        <ele>15.809505</ele>
        <time>2022-04-09T13:28:16.000Z</time>
      </trkpt>
      <trkpt lat="37.38739" lon="-6.00257">
        <ele>15.829457</ele>
        <time>2022-04-09T13:28:17.000Z</time>
      </trkpt>
      <trkpt lat="37.38744" lon="-6.00262">
        <ele>15.866108</ele>
        <time>2022-04-09T13:28:19.000Z</time>
      </trkpt>
      <trkpt lat="37.38755" lon="-6.00274">
        <ele>15.959742</ele>
        <time>2022-04-09T13:28:24.000Z</time>
      </trkpt>
      <trkpt lat="37.3876" lon="-6.0028">
        <ele>16.002657</ele>
        <time>2022-04-09T13:28:27.000Z</time>
      </trkpt>
      <trkpt lat="37.38765" lon="-6.00286">
        <ele>16.047751</ele>
        <time>2022-04-09T13:28:30.000Z</time>
      </trkpt>
      <trkpt lat="37.38769" lon="-6.00289">
        <ele>16.074882</ele>
        <time>2022-04-09T13:28:33.000Z</time>
      </trkpt>
      <trkpt lat="37.38778" lon="-6.00289">
        <ele>16.130708</ele>
        <time>2022-04-09T13:28:36.000Z</time>
      </trkpt>
      <trkpt lat="37.38784" lon="-6.00292">
        <ele>16.173028</ele>
        <time>2022-04-09T13:28:38.000Z</time>
      </trkpt>
      <trkpt lat="37.38788" lon="-6.00295">
        <ele>16.204216</ele>
        <time>2022-04-09T13:28:39.000Z</time>
      </trkpt>
      <trkpt lat="37.38799" lon="-6.00303">
        <ele>16.284375</ele>
        <time>2022-04-09T13:28:42.000Z</time>
      </trkpt>
      <trkpt lat="37.38808" lon="-6.00305">
        <ele>16.341289</ele>
        <time>2022-04-09T13:28:44.000Z</time>
      </trkpt>
      <trkpt lat="37.38836" lon="-6.00315">
        <ele>16.528707</ele>
        <time>2022-04-09T13:28:50.000Z</time>
      </trkpt>
      <trkpt lat="37.38841" lon="-6.00315">
        <ele>16.557365</ele>
        <time>2022-04-09T13:28:51.000Z</time>
      </trkpt>
      <trkpt lat="37.38869" lon="-6.00322">
        <ele>16.738654</ele>
        <time>2022-04-09T13:28:58.000Z</time>
      </trkpt>
      <trkpt lat="37.38889" lon="-6.0033">
        <ele>16.875713</ele>
        <time>2022-04-09T13:29:03.000Z</time>
      </trkpt>
      <trkpt lat="37.38907" lon="-6.00342">
        <ele>17.09908</ele>
        <time>2022-04-09T13:29:07.000Z</time>
      </trkpt>
      <trkpt lat="37.38918" lon="-6.0035">
        <ele>17.230055</ele>
        <time>2022-04-09T13:29:10.000Z</time>
      </trkpt>
      <trkpt lat="37.38924" lon="-6.0035">
        <ele>17.291417</ele>
        <time>2022-04-09T13:29:12.000Z</time>
      </trkpt>
      <trkpt lat="37.38935" lon="-6.00358">
        <ele>17.426779</ele>
        <time>2022-04-09T13:29:15.000Z</time>
      </trkpt>
      <trkpt lat="37.38938" lon="-6.00358">
        <ele>17.464414</ele>
        <time>2022-04-09T13:29:16.000Z</time>
      </trkpt>
      <trkpt lat="37.38948" lon="-6.00356">
        <ele>17.567606</ele>
        <time>2022-04-09T13:29:20.000Z</time>
      </trkpt>
      <trkpt lat="37.38951" lon="-6.00356">
        <ele>17.603049</ele>
        <time>2022-04-09T13:29:21.000Z</time>
      </trkpt>
      <trkpt lat="37.38963" lon="-6.00363">
        <ele>17.743251</ele>
        <time>2022-04-09T13:29:26.000Z</time>
      </trkpt>
      <trkpt lat="37.38962" lon="-6.00371">
        <ele>17.809101</ele>
        <time>2022-04-09T13:29:30.000Z</time>
      </trkpt>
      <trkpt lat="37.38973" lon="-6.00373">
        <ele>17.922783</ele>
        <time>2022-04-09T13:29:34.000Z</time>
      </trkpt>
      <trkpt lat="37.38976" lon="-6.00374">
        <ele>17.954632</ele>
        <time>2022-04-09T13:29:35.000Z</time>
      </trkpt>
      <trkpt lat="37.39004" lon="-6.00382">
        <ele>18.270165</ele>
        <time>2022-04-09T13:29:44.000Z</time>
      </trkpt>
      <trkpt lat="37.39018" lon="-6.00383">
        <ele>18.416265</ele>
        <time>2022-04-09T13:29:48.000Z</time>
      </trkpt>
      <trkpt lat="37.39027" lon="-6.00383">
        <ele>18.517106</ele>
        <time>2022-04-09T13:29:51.000Z</time>
      </trkpt>
      <trkpt lat="37.39035" lon="-6.00383">
        <ele>18.595423</ele>
        <time>2022-04-09T13:29:54.000Z</time>
      </trkpt>
      <trkpt lat="37.39035" lon="-6.00383">
        <ele>18.601052</ele>
        <time>2022-04-09T13:29:55.000Z</time>
      </trkpt>
      <trkpt lat="37.39035" lon="-6.00383">
        <ele>18.601052</ele>
        <time>2022-04-09T13:29:57.000Z</time>
      </trkpt>
      <trkpt lat="37.39035" lon="-6.00383">
        <ele>18.601052</ele>
        <time>2022-04-09T13:29:59.000Z</time>
      </trkpt>
      <trkpt lat="37.39035" lon="-6.00383">
        <ele>18.601052</ele>
        <time>2022-04-09T13:30:04.000Z</time>
      </trkpt>
      <trkpt lat="37.39035" lon="-6.00383">
        <ele>18.601052</ele>
        <time>2022-04-09T13:30:07.000Z</time>
      </trkpt>
      <trkpt lat="37.39035" lon="-6.00383">
        <ele>18.601052</ele>
        <time>2022-04-09T13:30:09.000Z</time>
      </trkpt>
      <trkpt lat="37.39035" lon="-6.00383">
        <ele>18.603792</ele>
        <time>2022-04-09T13:30:21.000Z</time>
      </trkpt>
      <trkpt lat="37.39038" lon="-6.00378">
        <ele>18.653227</ele>
        <time>2022-04-09T13:30:23.000Z</time>
      </trkpt>
      <trkpt lat="37.39045" lon="-6.00365">
        <ele>18.789093</ele>
        <time>2022-04-09T13:30:28.000Z</time>
      </trkpt>
      <trkpt lat="37.39047" lon="-6.00343">
        <ele>18.818003</ele>
        <time>2022-04-09T13:30:34.000Z</time>
      </trkpt>
      <trkpt lat="37.39047" lon="-6.00333">
        <ele>18.829491</ele>
        <time>2022-04-09T13:30:38.000Z</time>
      </trkpt>
      <trkpt lat="37.39049" lon="-6.00323">
        <ele>18.840743</ele>
        <time>2022-04-09T13:30:42.000Z</time>
      </trkpt>
      <trkpt lat="37.3905" lon="-6.00321">
        <ele>18.844008</ele>
        <time>2022-04-09T13:30:43.000Z</time>
      </trkpt>
      <trkpt lat="37.3905" lon="-6.0032">
        <ele>18.844677</ele>
        <time>2022-04-09T13:30:46.000Z</time>
      </trkpt>
      <trkpt lat="37.3905" lon="-6.0032">
        <ele>18.844677</ele>
        <time>2022-04-09T13:30:51.000Z</time>
      </trkpt>
      <trkpt lat="37.3905" lon="-6.0032">
        <ele>18.844677</ele>
        <time>2022-04-09T13:30:54.000Z</time>
      </trkpt>
      <trkpt lat="37.3905" lon="-6.0032">
        <ele>18.845145</ele>
        <time>2022-04-09T13:31:01.000Z</time>
      </trkpt>
      <trkpt lat="37.3905" lon="-6.0032">
        <ele>18.845145</ele>
        <time>2022-04-09T13:31:04.000Z</time>
      </trkpt>
      <trkpt lat="37.3905" lon="-6.0032">
        <ele>18.845145</ele>
        <time>2022-04-09T13:31:08.000Z</time>
      </trkpt>
      <trkpt lat="37.3905" lon="-6.0032">
        <ele>18.845145</ele>
        <time>2022-04-09T13:31:09.000Z</time>
      </trkpt>
      <trkpt lat="37.3905" lon="-6.0032">
        <ele>18.845145</ele>
        <time>2022-04-09T13:31:12.000Z</time>
      </trkpt>
      <trkpt lat="37.3905" lon="-6.00318">
        <ele>18.846731</ele>
        <time>2022-04-09T13:31:14.000Z</time>
      </trkpt>
      <trkpt lat="37.39051" lon="-6.00316">
        <ele>18.849067</ele>
        <time>2022-04-09T13:31:17.000Z</time>
      </trkpt>
      <trkpt lat="37.39051" lon="-6.00316">
        <ele>18.849067</ele>
        <time>2022-04-09T13:31:21.000Z</time>
      </trkpt>
      <trkpt lat="37.39051" lon="-6.00316">
        <ele>18.849067</ele>
        <time>2022-04-09T13:31:25.000Z</time>
      </trkpt>
      <trkpt lat="37.39051" lon="-6.00316">
        <ele>18.849067</ele>
        <time>2022-04-09T13:32:10.000Z</time>
      </trkpt>
      <trkpt lat="37.39051" lon="-6.00316">
        <ele>18.849067</ele>
        <time>2022-04-09T13:32:12.000Z</time>
      </trkpt>
      <trkpt lat="37.39051" lon="-6.00316">
        <ele>18.849067</ele>
        <time>2022-04-09T13:32:49.000Z</time>
      </trkpt>
      <trkpt lat="37.39051" lon="-6.00317">
        <ele>18.849331</ele>
        <time>2022-04-09T13:33:12.000Z</time>
      </trkpt>
      <trkpt lat="37.39051" lon="-6.00317">
        <ele>18.849594</ele>
        <time>2022-04-09T13:33:15.000Z</time>
      </trkpt>
      <trkpt lat="37.39051" lon="-6.00317">
        <ele>18.849594</ele>
        <time>2022-04-09T13:33:17.000Z</time>
      </trkpt>
      <trkpt lat="37.39051" lon="-6.00317">
        <ele>18.849594</ele>
        <time>2022-04-09T13:33:20.000Z</time>
      </trkpt>
      <trkpt lat="37.39051" lon="-6.00317">
        <ele>18.849594</ele>
        <time>2022-04-09T13:33:22.000Z</time>
      </trkpt>
      <trkpt lat="37.39051" lon="-6.00317">
        <ele>18.849594</ele>
        <time>2022-04-09T13:33:27.000Z</time>
      </trkpt>
      <trkpt lat="37.39051" lon="-6.00317">
        <ele>18.849594</ele>
        <time>2022-04-09T13:33:44.000Z</time>
      </trkpt>
      <trkpt lat="37.39051" lon="-6.00317">
        <ele>18.849594</ele>
        <time>2022-04-09T13:33:56.000Z</time>
      </trkpt>
      <trkpt lat="37.39051" lon="-6.00317">
        <ele>18.849594</ele>
        <time>2022-04-09T13:34:09.000Z</time>
      </trkpt>
      <trkpt lat="37.39051" lon="-6.00317">
        <ele>18.849594</ele>
        <time>2022-04-09T13:34:20.000Z</time>
      </trkpt>
      <trkpt lat="37.39051" lon="-6.00317">
        <ele>18.849594</ele>
        <time>2022-04-09T13:34:44.000Z</time>
      </trkpt>
      <trkpt lat="37.39051" lon="-6.00317">
        <ele>18.849594</ele>
        <time>2022-04-09T13:34:45.000Z</time>
      </trkpt>
      <trkpt lat="37.39051" lon="-6.00317">
        <ele>18.849735</ele>
        <time>2022-04-09T13:35:12.000Z</time>
      </trkpt>
      <trkpt lat="37.39051" lon="-6.00317">
        <ele>18.849875</ele>
        <time>2022-04-09T13:35:17.000Z</time>
      </trkpt>
      <trkpt lat="37.39052" lon="-6.00317">
        <ele>18.850479</ele>
        <time>2022-04-09T13:35:27.000Z</time>
      </trkpt>
      <trkpt lat="37.39052" lon="-6.00317">
        <ele>18.850479</ele>
        <time>2022-04-09T13:35:31.000Z</time>
      </trkpt>
      <trkpt lat="37.39052" lon="-6.00317">
        <ele>18.850479</ele>
        <time>2022-04-09T13:35:35.000Z</time>
      </trkpt>
      <trkpt lat="37.39052" lon="-6.00317">
        <ele>18.850479</ele>
        <time>2022-04-09T13:36:06.000Z</time>
      </trkpt>
      <trkpt lat="37.39052" lon="-6.00317">
        <ele>18.850479</ele>
        <time>2022-04-09T13:36:25.000Z</time>
      </trkpt>
      <trkpt lat="37.39052" lon="-6.00317">
        <ele>18.850479</ele>
        <time>2022-04-09T13:36:51.000Z</time>
      </trkpt>
      <trkpt lat="37.39052" lon="-6.00317">
        <ele>18.850479</ele>
        <time>2022-04-09T13:36:53.000Z</time>
      </trkpt>
      <trkpt lat="37.39052" lon="-6.00317">
        <ele>18.850479</ele>
        <time>2022-04-09T13:37:00.000Z</time>
      </trkpt>
      <trkpt lat="37.39051" lon="-6.00317">
        <ele>18.851052</ele>
        <time>2022-04-09T13:37:10.000Z</time>
      </trkpt>
      <trkpt lat="37.39051" lon="-6.00317">
        <ele>18.851163</ele>
        <time>2022-04-09T13:37:20.000Z</time>
      </trkpt>
      <trkpt lat="37.39051" lon="-6.00317">
        <ele>18.851342</ele>
        <time>2022-04-09T13:37:27.000Z</time>
      </trkpt>
      <trkpt lat="37.39052" lon="-6.00317">
        <ele>18.851763</ele>
        <time>2022-04-09T13:37:34.000Z</time>
      </trkpt>
      <trkpt lat="37.39051" lon="-6.00316">
        <ele>18.852637</ele>
        <time>2022-04-09T13:37:56.000Z</time>
      </trkpt>
      <trkpt lat="37.39052" lon="-6.00315">
        <ele>18.85432</ele>
        <time>2022-04-09T13:38:15.000Z</time>
      </trkpt>
      <trkpt lat="37.39052" lon="-6.00315">
        <ele>18.85432</ele>
        <time>2022-04-09T13:38:21.000Z</time>
      </trkpt>
      <trkpt lat="37.39052" lon="-6.00315">
        <ele>18.85432</ele>
        <time>2022-04-09T13:38:27.000Z</time>
      </trkpt>
      <trkpt lat="37.39052" lon="-6.00315">
        <ele>18.85432</ele>
        <time>2022-04-09T13:38:30.000Z</time>
      </trkpt>
      <trkpt lat="37.39052" lon="-6.00315">
        <ele>18.85432</ele>
        <time>2022-04-09T13:38:33.000Z</time>
      </trkpt>
      <trkpt lat="37.39052" lon="-6.00315">
        <ele>18.85432</ele>
        <time>2022-04-09T13:38:49.000Z</time>
      </trkpt>
      <trkpt lat="37.39052" lon="-6.00315">
        <ele>18.85432</ele>
        <time>2022-04-09T13:38:52.000Z</time>
      </trkpt>
      <trkpt lat="37.39052" lon="-6.00315">
        <ele>18.85432</ele>
        <time>2022-04-09T13:38:56.000Z</time>
      </trkpt>
      <trkpt lat="37.39052" lon="-6.00313">
        <ele>18.857164</ele>
        <time>2022-04-09T13:39:04.000Z</time>
      </trkpt>
      <trkpt lat="37.39052" lon="-6.00311">
        <ele>18.858954</ele>
        <time>2022-04-09T13:39:07.000Z</time>
      </trkpt>
      <trkpt lat="37.39052" lon="-6.00311">
        <ele>18.859065</ele>
        <time>2022-04-09T13:39:17.000Z</time>
      </trkpt>
      <trkpt lat="37.39052" lon="-6.00311">
        <ele>18.859858</ele>
        <time>2022-04-09T13:39:33.000Z</time>
      </trkpt>
      <trkpt lat="37.39051" lon="-6.00311">
        <ele>18.860708</ele>
        <time>2022-04-09T13:39:58.000Z</time>
      </trkpt>
      <trkpt lat="37.39051" lon="-6.0031">
        <ele>18.861067</ele>
        <time>2022-04-09T13:40:09.000Z</time>
      </trkpt>
      <trkpt lat="37.39059" lon="-6.0031">
        <ele>18.872052</ele>
        <time>2022-04-09T13:40:12.000Z</time>
      </trkpt>
      <trkpt lat="37.39063" lon="-6.00312">
        <ele>18.877646</ele>
        <time>2022-04-09T13:40:15.000Z</time>
      </trkpt>
      <trkpt lat="37.39066" lon="-6.00316">
        <ele>18.884029</ele>
        <time>2022-04-09T13:40:17.000Z</time>
      </trkpt>
      <trkpt lat="37.39075" lon="-6.00323">
        <ele>18.898583</ele>
        <time>2022-04-09T13:40:21.000Z</time>
      </trkpt>
      <trkpt lat="37.39083" lon="-6.00325">
        <ele>18.909894</ele>
        <time>2022-04-09T13:40:24.000Z</time>
      </trkpt>
      <trkpt lat="37.39095" lon="-6.00321">
        <ele>18.927237</ele>
        <time>2022-04-09T13:40:29.000Z</time>
      </trkpt>
      <trkpt lat="37.39109" lon="-6.00325">
        <ele>18.947752</ele>
        <time>2022-04-09T13:40:34.000Z</time>
      </trkpt>
      <trkpt lat="37.39125" lon="-6.00329">
        <ele>18.970193</ele>
        <time>2022-04-09T13:40:39.000Z</time>
      </trkpt>
      <trkpt lat="37.39128" lon="-6.0033">
        <ele>18.974635</ele>
        <time>2022-04-09T13:40:40.000Z</time>
      </trkpt>
      <trkpt lat="37.39142" lon="-6.0033">
        <ele>18.995003</ele>
        <time>2022-04-09T13:40:44.000Z</time>
      </trkpt>
      <trkpt lat="37.39157" lon="-6.00331">
        <ele>19.015921</ele>
        <time>2022-04-09T13:40:48.000Z</time>
      </trkpt>
      <trkpt lat="37.39188" lon="-6.00344">
        <ele>18.940541</ele>
        <time>2022-04-09T13:40:56.000Z</time>
      </trkpt>
      <trkpt lat="37.39225" lon="-6.00358">
        <ele>18.568544</ele>
        <time>2022-04-09T13:41:04.000Z</time>
      </trkpt>
      <trkpt lat="37.39255" lon="-6.00366">
        <ele>18.263112</ele>
        <time>2022-04-09T13:41:11.000Z</time>
      </trkpt>
      <trkpt lat="37.39259" lon="-6.00368">
        <ele>18.217532</ele>
        <time>2022-04-09T13:41:12.000Z</time>
      </trkpt>
      <trkpt lat="37.39278" lon="-6.00375">
        <ele>18.032449</ele>
        <time>2022-04-09T13:41:16.000Z</time>
      </trkpt>
      <trkpt lat="37.39282" lon="-6.00376">
        <ele>17.98877</ele>
        <time>2022-04-09T13:41:17.000Z</time>
      </trkpt>
      <trkpt lat="37.39286" lon="-6.00377">
        <ele>17.949771</ele>
        <time>2022-04-09T13:41:18.000Z</time>
      </trkpt>
      <trkpt lat="37.39299" lon="-6.00383">
        <ele>17.813702</ele>
        <time>2022-04-09T13:41:22.000Z</time>
      </trkpt>
      <trkpt lat="37.39303" lon="-6.00388">
        <ele>17.755399</ele>
        <time>2022-04-09T13:41:24.000Z</time>
      </trkpt>
      <trkpt lat="37.39304" lon="-6.00392">
        <ele>17.721777</ele>
        <time>2022-04-09T13:41:26.000Z</time>
      </trkpt>
      <trkpt lat="37.39304" lon="-6.00393">
        <ele>17.713158</ele>
        <time>2022-04-09T13:41:27.000Z</time>
      </trkpt>
      <trkpt lat="37.39304" lon="-6.00394">
        <ele>17.70187</ele>
        <time>2022-04-09T13:41:28.000Z</time>
      </trkpt>
      <trkpt lat="37.39302" lon="-6.00398">
        <ele>17.671365</ele>
        <time>2022-04-09T13:41:30.000Z</time>
      </trkpt>
      <trkpt lat="37.39302" lon="-6.004">
        <ele>17.657562</ele>
        <time>2022-04-09T13:41:31.000Z</time>
      </trkpt>
      <trkpt lat="37.39303" lon="-6.00402">
        <ele>17.633246</ele>
        <time>2022-04-09T13:41:34.000Z</time>
      </trkpt>
      <trkpt lat="37.39303" lon="-6.00402">
        <ele>17.633246</ele>
        <time>2022-04-09T13:41:41.000Z</time>
      </trkpt>
      <trkpt lat="37.39303" lon="-6.00402">
        <ele>17.633246</ele>
        <time>2022-04-09T13:41:47.000Z</time>
      </trkpt>
      <trkpt lat="37.39303" lon="-6.00402">
        <ele>17.633246</ele>
        <time>2022-04-09T13:41:53.000Z</time>
      </trkpt>
      <trkpt lat="37.39303" lon="-6.00402">
        <ele>17.633246</ele>
        <time>2022-04-09T13:42:01.000Z</time>
      </trkpt>
      <trkpt lat="37.39303" lon="-6.00402">
        <ele>17.633246</ele>
        <time>2022-04-09T13:42:03.000Z</time>
      </trkpt>
      <trkpt lat="37.39303" lon="-6.00402">
        <ele>17.630306</ele>
        <time>2022-04-09T13:42:05.000Z</time>
      </trkpt>
      <trkpt lat="37.3931" lon="-6.00403">
        <ele>17.570455</ele>
        <time>2022-04-09T13:42:08.000Z</time>
      </trkpt>
      <trkpt lat="37.39317" lon="-6.00406">
        <ele>17.495448</ele>
        <time>2022-04-09T13:42:13.000Z</time>
      </trkpt>
      <trkpt lat="37.39316" lon="-6.00414">
        <ele>17.430096</ele>
        <time>2022-04-09T13:42:19.000Z</time>
      </trkpt>
      <trkpt lat="37.39315" lon="-6.00429">
        <ele>17.316232</ele>
        <time>2022-04-09T13:42:22.000Z</time>
      </trkpt>
      <trkpt lat="37.39315" lon="-6.00434">
        <ele>17.252062</ele>
        <time>2022-04-09T13:42:23.000Z</time>
      </trkpt>
      <trkpt lat="37.39314" lon="-6.00447">
        <ele>17.035552</ele>
        <time>2022-04-09T13:42:25.000Z</time>
      </trkpt>
      <trkpt lat="37.39312" lon="-6.00473">
        <ele>16.581346</ele>
        <time>2022-04-09T13:42:29.000Z</time>
      </trkpt>
      <trkpt lat="37.39311" lon="-6.00479">
        <ele>16.471452</ele>
        <time>2022-04-09T13:42:30.000Z</time>
      </trkpt>
      <trkpt lat="37.39312" lon="-6.00503">
        <ele>16.048829</ele>
        <time>2022-04-09T13:42:35.000Z</time>
      </trkpt>
      <trkpt lat="37.39312" lon="-6.00522">
        <ele>15.732358</ele>
        <time>2022-04-09T13:42:39.000Z</time>
      </trkpt>
      <trkpt lat="37.39315" lon="-6.00529">
        <ele>15.590765</ele>
        <time>2022-04-09T13:42:41.000Z</time>
      </trkpt>
      <trkpt lat="37.39317" lon="-6.00531">
        <ele>15.523154</ele>
        <time>2022-04-09T13:42:42.000Z</time>
      </trkpt>
      <trkpt lat="37.39328" lon="-6.00533">
        <ele>15.28371</ele>
        <time>2022-04-09T13:42:45.000Z</time>
      </trkpt>
      <trkpt lat="37.39337" lon="-6.00533">
        <ele>15.088545</ele>
        <time>2022-04-09T13:42:47.000Z</time>
      </trkpt>
      <trkpt lat="37.39355" lon="-6.00532">
        <ele>14.681332</ele>
        <time>2022-04-09T13:42:51.000Z</time>
      </trkpt>
      <trkpt lat="37.39366" lon="-6.0053">
        <ele>14.456998</ele>
        <time>2022-04-09T13:42:53.000Z</time>
      </trkpt>
      <trkpt lat="37.39399" lon="-6.00517">
        <ele>13.681394</ele>
        <time>2022-04-09T13:43:00.000Z</time>
      </trkpt>
      <trkpt lat="37.39422" lon="-6.00506">
        <ele>13.304725</ele>
        <time>2022-04-09T13:43:05.000Z</time>
      </trkpt>
      <trkpt lat="37.39431" lon="-6.00501">
        <ele>13.255401</ele>
        <time>2022-04-09T13:43:07.000Z</time>
      </trkpt>
      <trkpt lat="37.39468" lon="-6.00484">
        <ele>13.06595</ele>
        <time>2022-04-09T13:43:15.000Z</time>
      </trkpt>
      <trkpt lat="37.39481" lon="-6.00476">
        <ele>12.993179</ele>
        <time>2022-04-09T13:43:18.000Z</time>
      </trkpt>
      <trkpt lat="37.395" lon="-6.00466">
        <ele>12.895367</ele>
        <time>2022-04-09T13:43:22.000Z</time>
      </trkpt>
      <trkpt lat="37.39532" lon="-6.00444">
        <ele>12.715527</ele>
        <time>2022-04-09T13:43:30.000Z</time>
      </trkpt>
      <trkpt lat="37.39577" lon="-6.00409">
        <ele>12.466583</ele>
        <time>2022-04-09T13:43:41.000Z</time>
      </trkpt>
      <trkpt lat="37.39585" lon="-6.00402">
        <ele>12.450342</ele>
        <time>2022-04-09T13:43:43.000Z</time>
      </trkpt>
      <trkpt lat="37.39596" lon="-6.00391">
        <ele>12.4262</ele>
        <time>2022-04-09T13:43:46.000Z</time>
      </trkpt>
      <trkpt lat="37.39608" lon="-6.0038">
        <ele>12.400499</ele>
        <time>2022-04-09T13:43:49.000Z</time>
      </trkpt>
      <trkpt lat="37.39615" lon="-6.00373">
        <ele>12.384914</ele>
        <time>2022-04-09T13:43:51.000Z</time>
      </trkpt>
      <trkpt lat="37.39647" lon="-6.00342">
        <ele>12.316834</ele>
        <time>2022-04-09T13:44:00.000Z</time>
      </trkpt>
      <trkpt lat="37.39689" lon="-6.00304">
        <ele>12.227769</ele>
        <time>2022-04-09T13:44:12.000Z</time>
      </trkpt>
      <trkpt lat="37.39727" lon="-6.00267">
        <ele>12.16575</ele>
        <time>2022-04-09T13:44:23.000Z</time>
      </trkpt>
      <trkpt lat="37.3976" lon="-6.00236">
        <ele>12.17366</ele>
        <time>2022-04-09T13:44:32.000Z</time>
      </trkpt>
      <trkpt lat="37.39799" lon="-6.00197">
        <ele>12.183487</ele>
        <time>2022-04-09T13:44:44.000Z</time>
      </trkpt>
      <trkpt lat="37.39802" lon="-6.00194">
        <ele>12.184268</ele>
        <time>2022-04-09T13:44:45.000Z</time>
      </trkpt>
      <trkpt lat="37.39805" lon="-6.00191">
        <ele>12.185004</ele>
        <time>2022-04-09T13:44:46.000Z</time>
      </trkpt>
      <trkpt lat="37.39821" lon="-6.00177">
        <ele>12.188842</ele>
        <time>2022-04-09T13:44:51.000Z</time>
      </trkpt>
      <trkpt lat="37.39857" lon="-6.00144">
        <ele>12.197594</ele>
        <time>2022-04-09T13:45:02.000Z</time>
      </trkpt>
      <trkpt lat="37.39877" lon="-6.00124">
        <ele>12.17193</ele>
        <time>2022-04-09T13:45:08.000Z</time>
      </trkpt>
      <trkpt lat="37.39884" lon="-6.00119">
        <ele>12.160726</ele>
        <time>2022-04-09T13:45:10.000Z</time>
      </trkpt>
      <trkpt lat="37.39904" lon="-6.00098">
        <ele>12.123691</ele>
        <time>2022-04-09T13:45:17.000Z</time>
      </trkpt>
      <trkpt lat="37.39907" lon="-6.00096">
        <ele>12.118362</ele>
        <time>2022-04-09T13:45:18.000Z</time>
      </trkpt>
      <trkpt lat="37.39923" lon="-6.00081">
        <ele>12.090959</ele>
        <time>2022-04-09T13:45:23.000Z</time>
      </trkpt>
      <trkpt lat="37.39932" lon="-6.00074">
        <ele>12.075069</ele>
        <time>2022-04-09T13:45:26.000Z</time>
      </trkpt>
      <trkpt lat="37.39938" lon="-6.00068">
        <ele>12.064362</ele>
        <time>2022-04-09T13:45:28.000Z</time>
      </trkpt>
      <trkpt lat="37.39944" lon="-6.00062">
        <ele>12.052908</ele>
        <time>2022-04-09T13:45:30.000Z</time>
      </trkpt>
      <trkpt lat="37.39951" lon="-6.00056">
        <ele>12.041175</ele>
        <time>2022-04-09T13:45:32.000Z</time>
      </trkpt>
      <trkpt lat="37.39958" lon="-6.0005">
        <ele>12.028247</ele>
        <time>2022-04-09T13:45:34.000Z</time>
      </trkpt>
      <trkpt lat="37.39968" lon="-6.00041">
        <ele>12.011301</ele>
        <time>2022-04-09T13:45:37.000Z</time>
      </trkpt>
      <trkpt lat="37.3998" lon="-6.00031">
        <ele>11.990877</ele>
        <time>2022-04-09T13:45:40.000Z</time>
      </trkpt>
      <trkpt lat="37.4001" lon="-6.00001">
        <ele>11.943583</ele>
        <time>2022-04-09T13:45:48.000Z</time>
      </trkpt>
      <trkpt lat="37.40042" lon="-5.99971">
        <ele>11.958521</ele>
        <time>2022-04-09T13:45:57.000Z</time>
      </trkpt>
      <trkpt lat="37.40065" lon="-5.9995">
        <ele>11.968843</ele>
        <time>2022-04-09T13:46:03.000Z</time>
      </trkpt>
      <trkpt lat="37.40076" lon="-5.99938">
        <ele>11.974417</ele>
        <time>2022-04-09T13:46:06.000Z</time>
      </trkpt>
      <trkpt lat="37.40119" lon="-5.99898">
        <ele>11.994133</ele>
        <time>2022-04-09T13:46:17.000Z</time>
      </trkpt>
      <trkpt lat="37.40164" lon="-5.99856">
        <ele>11.987156</ele>
        <time>2022-04-09T13:46:29.000Z</time>
      </trkpt>
      <trkpt lat="37.40169" lon="-5.99853">
        <ele>11.980445</ele>
        <time>2022-04-09T13:46:30.000Z</time>
      </trkpt>
      <trkpt lat="37.40205" lon="-5.9982">
        <ele>11.921919</ele>
        <time>2022-04-09T13:46:39.000Z</time>
      </trkpt>
      <trkpt lat="37.40209" lon="-5.99816">
        <ele>11.915539</ele>
        <time>2022-04-09T13:46:40.000Z</time>
      </trkpt>
      <trkpt lat="37.40213" lon="-5.99812">
        <ele>11.909735</ele>
        <time>2022-04-09T13:46:41.000Z</time>
      </trkpt>
      <trkpt lat="37.40228" lon="-5.99796">
        <ele>11.884289</ele>
        <time>2022-04-09T13:46:45.000Z</time>
      </trkpt>
      <trkpt lat="37.40232" lon="-5.99793">
        <ele>11.878133</ele>
        <time>2022-04-09T13:46:46.000Z</time>
      </trkpt>
      <trkpt lat="37.40262" lon="-5.99765">
        <ele>11.829357</ele>
        <time>2022-04-09T13:46:54.000Z</time>
      </trkpt>
      <trkpt lat="37.4027" lon="-5.99757">
        <ele>11.816136</ele>
        <time>2022-04-09T13:46:56.000Z</time>
      </trkpt>
      <trkpt lat="37.40276" lon="-5.9975">
        <ele>11.804968</ele>
        <time>2022-04-09T13:46:58.000Z</time>
      </trkpt>
      <trkpt lat="37.40284" lon="-5.99742">
        <ele>11.79251</ele>
        <time>2022-04-09T13:47:00.000Z</time>
      </trkpt>
      <trkpt lat="37.4029" lon="-5.99736">
        <ele>11.782424</ele>
        <time>2022-04-09T13:47:02.000Z</time>
      </trkpt>
      <trkpt lat="37.40305" lon="-5.99723">
        <ele>11.767771</ele>
        <time>2022-04-09T13:47:06.000Z</time>
      </trkpt>
      <trkpt lat="37.40341" lon="-5.99689">
        <ele>11.741369</ele>
        <time>2022-04-09T13:47:16.000Z</time>
      </trkpt>
      <trkpt lat="37.40374" lon="-5.99658">
        <ele>11.717111</ele>
        <time>2022-04-09T13:47:25.000Z</time>
      </trkpt>
      <trkpt lat="37.40381" lon="-5.99653">
        <ele>11.712411</ele>
        <time>2022-04-09T13:47:27.000Z</time>
      </trkpt>
      <trkpt lat="37.40387" lon="-5.99647">
        <ele>11.70774</ele>
        <time>2022-04-09T13:47:29.000Z</time>
      </trkpt>
      <trkpt lat="37.40393" lon="-5.99639">
        <ele>11.702782</ele>
        <time>2022-04-09T13:47:31.000Z</time>
      </trkpt>
      <trkpt lat="37.40401" lon="-5.99632">
        <ele>11.697199</ele>
        <time>2022-04-09T13:47:33.000Z</time>
      </trkpt>
      <trkpt lat="37.40411" lon="-5.99621">
        <ele>11.689171</ele>
        <time>2022-04-09T13:47:36.000Z</time>
      </trkpt>
      <trkpt lat="37.40443" lon="-5.99593">
        <ele>11.664263</ele>
        <time>2022-04-09T13:47:45.000Z</time>
      </trkpt>
      <trkpt lat="37.40454" lon="-5.99582">
        <ele>11.650422</ele>
        <time>2022-04-09T13:47:48.000Z</time>
      </trkpt>
      <trkpt lat="37.40467" lon="-5.99568">
        <ele>11.632742</ele>
        <time>2022-04-09T13:47:52.000Z</time>
      </trkpt>
      <trkpt lat="37.40471" lon="-5.99564">
        <ele>11.628184</ele>
        <time>2022-04-09T13:47:53.000Z</time>
      </trkpt>
      <trkpt lat="37.40517" lon="-5.99523">
        <ele>11.570839</ele>
        <time>2022-04-09T13:48:06.000Z</time>
      </trkpt>
      <trkpt lat="37.4052" lon="-5.9952">
        <ele>11.567433</ele>
        <time>2022-04-09T13:48:07.000Z</time>
      </trkpt>
      <trkpt lat="37.40549" lon="-5.99493">
        <ele>11.531584</ele>
        <time>2022-04-09T13:48:15.000Z</time>
      </trkpt>
      <trkpt lat="37.40566" lon="-5.99476">
        <ele>11.510046</ele>
        <time>2022-04-09T13:48:20.000Z</time>
      </trkpt>
      <trkpt lat="37.40577" lon="-5.99467">
        <ele>11.496598</ele>
        <time>2022-04-09T13:48:23.000Z</time>
      </trkpt>
      <trkpt lat="37.40609" lon="-5.99439">
        <ele>11.537038</ele>
        <time>2022-04-09T13:48:32.000Z</time>
      </trkpt>
      <trkpt lat="37.40624" lon="-5.99428">
        <ele>11.561913</ele>
        <time>2022-04-09T13:48:36.000Z</time>
      </trkpt>
      <trkpt lat="37.40644" lon="-5.99413">
        <ele>11.594971</ele>
        <time>2022-04-09T13:48:41.000Z</time>
      </trkpt>
      <trkpt lat="37.40678" lon="-5.99386">
        <ele>11.65393</ele>
        <time>2022-04-09T13:48:50.000Z</time>
      </trkpt>
      <trkpt lat="37.40703" lon="-5.99368">
        <ele>11.696768</ele>
        <time>2022-04-09T13:48:57.000Z</time>
      </trkpt>
      <trkpt lat="37.40707" lon="-5.99364">
        <ele>11.702839</ele>
        <time>2022-04-09T13:48:58.000Z</time>
      </trkpt>
      <trkpt lat="37.4071" lon="-5.99361">
        <ele>11.709381</ele>
        <time>2022-04-09T13:48:59.000Z</time>
      </trkpt>
      <trkpt lat="37.40733" lon="-5.99345">
        <ele>11.747058</ele>
        <time>2022-04-09T13:49:05.000Z</time>
      </trkpt>
      <trkpt lat="37.40763" lon="-5.99322">
        <ele>11.740997</ele>
        <time>2022-04-09T13:49:13.000Z</time>
      </trkpt>
      <trkpt lat="37.40794" lon="-5.99301">
        <ele>11.729297</ele>
        <time>2022-04-09T13:49:20.000Z</time>
      </trkpt>
      <trkpt lat="37.40828" lon="-5.99275">
        <ele>11.716088</ele>
        <time>2022-04-09T13:49:28.000Z</time>
      </trkpt>
      <trkpt lat="37.40837" lon="-5.99268">
        <ele>11.712717</ele>
        <time>2022-04-09T13:49:30.000Z</time>
      </trkpt>
      <trkpt lat="37.40852" lon="-5.99256">
        <ele>11.70661</ele>
        <time>2022-04-09T13:49:34.000Z</time>
      </trkpt>
      <trkpt lat="37.409" lon="-5.99222">
        <ele>11.682958</ele>
        <time>2022-04-09T13:49:44.000Z</time>
      </trkpt>
      <trkpt lat="37.40942" lon="-5.99189">
        <ele>11.640226</ele>
        <time>2022-04-09T13:49:54.000Z</time>
      </trkpt>
      <trkpt lat="37.40962" lon="-5.99174">
        <ele>11.619391</ele>
        <time>2022-04-09T13:49:59.000Z</time>
      </trkpt>
      <trkpt lat="37.40978" lon="-5.99162">
        <ele>11.603366</ele>
        <time>2022-04-09T13:50:03.000Z</time>
      </trkpt>
      <trkpt lat="37.40998" lon="-5.99149">
        <ele>11.584178</ele>
        <time>2022-04-09T13:50:08.000Z</time>
      </trkpt>
      <trkpt lat="37.4101" lon="-5.99141">
        <ele>11.571817</ele>
        <time>2022-04-09T13:50:11.000Z</time>
      </trkpt>
      <trkpt lat="37.41022" lon="-5.99131">
        <ele>11.559996</ele>
        <time>2022-04-09T13:50:14.000Z</time>
      </trkpt>
      <trkpt lat="37.41032" lon="-5.99121">
        <ele>11.548435</ele>
        <time>2022-04-09T13:50:17.000Z</time>
      </trkpt>
      <trkpt lat="37.41046" lon="-5.99109">
        <ele>11.546486</ele>
        <time>2022-04-09T13:50:21.000Z</time>
      </trkpt>
      <trkpt lat="37.4106" lon="-5.99098">
        <ele>11.606681</ele>
        <time>2022-04-09T13:50:25.000Z</time>
      </trkpt>
      <trkpt lat="37.41072" lon="-5.99091">
        <ele>11.653894</ele>
        <time>2022-04-09T13:50:28.000Z</time>
      </trkpt>
      <trkpt lat="37.4109" lon="-5.99077">
        <ele>11.733654</ele>
        <time>2022-04-09T13:50:33.000Z</time>
      </trkpt>
      <trkpt lat="37.41108" lon="-5.99063">
        <ele>11.808975</ele>
        <time>2022-04-09T13:50:38.000Z</time>
      </trkpt>
      <trkpt lat="37.41123" lon="-5.9905">
        <ele>11.87808</ele>
        <time>2022-04-09T13:50:42.000Z</time>
      </trkpt>
      <trkpt lat="37.41136" lon="-5.99043">
        <ele>11.927354</ele>
        <time>2022-04-09T13:50:45.000Z</time>
      </trkpt>
      <trkpt lat="37.41152" lon="-5.99031">
        <ele>11.997554</ele>
        <time>2022-04-09T13:50:49.000Z</time>
      </trkpt>
      <trkpt lat="37.41156" lon="-5.99028">
        <ele>12.015505</ele>
        <time>2022-04-09T13:50:50.000Z</time>
      </trkpt>
      <trkpt lat="37.41164" lon="-5.9902">
        <ele>12.051563</ele>
        <time>2022-04-09T13:50:52.000Z</time>
      </trkpt>
      <trkpt lat="37.41197" lon="-5.98996">
        <ele>12.194655</ele>
        <time>2022-04-09T13:51:01.000Z</time>
      </trkpt>
      <trkpt lat="37.41205" lon="-5.98989">
        <ele>12.233921</ele>
        <time>2022-04-09T13:51:04.000Z</time>
      </trkpt>
      <trkpt lat="37.41216" lon="-5.9898">
        <ele>12.289643</ele>
        <time>2022-04-09T13:51:08.000Z</time>
      </trkpt>
      <trkpt lat="37.41243" lon="-5.98963">
        <ele>12.416071</ele>
        <time>2022-04-09T13:51:16.000Z</time>
      </trkpt>
      <trkpt lat="37.41262" lon="-5.9896">
        <ele>12.498607</ele>
        <time>2022-04-09T13:51:21.000Z</time>
      </trkpt>
      <trkpt lat="37.41267" lon="-5.9896">
        <ele>12.51586</ele>
        <time>2022-04-09T13:51:22.000Z</time>
      </trkpt>
      <trkpt lat="37.41282" lon="-5.9896">
        <ele>12.582336</ele>
        <time>2022-04-09T13:51:26.000Z</time>
      </trkpt>
      <trkpt lat="37.41305" lon="-5.98959">
        <ele>12.677059</ele>
        <time>2022-04-09T13:51:32.000Z</time>
      </trkpt>
      <trkpt lat="37.41327" lon="-5.9896">
        <ele>12.768954</ele>
        <time>2022-04-09T13:51:39.000Z</time>
      </trkpt>
      <trkpt lat="37.41328" lon="-5.9896">
        <ele>12.77623</ele>
        <time>2022-04-09T13:51:40.000Z</time>
      </trkpt>
      <trkpt lat="37.41334" lon="-5.98959">
        <ele>12.801694</ele>
        <time>2022-04-09T13:51:43.000Z</time>
      </trkpt>
      <trkpt lat="37.41339" lon="-5.98959">
        <ele>12.821914</ele>
        <time>2022-04-09T13:51:48.000Z</time>
      </trkpt>
      <trkpt lat="37.41341" lon="-5.9896">
        <ele>12.831682</ele>
        <time>2022-04-09T13:51:51.000Z</time>
      </trkpt>
      <trkpt lat="37.41341" lon="-5.9896">
        <ele>12.832103</ele>
        <time>2022-04-09T13:51:53.000Z</time>
      </trkpt>
      <trkpt lat="37.41342" lon="-5.9896">
        <ele>12.836743</ele>
        <time>2022-04-09T13:51:55.000Z</time>
      </trkpt>
      <trkpt lat="37.41348" lon="-5.98957">
        <ele>12.862366</ele>
        <time>2022-04-09T13:52:03.000Z</time>
      </trkpt>
      <trkpt lat="37.41362" lon="-5.98956">
        <ele>12.922686</ele>
        <time>2022-04-09T13:52:08.000Z</time>
      </trkpt>
      <trkpt lat="37.41378" lon="-5.98945">
        <ele>12.950109</ele>
        <time>2022-04-09T13:52:14.000Z</time>
      </trkpt>
      <trkpt lat="37.41404" lon="-5.98922">
        <ele>12.932077</ele>
        <time>2022-04-09T13:52:23.000Z</time>
      </trkpt>
      <trkpt lat="37.41419" lon="-5.98896">
        <ele>12.917553</ele>
        <time>2022-04-09T13:52:30.000Z</time>
      </trkpt>
      <trkpt lat="37.41434" lon="-5.98886">
        <ele>12.907795</ele>
        <time>2022-04-09T13:52:35.000Z</time>
      </trkpt>
      <trkpt lat="37.41462" lon="-5.98877">
        <ele>12.891675</ele>
        <time>2022-04-09T13:52:42.000Z</time>
      </trkpt>
      <trkpt lat="37.41497" lon="-5.98867">
        <ele>12.87139</ele>
        <time>2022-04-09T13:52:50.000Z</time>
      </trkpt>
      <trkpt lat="37.41531" lon="-5.98856">
        <ele>12.853636</ele>
        <time>2022-04-09T13:52:57.000Z</time>
      </trkpt>
      <trkpt lat="37.41535" lon="-5.98855">
        <ele>12.853565</ele>
        <time>2022-04-09T13:52:58.000Z</time>
      </trkpt>
      <trkpt lat="37.41567" lon="-5.98844">
        <ele>12.853088</ele>
        <time>2022-04-09T13:53:05.000Z</time>
      </trkpt>
      <trkpt lat="37.41603" lon="-5.98831">
        <ele>12.852551</ele>
        <time>2022-04-09T13:53:14.000Z</time>
      </trkpt>
      <trkpt lat="37.41616" lon="-5.98827">
        <ele>12.852363</ele>
        <time>2022-04-09T13:53:17.000Z</time>
      </trkpt>
      <trkpt lat="37.41658" lon="-5.98815">
        <ele>12.851738</ele>
        <time>2022-04-09T13:53:27.000Z</time>
      </trkpt>
      <trkpt lat="37.41695" lon="-5.98803">
        <ele>12.8512</ele>
        <time>2022-04-09T13:53:36.000Z</time>
      </trkpt>
      <trkpt lat="37.41729" lon="-5.98792">
        <ele>12.865835</ele>
        <time>2022-04-09T13:53:45.000Z</time>
      </trkpt>
      <trkpt lat="37.41768" lon="-5.98784">
        <ele>12.886169</ele>
        <time>2022-04-09T13:53:55.000Z</time>
      </trkpt>
      <trkpt lat="37.41792" lon="-5.98781">
        <ele>12.898593</ele>
        <time>2022-04-09T13:54:01.000Z</time>
      </trkpt>
      <trkpt lat="37.41831" lon="-5.98777">
        <ele>12.918391</ele>
        <time>2022-04-09T13:54:11.000Z</time>
      </trkpt>
      <trkpt lat="37.41852" lon="-5.98773">
        <ele>12.92927</ele>
        <time>2022-04-09T13:54:17.000Z</time>
      </trkpt>
      <trkpt lat="37.41875" lon="-5.9877">
        <ele>12.94113</ele>
        <time>2022-04-09T13:54:23.000Z</time>
      </trkpt>
      <trkpt lat="37.41921" lon="-5.98764">
        <ele>13.43476</ele>
        <time>2022-04-09T13:54:35.000Z</time>
      </trkpt>
      <trkpt lat="37.41938" lon="-5.98762">
        <ele>13.637828</ele>
        <time>2022-04-09T13:54:39.000Z</time>
      </trkpt>
      <trkpt lat="37.41945" lon="-5.98761">
        <ele>13.725427</ele>
        <time>2022-04-09T13:54:41.000Z</time>
      </trkpt>
      <trkpt lat="37.41958" lon="-5.9876">
        <ele>13.879361</ele>
        <time>2022-04-09T13:54:44.000Z</time>
      </trkpt>
      <trkpt lat="37.41975" lon="-5.98754">
        <ele>14.078647</ele>
        <time>2022-04-09T13:54:48.000Z</time>
      </trkpt>
      <trkpt lat="37.41987" lon="-5.98753">
        <ele>14.221949</ele>
        <time>2022-04-09T13:54:51.000Z</time>
      </trkpt>
      <trkpt lat="37.4199" lon="-5.98752">
        <ele>14.266714</ele>
        <time>2022-04-09T13:54:52.000Z</time>
      </trkpt>
      <trkpt lat="37.41993" lon="-5.98752">
        <ele>14.302037</ele>
        <time>2022-04-09T13:54:53.000Z</time>
      </trkpt>
      <trkpt lat="37.42003" lon="-5.98751">
        <ele>14.417928</ele>
        <time>2022-04-09T13:54:56.000Z</time>
      </trkpt>
      <trkpt lat="37.42008" lon="-5.9875">
        <ele>14.475527</ele>
        <time>2022-04-09T13:54:58.000Z</time>
      </trkpt>
      <trkpt lat="37.4202" lon="-5.98751">
        <ele>14.615669</ele>
        <time>2022-04-09T13:55:02.000Z</time>
      </trkpt>
      <trkpt lat="37.4204" lon="-5.98754">
        <ele>14.856832</ele>
        <time>2022-04-09T13:55:08.000Z</time>
      </trkpt>
      <trkpt lat="37.42066" lon="-5.98759">
        <ele>15.073482</ele>
        <time>2022-04-09T13:55:15.000Z</time>
      </trkpt>
      <trkpt lat="37.42081" lon="-5.98761">
        <ele>15.096596</ele>
        <time>2022-04-09T13:55:19.000Z</time>
      </trkpt>
      <trkpt lat="37.42092" lon="-5.98763">
        <ele>15.113442</ele>
        <time>2022-04-09T13:55:22.000Z</time>
      </trkpt>
      <trkpt lat="37.42101" lon="-5.98765">
        <ele>15.126842</ele>
        <time>2022-04-09T13:55:24.000Z</time>
      </trkpt>
      <trkpt lat="37.4212" lon="-5.98768">
        <ele>15.156168</ele>
        <time>2022-04-09T13:55:29.000Z</time>
      </trkpt>
      <trkpt lat="37.42137" lon="-5.98771">
        <ele>15.181139</ele>
        <time>2022-04-09T13:55:33.000Z</time>
      </trkpt>
      <trkpt lat="37.4214" lon="-5.98771">
        <ele>15.186439</ele>
        <time>2022-04-09T13:55:34.000Z</time>
      </trkpt>
      <trkpt lat="37.42145" lon="-5.98771">
        <ele>15.193388</ele>
        <time>2022-04-09T13:55:36.000Z</time>
      </trkpt>
      <trkpt lat="37.42149" lon="-5.98772">
        <ele>15.20057</ele>
        <time>2022-04-09T13:55:38.000Z</time>
      </trkpt>
      <trkpt lat="37.42172" lon="-5.98777">
        <ele>15.234492</ele>
        <time>2022-04-09T13:55:45.000Z</time>
      </trkpt>
      <trkpt lat="37.42188" lon="-5.98781">
        <ele>15.260427</ele>
        <time>2022-04-09T13:55:50.000Z</time>
      </trkpt>
      <trkpt lat="37.42195" lon="-5.98782">
        <ele>15.27092</ele>
        <time>2022-04-09T13:55:52.000Z</time>
      </trkpt>
      <trkpt lat="37.4222" lon="-5.98794">
        <ele>15.310811</ele>
        <time>2022-04-09T13:55:59.000Z</time>
      </trkpt>
      <trkpt lat="37.42241" lon="-5.98807">
        <ele>15.418752</ele>
        <time>2022-04-09T13:56:05.000Z</time>
      </trkpt>
      <trkpt lat="37.42251" lon="-5.98813">
        <ele>15.523745</ele>
        <time>2022-04-09T13:56:08.000Z</time>
      </trkpt>
      <trkpt lat="37.42257" lon="-5.98818">
        <ele>15.596809</ele>
        <time>2022-04-09T13:56:10.000Z</time>
      </trkpt>
      <trkpt lat="37.42265" lon="-5.98823">
        <ele>15.679871</ele>
        <time>2022-04-09T13:56:12.000Z</time>
      </trkpt>
      <trkpt lat="37.42269" lon="-5.98825">
        <ele>15.71915</ele>
        <time>2022-04-09T13:56:13.000Z</time>
      </trkpt>
      <trkpt lat="37.42295" lon="-5.98842">
        <ele>15.997789</ele>
        <time>2022-04-09T13:56:20.000Z</time>
      </trkpt>
      <trkpt lat="37.42319" lon="-5.9885">
        <ele>16.233273</ele>
        <time>2022-04-09T13:56:26.000Z</time>
      </trkpt>
      <trkpt lat="37.42323" lon="-5.98851">
        <ele>16.272109</ele>
        <time>2022-04-09T13:56:27.000Z</time>
      </trkpt>
      <trkpt lat="37.42327" lon="-5.98851">
        <ele>16.311099</ele>
        <time>2022-04-09T13:56:28.000Z</time>
      </trkpt>
      <trkpt lat="37.42343" lon="-5.98858">
        <ele>16.465566</ele>
        <time>2022-04-09T13:56:32.000Z</time>
      </trkpt>
      <trkpt lat="37.42368" lon="-5.98867">
        <ele>16.709653</ele>
        <time>2022-04-09T13:56:39.000Z</time>
      </trkpt>
      <trkpt lat="37.4237" lon="-5.98868">
        <ele>16.73832</ele>
        <time>2022-04-09T13:56:40.000Z</time>
      </trkpt>
      <trkpt lat="37.42382" lon="-5.98872">
        <ele>16.849597</ele>
        <time>2022-04-09T13:56:44.000Z</time>
      </trkpt>
      <trkpt lat="37.42395" lon="-5.98877">
        <ele>16.976821</ele>
        <time>2022-04-09T13:56:49.000Z</time>
      </trkpt>
      <trkpt lat="37.424" lon="-5.98878">
        <ele>17.026569</ele>
        <time>2022-04-09T13:56:51.000Z</time>
      </trkpt>
      <trkpt lat="37.42412" lon="-5.98877">
        <ele>17.03068</ele>
        <time>2022-04-09T13:56:56.000Z</time>
      </trkpt>
      <trkpt lat="37.42414" lon="-5.98878">
        <ele>17.029818</ele>
        <time>2022-04-09T13:56:57.000Z</time>
      </trkpt>
      <trkpt lat="37.42432" lon="-5.98887">
        <ele>17.023472</ele>
        <time>2022-04-09T13:57:03.000Z</time>
      </trkpt>
      <trkpt lat="37.42442" lon="-5.98883">
        <ele>17.019862</ele>
        <time>2022-04-09T13:57:07.000Z</time>
      </trkpt>
      <trkpt lat="37.42447" lon="-5.98877">
        <ele>17.017746</ele>
        <time>2022-04-09T13:57:09.000Z</time>
      </trkpt>
      <trkpt lat="37.4245" lon="-5.98867">
        <ele>17.014969</ele>
        <time>2022-04-09T13:57:12.000Z</time>
      </trkpt>
      <trkpt lat="37.4245" lon="-5.98843">
        <ele>17.008466</ele>
        <time>2022-04-09T13:57:18.000Z</time>
      </trkpt>
      <trkpt lat="37.42448" lon="-5.98827">
        <ele>17.004312</ele>
        <time>2022-04-09T13:57:22.000Z</time>
      </trkpt>
      <trkpt lat="37.42446" lon="-5.9882">
        <ele>17.00244</ele>
        <time>2022-04-09T13:57:24.000Z</time>
      </trkpt>
      <trkpt lat="37.42448" lon="-5.98814">
        <ele>17.000556</ele>
        <time>2022-04-09T13:57:26.000Z</time>
      </trkpt>
      <trkpt lat="37.4245" lon="-5.98811">
        <ele>16.999538</ele>
        <time>2022-04-09T13:57:27.000Z</time>
      </trkpt>
      <trkpt lat="37.42456" lon="-5.98809">
        <ele>16.997505</ele>
        <time>2022-04-09T13:57:29.000Z</time>
      </trkpt>
      <trkpt lat="37.42472" lon="-5.98813">
        <ele>16.992358</ele>
        <time>2022-04-09T13:57:33.000Z</time>
      </trkpt>
      <trkpt lat="37.42476" lon="-5.98814">
        <ele>16.990918</ele>
        <time>2022-04-09T13:57:34.000Z</time>
      </trkpt>
      <trkpt lat="37.4249" lon="-5.98818">
        <ele>16.986294</ele>
        <time>2022-04-09T13:57:37.000Z</time>
      </trkpt>
      <trkpt lat="37.42504" lon="-5.9882">
        <ele>16.981574</ele>
        <time>2022-04-09T13:57:40.000Z</time>
      </trkpt>
      <trkpt lat="37.42533" lon="-5.98818">
        <ele>16.95856</ele>
        <time>2022-04-09T13:57:46.000Z</time>
      </trkpt>
      <trkpt lat="37.42547" lon="-5.98815">
        <ele>16.931199</ele>
        <time>2022-04-09T13:57:49.000Z</time>
      </trkpt>
      <trkpt lat="37.42573" lon="-5.98807">
        <ele>16.880786</ele>
        <time>2022-04-09T13:57:55.000Z</time>
      </trkpt>
      <trkpt lat="37.42577" lon="-5.98805">
        <ele>16.872755</ele>
        <time>2022-04-09T13:57:56.000Z</time>
      </trkpt>
      <trkpt lat="37.42605" lon="-5.9879">
        <ele>16.815557</ele>
        <time>2022-04-09T13:58:03.000Z</time>
      </trkpt>
      <trkpt lat="37.42608" lon="-5.98787">
        <ele>16.809035</ele>
        <time>2022-04-09T13:58:04.000Z</time>
      </trkpt>
      <trkpt lat="37.42622" lon="-5.98774">
        <ele>16.775507</ele>
        <time>2022-04-09T13:58:08.000Z</time>
      </trkpt>
      <trkpt lat="37.42638" lon="-5.98761">
        <ele>16.740515</ele>
        <time>2022-04-09T13:58:12.000Z</time>
      </trkpt>
      <trkpt lat="37.42662" lon="-5.98739">
        <ele>16.684852</ele>
        <time>2022-04-09T13:58:19.000Z</time>
      </trkpt>
      <trkpt lat="37.4267" lon="-5.98731">
        <ele>16.664454</ele>
        <time>2022-04-09T13:58:22.000Z</time>
      </trkpt>
      <trkpt lat="37.42681" lon="-5.98723">
        <ele>16.641276</ele>
        <time>2022-04-09T13:58:25.000Z</time>
      </trkpt>
      <trkpt lat="37.42693" lon="-5.98711">
        <ele>16.704008</ele>
        <time>2022-04-09T13:58:29.000Z</time>
      </trkpt>
      <trkpt lat="37.42696" lon="-5.98708">
        <ele>16.725054</ele>
        <time>2022-04-09T13:58:30.000Z</time>
      </trkpt>
      <trkpt lat="37.42703" lon="-5.98699">
        <ele>16.780465</ele>
        <time>2022-04-09T13:58:34.000Z</time>
      </trkpt>
      <trkpt lat="37.42703" lon="-5.98699">
        <ele>16.78449</ele>
        <time>2022-04-09T13:58:35.000Z</time>
      </trkpt>
      <trkpt lat="37.42703" lon="-5.98699">
        <ele>16.78449</ele>
        <time>2022-04-09T13:58:44.000Z</time>
      </trkpt>
      <trkpt lat="37.42703" lon="-5.98699">
        <ele>16.78449</ele>
        <time>2022-04-09T13:58:57.000Z</time>
      </trkpt>
      <trkpt lat="37.42703" lon="-5.98699">
        <ele>16.78449</ele>
        <time>2022-04-09T13:59:00.000Z</time>
      </trkpt>
      <trkpt lat="37.42703" lon="-5.98699">
        <ele>16.78449</ele>
        <time>2022-04-09T13:59:02.000Z</time>
      </trkpt>
      <trkpt lat="37.42703" lon="-5.98699">
        <ele>16.78449</ele>
        <time>2022-04-09T13:59:07.000Z</time>
      </trkpt>
      <trkpt lat="37.42703" lon="-5.98699">
        <ele>16.78449</ele>
        <time>2022-04-09T13:59:12.000Z</time>
      </trkpt>
      <trkpt lat="37.42703" lon="-5.98699">
        <ele>16.78449</ele>
        <time>2022-04-09T13:59:14.000Z</time>
      </trkpt>
      <trkpt lat="37.42703" lon="-5.98699">
        <ele>16.78449</ele>
        <time>2022-04-09T13:59:28.000Z</time>
      </trkpt>
      <trkpt lat="37.42703" lon="-5.98699">
        <ele>16.78449</ele>
        <time>2022-04-09T13:59:50.000Z</time>
      </trkpt>
      <trkpt lat="37.42703" lon="-5.98699">
        <ele>16.78449</ele>
        <time>2022-04-09T14:00:07.000Z</time>
      </trkpt>
      <trkpt lat="37.42703" lon="-5.98699">
        <ele>16.78449</ele>
        <time>2022-04-09T14:00:10.000Z</time>
      </trkpt>
      <trkpt lat="37.42703" lon="-5.98698">
        <ele>16.788561</ele>
        <time>2022-04-09T14:00:46.000Z</time>
      </trkpt>
      <trkpt lat="37.42703" lon="-5.98698">
        <ele>16.788561</ele>
        <time>2022-04-09T14:01:03.000Z</time>
      </trkpt>
      <trkpt lat="37.42703" lon="-5.98698">
        <ele>16.788561</ele>
        <time>2022-04-09T14:01:16.000Z</time>
      </trkpt>
      <trkpt lat="37.42703" lon="-5.98698">
        <ele>16.788561</ele>
        <time>2022-04-09T14:01:18.000Z</time>
      </trkpt>
      <trkpt lat="37.42703" lon="-5.98698">
        <ele>16.788561</ele>
        <time>2022-04-09T14:01:21.000Z</time>
      </trkpt>
      <trkpt lat="37.42703" lon="-5.98698">
        <ele>16.788561</ele>
        <time>2022-04-09T14:01:38.000Z</time>
      </trkpt>
      <trkpt lat="37.42703" lon="-5.98698">
        <ele>16.788561</ele>
        <time>2022-04-09T14:02:31.000Z</time>
      </trkpt>
      <trkpt lat="37.42703" lon="-5.98698">
        <ele>16.788561</ele>
        <time>2022-04-09T14:02:37.000Z</time>
      </trkpt>
      <trkpt lat="37.42703" lon="-5.98698">
        <ele>16.788561</ele>
        <time>2022-04-09T14:02:40.000Z</time>
      </trkpt>
      <trkpt lat="37.42703" lon="-5.98698">
        <ele>16.788561</ele>
        <time>2022-04-09T14:02:43.000Z</time>
      </trkpt>
      <trkpt lat="37.42703" lon="-5.98698">
        <ele>16.788561</ele>
        <time>2022-04-09T14:02:50.000Z</time>
      </trkpt>
      <trkpt lat="37.42703" lon="-5.98698">
        <ele>16.788561</ele>
        <time>2022-04-09T14:03:01.000Z</time>
      </trkpt>
      <trkpt lat="37.42703" lon="-5.98698">
        <ele>16.788561</ele>
        <time>2022-04-09T14:03:08.000Z</time>
      </trkpt>
      <trkpt lat="37.42703" lon="-5.98697">
        <ele>16.790367</ele>
        <time>2022-04-09T14:03:22.000Z</time>
      </trkpt>
      <trkpt lat="37.427" lon="-5.98689">
        <ele>16.827392</ele>
        <time>2022-04-09T14:03:25.000Z</time>
      </trkpt>
      <trkpt lat="37.42699" lon="-5.98686">
        <ele>16.844003</ele>
        <time>2022-04-09T14:03:29.000Z</time>
      </trkpt>
      <trkpt lat="37.42699" lon="-5.98683">
        <ele>16.858163</ele>
        <time>2022-04-09T14:03:32.000Z</time>
      </trkpt>
      <trkpt lat="37.427" lon="-5.98678">
        <ele>16.879781</ele>
        <time>2022-04-09T14:03:34.000Z</time>
      </trkpt>
      <trkpt lat="37.42709" lon="-5.98665">
        <ele>16.952811</ele>
        <time>2022-04-09T14:03:39.000Z</time>
      </trkpt>
      <trkpt lat="37.4272" lon="-5.98648">
        <ele>17.046568</ele>
        <time>2022-04-09T14:03:44.000Z</time>
      </trkpt>
      <trkpt lat="37.42738" lon="-5.98647">
        <ele>17.144884</ele>
        <time>2022-04-09T14:03:49.000Z</time>
      </trkpt>
      <trkpt lat="37.42743" lon="-5.98654">
        <ele>17.183856</ele>
        <time>2022-04-09T14:03:51.000Z</time>
      </trkpt>
      <trkpt lat="37.42746" lon="-5.9866">
        <ele>17.215347</ele>
        <time>2022-04-09T14:03:53.000Z</time>
      </trkpt>
      <trkpt lat="37.42749" lon="-5.98671">
        <ele>17.265658</ele>
        <time>2022-04-09T14:03:56.000Z</time>
      </trkpt>
      <trkpt lat="37.42756" lon="-5.98678">
        <ele>17.310817</ele>
        <time>2022-04-09T14:03:58.000Z</time>
      </trkpt>
      <trkpt lat="37.42759" lon="-5.98681">
        <ele>17.334528</ele>
        <time>2022-04-09T14:03:59.000Z</time>
      </trkpt>
      <trkpt lat="37.4278" lon="-5.98699">
        <ele>17.470878</ele>
        <time>2022-04-09T14:04:05.000Z</time>
      </trkpt>
      <trkpt lat="37.42794" lon="-5.98707">
        <ele>17.557307</ele>
        <time>2022-04-09T14:04:09.000Z</time>
      </trkpt>
      <trkpt lat="37.4281" lon="-5.98716">
        <ele>17.8279</ele>
        <time>2022-04-09T14:04:13.000Z</time>
      </trkpt>
      <trkpt lat="37.42836" lon="-5.98736">
        <ele>18.83525</ele>
        <time>2022-04-09T14:04:21.000Z</time>
      </trkpt>
      <trkpt lat="37.4284" lon="-5.98739">
        <ele>18.990019</ele>
        <time>2022-04-09T14:04:22.000Z</time>
      </trkpt>
      <trkpt lat="37.42846" lon="-5.98743">
        <ele>19.245383</ele>
        <time>2022-04-09T14:04:24.000Z</time>
      </trkpt>
      <trkpt lat="37.42861" lon="-5.98754">
        <ele>19.815343</ele>
        <time>2022-04-09T14:04:29.000Z</time>
      </trkpt>
      <trkpt lat="37.42875" lon="-5.98763">
        <ele>20.340842</ele>
        <time>2022-04-09T14:04:33.000Z</time>
      </trkpt>
      <trkpt lat="37.42889" lon="-5.98772">
        <ele>20.850749</ele>
        <time>2022-04-09T14:04:38.000Z</time>
      </trkpt>
      <trkpt lat="37.42894" lon="-5.98776">
        <ele>21.043829</ele>
        <time>2022-04-09T14:04:40.000Z</time>
      </trkpt>
      <trkpt lat="37.42902" lon="-5.98781">
        <ele>21.346824</ele>
        <time>2022-04-09T14:04:43.000Z</time>
      </trkpt>
      <trkpt lat="37.42904" lon="-5.98783">
        <ele>21.444211</ele>
        <time>2022-04-09T14:04:44.000Z</time>
      </trkpt>
      <trkpt lat="37.42908" lon="-5.98786">
        <ele>21.594774</ele>
        <time>2022-04-09T14:04:45.000Z</time>
      </trkpt>
      <trkpt lat="37.42911" lon="-5.98788">
        <ele>21.708875</ele>
        <time>2022-04-09T14:04:46.000Z</time>
      </trkpt>
      <trkpt lat="37.4292" lon="-5.98794">
        <ele>22.058271</ele>
        <time>2022-04-09T14:04:49.000Z</time>
      </trkpt>
      <trkpt lat="37.4294" lon="-5.98808">
        <ele>22.795098</ele>
        <time>2022-04-09T14:04:56.000Z</time>
      </trkpt>
      <trkpt lat="37.42961" lon="-5.98822">
        <ele>23.591393</ele>
        <time>2022-04-09T14:05:04.000Z</time>
      </trkpt>
      <trkpt lat="37.42964" lon="-5.98824">
        <ele>23.592898</ele>
        <time>2022-04-09T14:05:05.000Z</time>
      </trkpt>
      <trkpt lat="37.42972" lon="-5.98831">
        <ele>23.598071</ele>
        <time>2022-04-09T14:05:09.000Z</time>
      </trkpt>
      <trkpt lat="37.42984" lon="-5.98838">
        <ele>23.604853</ele>
        <time>2022-04-09T14:05:14.000Z</time>
      </trkpt>
      <trkpt lat="37.42986" lon="-5.9884">
        <ele>23.606135</ele>
        <time>2022-04-09T14:05:15.000Z</time>
      </trkpt>
      <trkpt lat="37.43005" lon="-5.98853">
        <ele>23.617213</ele>
        <time>2022-04-09T14:05:23.000Z</time>
      </trkpt>
      <trkpt lat="37.43012" lon="-5.98857">
        <ele>23.620958</ele>
        <time>2022-04-09T14:05:26.000Z</time>
      </trkpt>
      <trkpt lat="37.4302" lon="-5.98861">
        <ele>23.62576</ele>
        <time>2022-04-09T14:05:29.000Z</time>
      </trkpt>
      <trkpt lat="37.43042" lon="-5.98875">
        <ele>23.638407</ele>
        <time>2022-04-09T14:05:37.000Z</time>
      </trkpt>
      <trkpt lat="37.43069" lon="-5.9889">
        <ele>23.653575</ele>
        <time>2022-04-09T14:05:45.000Z</time>
      </trkpt>
      <trkpt lat="37.43073" lon="-5.98893">
        <ele>23.655707</ele>
        <time>2022-04-09T14:05:46.000Z</time>
      </trkpt>
      <trkpt lat="37.43088" lon="-5.98903">
        <ele>23.6646</ele>
        <time>2022-04-09T14:05:50.000Z</time>
      </trkpt>
      <trkpt lat="37.43092" lon="-5.98906">
        <ele>23.666859</ele>
        <time>2022-04-09T14:05:51.000Z</time>
      </trkpt>
      <trkpt lat="37.431" lon="-5.98911">
        <ele>23.671633</ele>
        <time>2022-04-09T14:05:53.000Z</time>
      </trkpt>
      <trkpt lat="37.43129" lon="-5.98926">
        <ele>23.395223</ele>
        <time>2022-04-09T14:05:59.000Z</time>
      </trkpt>
      <trkpt lat="37.43144" lon="-5.98933">
        <ele>22.790845</ele>
        <time>2022-04-09T14:06:02.000Z</time>
      </trkpt>
      <trkpt lat="37.4315" lon="-5.98936">
        <ele>22.566942</ele>
        <time>2022-04-09T14:06:03.000Z</time>
      </trkpt>
      <trkpt lat="37.43173" lon="-5.98948">
        <ele>21.631843</ele>
        <time>2022-04-09T14:06:07.000Z</time>
      </trkpt>
      <trkpt lat="37.43188" lon="-5.98955">
        <ele>20.994559</ele>
        <time>2022-04-09T14:06:10.000Z</time>
      </trkpt>
      <trkpt lat="37.43196" lon="-5.98958">
        <ele>20.703798</ele>
        <time>2022-04-09T14:06:11.000Z</time>
      </trkpt>
      <trkpt lat="37.43202" lon="-5.98961">
        <ele>20.459764</ele>
        <time>2022-04-09T14:06:12.000Z</time>
      </trkpt>
      <trkpt lat="37.43227" lon="-5.98971">
        <ele>19.472274</ele>
        <time>2022-04-09T14:06:16.000Z</time>
      </trkpt>
      <trkpt lat="37.43246" lon="-5.98979">
        <ele>18.71267</ele>
        <time>2022-04-09T14:06:19.000Z</time>
      </trkpt>
      <trkpt lat="37.43251" lon="-5.98981">
        <ele>18.50205</ele>
        <time>2022-04-09T14:06:20.000Z</time>
      </trkpt>
      <trkpt lat="37.43272" lon="-5.9899">
        <ele>17.672936</ele>
        <time>2022-04-09T14:06:23.000Z</time>
      </trkpt>
      <trkpt lat="37.43296" lon="-5.99">
        <ele>16.839286</ele>
        <time>2022-04-09T14:06:27.000Z</time>
      </trkpt>
      <trkpt lat="37.43315" lon="-5.99008">
        <ele>16.625832</ele>
        <time>2022-04-09T14:06:30.000Z</time>
      </trkpt>
      <trkpt lat="37.43367" lon="-5.99028">
        <ele>16.025113</ele>
        <time>2022-04-09T14:06:38.000Z</time>
      </trkpt>
      <trkpt lat="37.43379" lon="-5.99032">
        <ele>15.883471</ele>
        <time>2022-04-09T14:06:40.000Z</time>
      </trkpt>
      <trkpt lat="37.43408" lon="-5.99043">
        <ele>15.546143</ele>
        <time>2022-04-09T14:06:45.000Z</time>
      </trkpt>
      <trkpt lat="37.4343" lon="-5.99052">
        <ele>15.29017</ele>
        <time>2022-04-09T14:06:49.000Z</time>
      </trkpt>
      <trkpt lat="37.4344" lon="-5.99055">
        <ele>15.17543</ele>
        <time>2022-04-09T14:06:51.000Z</time>
      </trkpt>
      <trkpt lat="37.43461" lon="-5.99063">
        <ele>14.937069</ele>
        <time>2022-04-09T14:06:55.000Z</time>
      </trkpt>
      <trkpt lat="37.4348" lon="-5.9907">
        <ele>14.884432</ele>
        <time>2022-04-09T14:06:59.000Z</time>
      </trkpt>
      <trkpt lat="37.43534" lon="-5.99085">
        <ele>14.824885</ele>
        <time>2022-04-09T14:07:10.000Z</time>
      </trkpt>
      <trkpt lat="37.43539" lon="-5.99087">
        <ele>14.818919</ele>
        <time>2022-04-09T14:07:11.000Z</time>
      </trkpt>
      <trkpt lat="37.43583" lon="-5.991">
        <ele>14.769514</ele>
        <time>2022-04-09T14:07:21.000Z</time>
      </trkpt>
      <trkpt lat="37.43625" lon="-5.99111">
        <ele>14.723613</ele>
        <time>2022-04-09T14:07:30.000Z</time>
      </trkpt>
      <trkpt lat="37.43634" lon="-5.99113">
        <ele>14.713546</ele>
        <time>2022-04-09T14:07:32.000Z</time>
      </trkpt>
      <trkpt lat="37.43662" lon="-5.99119">
        <ele>14.725379</ele>
        <time>2022-04-09T14:07:38.000Z</time>
      </trkpt>
      <trkpt lat="37.43681" lon="-5.99125">
        <ele>14.73957</ele>
        <time>2022-04-09T14:07:42.000Z</time>
      </trkpt>
      <trkpt lat="37.43728" lon="-5.99137">
        <ele>14.775105</ele>
        <time>2022-04-09T14:07:52.000Z</time>
      </trkpt>
      <trkpt lat="37.4377" lon="-5.99151">
        <ele>14.807564</ele>
        <time>2022-04-09T14:08:01.000Z</time>
      </trkpt>
      <trkpt lat="37.43779" lon="-5.99154">
        <ele>14.814397</ele>
        <time>2022-04-09T14:08:03.000Z</time>
      </trkpt>
      <trkpt lat="37.43827" lon="-5.99176">
        <ele>14.900641</ele>
        <time>2022-04-09T14:08:13.000Z</time>
      </trkpt>
      <trkpt lat="37.43841" lon="-5.99184">
        <ele>14.961779</ele>
        <time>2022-04-09T14:08:16.000Z</time>
      </trkpt>
      <trkpt lat="37.43882" lon="-5.99204">
        <ele>15.138598</ele>
        <time>2022-04-09T14:08:25.000Z</time>
      </trkpt>
      <trkpt lat="37.43921" lon="-5.99226">
        <ele>15.306699</ele>
        <time>2022-04-09T14:08:34.000Z</time>
      </trkpt>
      <trkpt lat="37.43972" lon="-5.99252">
        <ele>15.526372</ele>
        <time>2022-04-09T14:08:45.000Z</time>
      </trkpt>
      <trkpt lat="37.43976" lon="-5.99255">
        <ele>15.544394</ele>
        <time>2022-04-09T14:08:46.000Z</time>
      </trkpt>
      <trkpt lat="37.44001" lon="-5.99268">
        <ele>15.5442</ele>
        <time>2022-04-09T14:08:52.000Z</time>
      </trkpt>
      <trkpt lat="37.44009" lon="-5.99273">
        <ele>15.538865</ele>
        <time>2022-04-09T14:08:54.000Z</time>
      </trkpt>
      <trkpt lat="37.44042" lon="-5.99289">
        <ele>15.518277</ele>
        <time>2022-04-09T14:09:02.000Z</time>
      </trkpt>
      <trkpt lat="37.44091" lon="-5.99315">
        <ele>15.487647</ele>
        <time>2022-04-09T14:09:13.000Z</time>
      </trkpt>
      <trkpt lat="37.44133" lon="-5.99336">
        <ele>15.461727</ele>
        <time>2022-04-09T14:09:22.000Z</time>
      </trkpt>
      <trkpt lat="37.44143" lon="-5.99341">
        <ele>15.455537</ele>
        <time>2022-04-09T14:09:24.000Z</time>
      </trkpt>
      <trkpt lat="37.44183" lon="-5.99363">
        <ele>15.289396</ele>
        <time>2022-04-09T14:09:33.000Z</time>
      </trkpt>
      <trkpt lat="37.44205" lon="-5.99374">
        <ele>15.193621</ele>
        <time>2022-04-09T14:09:38.000Z</time>
      </trkpt>
      <trkpt lat="37.44223" lon="-5.99384">
        <ele>15.115051</ele>
        <time>2022-04-09T14:09:42.000Z</time>
      </trkpt>
      <trkpt lat="37.44235" lon="-5.99391">
        <ele>15.059221</ele>
        <time>2022-04-09T14:09:45.000Z</time>
      </trkpt>
      <trkpt lat="37.4427" lon="-5.9941">
        <ele>14.907984</ele>
        <time>2022-04-09T14:09:53.000Z</time>
      </trkpt>
      <trkpt lat="37.44278" lon="-5.99415">
        <ele>14.870203</ele>
        <time>2022-04-09T14:09:55.000Z</time>
      </trkpt>
      <trkpt lat="37.44322" lon="-5.99439">
        <ele>14.654234</ele>
        <time>2022-04-09T14:10:05.000Z</time>
      </trkpt>
      <trkpt lat="37.44367" lon="-5.99463">
        <ele>14.379385</ele>
        <time>2022-04-09T14:10:14.000Z</time>
      </trkpt>
      <trkpt lat="37.44409" lon="-5.99485">
        <ele>14.125258</ele>
        <time>2022-04-09T14:10:22.000Z</time>
      </trkpt>
      <trkpt lat="37.44429" lon="-5.99495">
        <ele>14.001759</ele>
        <time>2022-04-09T14:10:26.000Z</time>
      </trkpt>
      <trkpt lat="37.44459" lon="-5.99511">
        <ele>13.816067</ele>
        <time>2022-04-09T14:10:32.000Z</time>
      </trkpt>
      <trkpt lat="37.44468" lon="-5.99517">
        <ele>13.761172</ele>
        <time>2022-04-09T14:10:34.000Z</time>
      </trkpt>
      <trkpt lat="37.44512" lon="-5.99539">
        <ele>13.629806</ele>
        <time>2022-04-09T14:10:43.000Z</time>
      </trkpt>
      <trkpt lat="37.44544" lon="-5.99556">
        <ele>13.557817</ele>
        <time>2022-04-09T14:10:50.000Z</time>
      </trkpt>
      <trkpt lat="37.44579" lon="-5.99574">
        <ele>13.480284</ele>
        <time>2022-04-09T14:10:57.000Z</time>
      </trkpt>
      <trkpt lat="37.44632" lon="-5.99603">
        <ele>13.362094</ele>
        <time>2022-04-09T14:11:08.000Z</time>
      </trkpt>
      <trkpt lat="37.44637" lon="-5.99605">
        <ele>13.35112</ele>
        <time>2022-04-09T14:11:09.000Z</time>
      </trkpt>
      <trkpt lat="37.44691" lon="-5.99634">
        <ele>13.308136</ele>
        <time>2022-04-09T14:11:20.000Z</time>
      </trkpt>
      <trkpt lat="37.44699" lon="-5.99639">
        <ele>13.302516</ele>
        <time>2022-04-09T14:11:22.000Z</time>
      </trkpt>
      <trkpt lat="37.44754" lon="-5.99667">
        <ele>13.267036</ele>
        <time>2022-04-09T14:11:33.000Z</time>
      </trkpt>
      <trkpt lat="37.44768" lon="-5.99675">
        <ele>13.257805</ele>
        <time>2022-04-09T14:11:36.000Z</time>
      </trkpt>
      <trkpt lat="37.44797" lon="-5.99691">
        <ele>13.239038</ele>
        <time>2022-04-09T14:11:42.000Z</time>
      </trkpt>
      <trkpt lat="37.44841" lon="-5.99714">
        <ele>13.330033</ele>
        <time>2022-04-09T14:11:52.000Z</time>
      </trkpt>
      <trkpt lat="37.44886" lon="-5.99737">
        <ele>13.459727</ele>
        <time>2022-04-09T14:12:02.000Z</time>
      </trkpt>
      <trkpt lat="37.44913" lon="-5.99753">
        <ele>13.541178</ele>
        <time>2022-04-09T14:12:09.000Z</time>
      </trkpt>
      <trkpt lat="37.44952" lon="-5.99773">
        <ele>13.653243</ele>
        <time>2022-04-09T14:12:18.000Z</time>
      </trkpt>
      <trkpt lat="37.44964" lon="-5.9978">
        <ele>13.68831</ele>
        <time>2022-04-09T14:12:21.000Z</time>
      </trkpt>
      <trkpt lat="37.44978" lon="-5.99787">
        <ele>13.702482</ele>
        <time>2022-04-09T14:12:24.000Z</time>
      </trkpt>
      <trkpt lat="37.45004" lon="-5.998">
        <ele>13.616934</ele>
        <time>2022-04-09T14:12:30.000Z</time>
      </trkpt>
      <trkpt lat="37.45057" lon="-5.99829">
        <ele>13.444184</ele>
        <time>2022-04-09T14:12:41.000Z</time>
      </trkpt>
      <trkpt lat="37.45062" lon="-5.99831">
        <ele>13.428063</ele>
        <time>2022-04-09T14:12:42.000Z</time>
      </trkpt>
      <trkpt lat="37.45092" lon="-5.99848">
        <ele>13.331177</ele>
        <time>2022-04-09T14:12:48.000Z</time>
      </trkpt>
      <trkpt lat="37.45115" lon="-5.99859">
        <ele>13.257767</ele>
        <time>2022-04-09T14:12:52.000Z</time>
      </trkpt>
      <trkpt lat="37.45147" lon="-5.99877">
        <ele>13.17788</ele>
        <time>2022-04-09T14:12:58.000Z</time>
      </trkpt>
      <trkpt lat="37.45165" lon="-5.99886">
        <ele>13.179103</ele>
        <time>2022-04-09T14:13:01.000Z</time>
      </trkpt>
      <trkpt lat="37.45215" lon="-5.99912">
        <ele>13.182371</ele>
        <time>2022-04-09T14:13:10.000Z</time>
      </trkpt>
      <trkpt lat="37.45261" lon="-5.99936">
        <ele>13.185365</ele>
        <time>2022-04-09T14:13:19.000Z</time>
      </trkpt>
      <trkpt lat="37.45311" lon="-5.99961">
        <ele>13.207196</ele>
        <time>2022-04-09T14:13:29.000Z</time>
      </trkpt>
      <trkpt lat="37.45316" lon="-5.99962">
        <ele>13.224552</ele>
        <time>2022-04-09T14:13:30.000Z</time>
      </trkpt>
      <trkpt lat="37.45327" lon="-5.9996">
        <ele>13.260228</ele>
        <time>2022-04-09T14:13:32.000Z</time>
      </trkpt>
      <trkpt lat="37.4534" lon="-5.99953">
        <ele>13.307637</ele>
        <time>2022-04-09T14:13:36.000Z</time>
      </trkpt>
      <trkpt lat="37.45353" lon="-5.99954">
        <ele>13.348643</ele>
        <time>2022-04-09T14:13:41.000Z</time>
      </trkpt>
      <trkpt lat="37.45363" lon="-5.99969">
        <ele>13.399623</ele>
        <time>2022-04-09T14:13:45.000Z</time>
      </trkpt>
      <trkpt lat="37.45365" lon="-5.99974">
        <ele>13.413712</ele>
        <time>2022-04-09T14:13:46.000Z</time>
      </trkpt>
      <trkpt lat="37.45375" lon="-5.99992">
        <ele>13.472893</ele>
        <time>2022-04-09T14:13:50.000Z</time>
      </trkpt>
      <trkpt lat="37.45383" lon="-5.99999">
        <ele>13.5013</ele>
        <time>2022-04-09T14:13:52.000Z</time>
      </trkpt>
      <trkpt lat="37.45421" lon="-6.00022">
        <ele>13.64143</ele>
        <time>2022-04-09T14:14:01.000Z</time>
      </trkpt>
      <trkpt lat="37.45464" lon="-6.00046">
        <ele>13.802902</ele>
        <time>2022-04-09T14:14:11.000Z</time>
      </trkpt>
      <trkpt lat="37.455" lon="-6.00065">
        <ele>13.978196</ele>
        <time>2022-04-09T14:14:18.000Z</time>
      </trkpt>
      <trkpt lat="37.45509" lon="-6.0007">
        <ele>14.022505</ele>
        <time>2022-04-09T14:14:20.000Z</time>
      </trkpt>
      <trkpt lat="37.4552" lon="-6.00075">
        <ele>14.0745</ele>
        <time>2022-04-09T14:14:22.000Z</time>
      </trkpt>
      <trkpt lat="37.45551" lon="-6.00092">
        <ele>14.228486</ele>
        <time>2022-04-09T14:14:29.000Z</time>
      </trkpt>
      <trkpt lat="37.45566" lon="-6.001">
        <ele>14.302476</ele>
        <time>2022-04-09T14:14:32.000Z</time>
      </trkpt>
      <trkpt lat="37.45603" lon="-6.00119">
        <ele>14.483487</ele>
        <time>2022-04-09T14:14:40.000Z</time>
      </trkpt>
      <trkpt lat="37.45654" lon="-6.00145">
        <ele>14.662698</ele>
        <time>2022-04-09T14:14:51.000Z</time>
      </trkpt>
      <trkpt lat="37.45677" lon="-6.00157">
        <ele>14.719358</ele>
        <time>2022-04-09T14:14:56.000Z</time>
      </trkpt>
      <trkpt lat="37.4571" lon="-6.00174">
        <ele>14.80118</ele>
        <time>2022-04-09T14:15:03.000Z</time>
      </trkpt>
      <trkpt lat="37.45761" lon="-6.00202">
        <ele>14.927464</ele>
        <time>2022-04-09T14:15:13.000Z</time>
      </trkpt>
      <trkpt lat="37.45766" lon="-6.00205">
        <ele>14.93994</ele>
        <time>2022-04-09T14:15:14.000Z</time>
      </trkpt>
      <trkpt lat="37.45816" lon="-6.00231">
        <ele>15.051346</ele>
        <time>2022-04-09T14:15:24.000Z</time>
      </trkpt>
      <trkpt lat="37.45865" lon="-6.00256">
        <ele>15.148548</ele>
        <time>2022-04-09T14:15:34.000Z</time>
      </trkpt>
      <trkpt lat="37.45907" lon="-6.00278">
        <ele>15.234048</ele>
        <time>2022-04-09T14:15:43.000Z</time>
      </trkpt>
      <trkpt lat="37.4596" lon="-6.00307">
        <ele>15.328206</ele>
        <time>2022-04-09T14:15:54.000Z</time>
      </trkpt>
      <trkpt lat="37.45974" lon="-6.00315">
        <ele>15.300729</ele>
        <time>2022-04-09T14:15:57.000Z</time>
      </trkpt>
      <trkpt lat="37.46029" lon="-6.00344">
        <ele>15.195664</ele>
        <time>2022-04-09T14:16:08.000Z</time>
      </trkpt>
      <trkpt lat="37.46048" lon="-6.00354">
        <ele>15.159108</ele>
        <time>2022-04-09T14:16:12.000Z</time>
      </trkpt>
      <trkpt lat="37.46098" lon="-6.00379">
        <ele>15.063069</ele>
        <time>2022-04-09T14:16:23.000Z</time>
      </trkpt>
      <trkpt lat="37.46122" lon="-6.00393">
        <ele>15.014858</ele>
        <time>2022-04-09T14:16:29.000Z</time>
      </trkpt>
      <trkpt lat="37.46127" lon="-6.00395">
        <ele>14.985109</ele>
        <time>2022-04-09T14:16:30.000Z</time>
      </trkpt>
      <trkpt lat="37.46139" lon="-6.00401">
        <ele>14.889639</ele>
        <time>2022-04-09T14:16:33.000Z</time>
      </trkpt>
      <trkpt lat="37.46184" lon="-6.00425">
        <ele>14.552914</ele>
        <time>2022-04-09T14:16:43.000Z</time>
      </trkpt>
      <trkpt lat="37.46226" lon="-6.00447">
        <ele>14.234231</ele>
        <time>2022-04-09T14:16:52.000Z</time>
      </trkpt>
      <trkpt lat="37.46231" lon="-6.00448">
        <ele>14.199197</ele>
        <time>2022-04-09T14:16:53.000Z</time>
      </trkpt>
      <trkpt lat="37.46235" lon="-6.00449">
        <ele>14.170943</ele>
        <time>2022-04-09T14:16:54.000Z</time>
      </trkpt>
      <trkpt lat="37.46248" lon="-6.00448">
        <ele>14.075689</ele>
        <time>2022-04-09T14:16:57.000Z</time>
      </trkpt>
      <trkpt lat="37.46258" lon="-6.00451">
        <ele>14.006748</ele>
        <time>2022-04-09T14:16:59.000Z</time>
      </trkpt>
      <trkpt lat="37.46262" lon="-6.00454">
        <ele>13.970596</ele>
        <time>2022-04-09T14:17:00.000Z</time>
      </trkpt>
      <trkpt lat="37.46265" lon="-6.00457">
        <ele>13.942201</ele>
        <time>2022-04-09T14:17:01.000Z</time>
      </trkpt>
      <trkpt lat="37.46272" lon="-6.00471">
        <ele>13.853783</ele>
        <time>2022-04-09T14:17:04.000Z</time>
      </trkpt>
      <trkpt lat="37.46268" lon="-6.00477">
        <ele>13.809364</ele>
        <time>2022-04-09T14:17:07.000Z</time>
      </trkpt>
      <trkpt lat="37.46267" lon="-6.0048">
        <ele>13.787583</ele>
        <time>2022-04-09T14:17:11.000Z</time>
      </trkpt>
      <trkpt lat="37.46264" lon="-6.00484">
        <ele>13.763134</ele>
        <time>2022-04-09T14:17:12.000Z</time>
      </trkpt>
      <trkpt lat="37.46251" lon="-6.00495">
        <ele>13.679736</ele>
        <time>2022-04-09T14:17:16.000Z</time>
      </trkpt>
      <trkpt lat="37.46247" lon="-6.00511">
        <ele>13.612162</ele>
        <time>2022-04-09T14:17:20.000Z</time>
      </trkpt>
      <trkpt lat="37.46249" lon="-6.00518">
        <ele>13.581125</ele>
        <time>2022-04-09T14:17:22.000Z</time>
      </trkpt>
      <trkpt lat="37.46251" lon="-6.0052">
        <ele>13.567402</ele>
        <time>2022-04-09T14:17:23.000Z</time>
      </trkpt>
      <trkpt lat="37.46264" lon="-6.00518">
        <ele>13.501528</ele>
        <time>2022-04-09T14:17:27.000Z</time>
      </trkpt>
      <trkpt lat="37.46276" lon="-6.00515">
        <ele>13.439685</ele>
        <time>2022-04-09T14:17:30.000Z</time>
      </trkpt>
      <trkpt lat="37.46284" lon="-6.00517">
        <ele>13.398067</ele>
        <time>2022-04-09T14:17:32.000Z</time>
      </trkpt>
      <trkpt lat="37.46314" lon="-6.00533">
        <ele>13.232176</ele>
        <time>2022-04-09T14:17:40.000Z</time>
      </trkpt>
      <trkpt lat="37.46347" lon="-6.00548">
        <ele>13.055719</ele>
        <time>2022-04-09T14:17:48.000Z</time>
      </trkpt>
      <trkpt lat="37.46351" lon="-6.00551">
        <ele>13.032907</ele>
        <time>2022-04-09T14:17:49.000Z</time>
      </trkpt>
      <trkpt lat="37.46391" lon="-6.00572">
        <ele>12.851588</ele>
        <time>2022-04-09T14:17:58.000Z</time>
      </trkpt>
      <trkpt lat="37.46424" lon="-6.0059">
        <ele>12.896491</ele>
        <time>2022-04-09T14:18:06.000Z</time>
      </trkpt>
      <trkpt lat="37.46473" lon="-6.00617">
        <ele>12.962799</ele>
        <time>2022-04-09T14:18:17.000Z</time>
      </trkpt>
      <trkpt lat="37.46515" lon="-6.0064">
        <ele>13.019234</ele>
        <time>2022-04-09T14:18:27.000Z</time>
      </trkpt>
      <trkpt lat="37.46555" lon="-6.00661">
        <ele>13.089771</ele>
        <time>2022-04-09T14:18:36.000Z</time>
      </trkpt>
      <trkpt lat="37.46595" lon="-6.00683">
        <ele>13.299172</ele>
        <time>2022-04-09T14:18:45.000Z</time>
      </trkpt>
      <trkpt lat="37.46627" lon="-6.007">
        <ele>13.461449</ele>
        <time>2022-04-09T14:18:53.000Z</time>
      </trkpt>
      <trkpt lat="37.46635" lon="-6.00698">
        <ele>13.500349</ele>
        <time>2022-04-09T14:18:57.000Z</time>
      </trkpt>
      <trkpt lat="37.46636" lon="-6.00699">
        <ele>13.507533</ele>
        <time>2022-04-09T14:19:03.000Z</time>
      </trkpt>
      <trkpt lat="37.46637" lon="-6.00701">
        <ele>13.516436</ele>
        <time>2022-04-09T14:19:05.000Z</time>
      </trkpt>
      <trkpt lat="37.4664" lon="-6.00706">
        <ele>13.541173</ele>
        <time>2022-04-09T14:19:08.000Z</time>
      </trkpt>
      <trkpt lat="37.46644" lon="-6.00709">
        <ele>13.563837</ele>
        <time>2022-04-09T14:19:10.000Z</time>
      </trkpt>
      <trkpt lat="37.46653" lon="-6.00713">
        <ele>13.608537</ele>
        <time>2022-04-09T14:19:13.000Z</time>
      </trkpt>
      <trkpt lat="37.46675" lon="-6.00724">
        <ele>13.720403</ele>
        <time>2022-04-09T14:19:20.000Z</time>
      </trkpt>
      <trkpt lat="37.46681" lon="-6.00728">
        <ele>13.754478</ele>
        <time>2022-04-09T14:19:22.000Z</time>
      </trkpt>
      <trkpt lat="37.46687" lon="-6.00731">
        <ele>13.784968</ele>
        <time>2022-04-09T14:19:24.000Z</time>
      </trkpt>
      <trkpt lat="37.46694" lon="-6.00734">
        <ele>13.818117</ele>
        <time>2022-04-09T14:19:27.000Z</time>
      </trkpt>
      <trkpt lat="37.46694" lon="-6.00734">
        <ele>13.821004</ele>
        <time>2022-04-09T14:19:31.000Z</time>
      </trkpt>
      <trkpt lat="37.46696" lon="-6.00733">
        <ele>13.829534</ele>
        <time>2022-04-09T14:19:40.000Z</time>
      </trkpt>
      <trkpt lat="37.467" lon="-6.00723">
        <ele>13.874819</ele>
        <time>2022-04-09T14:19:44.000Z</time>
      </trkpt>
      <trkpt lat="37.46702" lon="-6.00713">
        <ele>13.911686</ele>
        <time>2022-04-09T14:19:46.000Z</time>
      </trkpt>
      <trkpt lat="37.46706" lon="-6.00703">
        <ele>13.943217</ele>
        <time>2022-04-09T14:19:48.000Z</time>
      </trkpt>
      <trkpt lat="37.46713" lon="-6.00695">
        <ele>13.974325</ele>
        <time>2022-04-09T14:19:50.000Z</time>
      </trkpt>
      <trkpt lat="37.46722" lon="-6.0069">
        <ele>14.00425</ele>
        <time>2022-04-09T14:19:52.000Z</time>
      </trkpt>
      <trkpt lat="37.46731" lon="-6.00688">
        <ele>14.033456</ele>
        <time>2022-04-09T14:19:54.000Z</time>
      </trkpt>
      <trkpt lat="37.46746" lon="-6.00689">
        <ele>14.078162</ele>
        <time>2022-04-09T14:19:57.000Z</time>
      </trkpt>
      <trkpt lat="37.4676" lon="-6.00689">
        <ele>14.121878</ele>
        <time>2022-04-09T14:20:00.000Z</time>
      </trkpt>
      <trkpt lat="37.46769" lon="-6.00686">
        <ele>14.151699</ele>
        <time>2022-04-09T14:20:02.000Z</time>
      </trkpt>
      <trkpt lat="37.46773" lon="-6.00683">
        <ele>14.167092</ele>
        <time>2022-04-09T14:20:03.000Z</time>
      </trkpt>
      <trkpt lat="37.4679" lon="-6.00674">
        <ele>14.222162</ele>
        <time>2022-04-09T14:20:07.000Z</time>
      </trkpt>
      <trkpt lat="37.46795" lon="-6.0067">
        <ele>14.241858</ele>
        <time>2022-04-09T14:20:09.000Z</time>
      </trkpt>
      <trkpt lat="37.46816" lon="-6.0066">
        <ele>14.312206</ele>
        <time>2022-04-09T14:20:15.000Z</time>
      </trkpt>
      <trkpt lat="37.4685" lon="-6.00641">
        <ele>14.426939</ele>
        <time>2022-04-09T14:20:24.000Z</time>
      </trkpt>
      <trkpt lat="37.46855" lon="-6.00639">
        <ele>14.442817</ele>
        <time>2022-04-09T14:20:25.000Z</time>
      </trkpt>
      <trkpt lat="37.46896" lon="-6.00631">
        <ele>14.532675</ele>
        <time>2022-04-09T14:20:35.000Z</time>
      </trkpt>
      <trkpt lat="37.46926" lon="-6.00627">
        <ele>14.586748</ele>
        <time>2022-04-09T14:20:43.000Z</time>
      </trkpt>
      <trkpt lat="37.46935" lon="-6.00624">
        <ele>14.601613</ele>
        <time>2022-04-09T14:20:45.000Z</time>
      </trkpt>
      <trkpt lat="37.46944" lon="-6.00623">
        <ele>14.618888</ele>
        <time>2022-04-09T14:20:47.000Z</time>
      </trkpt>
      <trkpt lat="37.46953" lon="-6.00619">
        <ele>14.634433</ele>
        <time>2022-04-09T14:20:49.000Z</time>
      </trkpt>
      <trkpt lat="37.46988" lon="-6.00607">
        <ele>14.699622</ele>
        <time>2022-04-09T14:20:57.000Z</time>
      </trkpt>
      <trkpt lat="37.46993" lon="-6.00605">
        <ele>14.7079</ele>
        <time>2022-04-09T14:20:58.000Z</time>
      </trkpt>
      <trkpt lat="37.47027" lon="-6.00593">
        <ele>14.76964</ele>
        <time>2022-04-09T14:21:06.000Z</time>
      </trkpt>
      <trkpt lat="37.47031" lon="-6.00591">
        <ele>14.777171</ele>
        <time>2022-04-09T14:21:07.000Z</time>
      </trkpt>
      <trkpt lat="37.47069" lon="-6.00577">
        <ele>14.774198</ele>
        <time>2022-04-09T14:21:16.000Z</time>
      </trkpt>
      <trkpt lat="37.47115" lon="-6.00561">
        <ele>14.732974</ele>
        <time>2022-04-09T14:21:26.000Z</time>
      </trkpt>
      <trkpt lat="37.47124" lon="-6.00558">
        <ele>14.724712</ele>
        <time>2022-04-09T14:21:28.000Z</time>
      </trkpt>
      <trkpt lat="37.47134" lon="-6.00554">
        <ele>14.716144</ele>
        <time>2022-04-09T14:21:30.000Z</time>
      </trkpt>
      <trkpt lat="37.47143" lon="-6.00551">
        <ele>14.707361</ele>
        <time>2022-04-09T14:21:32.000Z</time>
      </trkpt>
      <trkpt lat="37.47177" lon="-6.00541">
        <ele>14.677086</ele>
        <time>2022-04-09T14:21:39.000Z</time>
      </trkpt>
      <trkpt lat="37.47213" lon="-6.00529">
        <ele>14.645167</ele>
        <time>2022-04-09T14:21:46.000Z</time>
      </trkpt>
      <trkpt lat="37.47243" lon="-6.00509">
        <ele>14.682003</ele>
        <time>2022-04-09T14:21:52.000Z</time>
      </trkpt>
      <trkpt lat="37.47253" lon="-6.00501">
        <ele>14.696355</ele>
        <time>2022-04-09T14:21:54.000Z</time>
      </trkpt>
      <trkpt lat="37.47265" lon="-6.00492">
        <ele>14.714428</ele>
        <time>2022-04-09T14:21:57.000Z</time>
      </trkpt>
      <trkpt lat="37.47269" lon="-6.00489">
        <ele>14.720319</ele>
        <time>2022-04-09T14:21:58.000Z</time>
      </trkpt>
      <trkpt lat="37.47273" lon="-6.00487">
        <ele>14.726428</ele>
        <time>2022-04-09T14:21:59.000Z</time>
      </trkpt>
      <trkpt lat="37.47278" lon="-6.00486">
        <ele>14.73218</ele>
        <time>2022-04-09T14:22:00.000Z</time>
      </trkpt>
      <trkpt lat="37.47283" lon="-6.00486">
        <ele>14.738003</ele>
        <time>2022-04-09T14:22:01.000Z</time>
      </trkpt>
      <trkpt lat="37.47307" lon="-6.00486">
        <ele>14.769013</ele>
        <time>2022-04-09T14:22:07.000Z</time>
      </trkpt>
      <trkpt lat="37.47343" lon="-6.00486">
        <ele>14.814703</ele>
        <time>2022-04-09T14:22:16.000Z</time>
      </trkpt>
      <trkpt lat="37.47351" lon="-6.00486">
        <ele>14.8246</ele>
        <time>2022-04-09T14:22:18.000Z</time>
      </trkpt>
      <trkpt lat="37.47374" lon="-6.00485">
        <ele>14.854354</ele>
        <time>2022-04-09T14:22:25.000Z</time>
      </trkpt>
      <trkpt lat="37.47393" lon="-6.00483">
        <ele>14.863238</ele>
        <time>2022-04-09T14:22:30.000Z</time>
      </trkpt>
      <trkpt lat="37.47415" lon="-6.0048">
        <ele>14.836447</ele>
        <time>2022-04-09T14:22:36.000Z</time>
      </trkpt>
      <trkpt lat="37.47438" lon="-6.00477">
        <ele>14.809964</ele>
        <time>2022-04-09T14:22:42.000Z</time>
      </trkpt>
      <trkpt lat="37.47444" lon="-6.00475">
        <ele>14.802292</ele>
        <time>2022-04-09T14:22:44.000Z</time>
      </trkpt>
      <trkpt lat="37.47458" lon="-6.00474">
        <ele>14.785624</ele>
        <time>2022-04-09T14:22:48.000Z</time>
      </trkpt>
      <trkpt lat="37.47465" lon="-6.00473">
        <ele>14.777097</ele>
        <time>2022-04-09T14:22:50.000Z</time>
      </trkpt>
      <trkpt lat="37.47483" lon="-6.00472">
        <ele>14.755989</ele>
        <time>2022-04-09T14:22:55.000Z</time>
      </trkpt>
      <trkpt lat="37.47494" lon="-6.00472">
        <ele>14.74314</ele>
        <time>2022-04-09T14:22:58.000Z</time>
      </trkpt>
      <trkpt lat="37.47497" lon="-6.00472">
        <ele>14.740075</ele>
        <time>2022-04-09T14:22:59.000Z</time>
      </trkpt>
      <trkpt lat="37.47501" lon="-6.00473">
        <ele>14.735153</ele>
        <time>2022-04-09T14:23:00.000Z</time>
      </trkpt>
      <trkpt lat="37.47505" lon="-6.00479">
        <ele>14.727972</ele>
        <time>2022-04-09T14:23:02.000Z</time>
      </trkpt>
      <trkpt lat="37.47504" lon="-6.005">
        <ele>14.708319</ele>
        <time>2022-04-09T14:23:07.000Z</time>
      </trkpt>
      <trkpt lat="37.47508" lon="-6.0053">
        <ele>14.679166</ele>
        <time>2022-04-09T14:23:14.000Z</time>
      </trkpt>
      <trkpt lat="37.47514" lon="-6.00548">
        <ele>14.661256</ele>
        <time>2022-04-09T14:23:18.000Z</time>
      </trkpt>
      <trkpt lat="37.47521" lon="-6.00569">
        <ele>14.587107</ele>
        <time>2022-04-09T14:23:22.000Z</time>
      </trkpt>
      <trkpt lat="37.47532" lon="-6.00599">
        <ele>14.468538</ele>
        <time>2022-04-09T14:23:29.000Z</time>
      </trkpt>
      <trkpt lat="37.47542" lon="-6.00627">
        <ele>14.355248</ele>
        <time>2022-04-09T14:23:35.000Z</time>
      </trkpt>
      <trkpt lat="37.47549" lon="-6.00643">
        <ele>14.291184</ele>
        <time>2022-04-09T14:23:38.000Z</time>
      </trkpt>
      <trkpt lat="37.47566" lon="-6.00679">
        <ele>14.137258</ele>
        <time>2022-04-09T14:23:45.000Z</time>
      </trkpt>
      <trkpt lat="37.4759" lon="-6.00719">
        <ele>13.955839</ele>
        <time>2022-04-09T14:23:53.000Z</time>
      </trkpt>
      <trkpt lat="37.47593" lon="-6.00724">
        <ele>13.93421</ele>
        <time>2022-04-09T14:23:54.000Z</time>
      </trkpt>
      <trkpt lat="37.47611" lon="-6.00751">
        <ele>13.869386</ele>
        <time>2022-04-09T14:24:00.000Z</time>
      </trkpt>
      <trkpt lat="37.47633" lon="-6.00792">
        <ele>14.06905</ele>
        <time>2022-04-09T14:24:09.000Z</time>
      </trkpt>
      <trkpt lat="37.47649" lon="-6.00824">
        <ele>14.221079</ele>
        <time>2022-04-09T14:24:16.000Z</time>
      </trkpt>
      <trkpt lat="37.47652" lon="-6.00829">
        <ele>14.245084</ele>
        <time>2022-04-09T14:24:17.000Z</time>
      </trkpt>
      <trkpt lat="37.47654" lon="-6.00834">
        <ele>14.268646</ele>
        <time>2022-04-09T14:24:18.000Z</time>
      </trkpt>
      <trkpt lat="37.47661" lon="-6.00849">
        <ele>14.34101</ele>
        <time>2022-04-09T14:24:21.000Z</time>
      </trkpt>
      <trkpt lat="37.47667" lon="-6.00861">
        <ele>14.397687</ele>
        <time>2022-04-09T14:24:23.000Z</time>
      </trkpt>
      <trkpt lat="37.47687" lon="-6.00895">
        <ele>14.568177</ele>
        <time>2022-04-09T14:24:30.000Z</time>
      </trkpt>
      <trkpt lat="37.47693" lon="-6.009">
        <ele>14.605927</ele>
        <time>2022-04-09T14:24:32.000Z</time>
      </trkpt>
      <trkpt lat="37.47697" lon="-6.009">
        <ele>14.622699</ele>
        <time>2022-04-09T14:24:33.000Z</time>
      </trkpt>
      <trkpt lat="37.47704" lon="-6.00898">
        <ele>14.659345</ele>
        <time>2022-04-09T14:24:35.000Z</time>
      </trkpt>
      <trkpt lat="37.47721" lon="-6.00894">
        <ele>14.746639</ele>
        <time>2022-04-09T14:24:39.000Z</time>
      </trkpt>
      <trkpt lat="37.47759" lon="-6.00887">
        <ele>14.800755</ele>
        <time>2022-04-09T14:24:47.000Z</time>
      </trkpt>
      <trkpt lat="37.47767" lon="-6.00885">
        <ele>14.81221</ele>
        <time>2022-04-09T14:24:49.000Z</time>
      </trkpt>
      <trkpt lat="37.47771" lon="-6.00885">
        <ele>14.818227</ele>
        <time>2022-04-09T14:24:50.000Z</time>
      </trkpt>
      <trkpt lat="37.47791" lon="-6.00881">
        <ele>14.845439</ele>
        <time>2022-04-09T14:24:54.000Z</time>
      </trkpt>
      <trkpt lat="37.47819" lon="-6.00875">
        <ele>14.884205</ele>
        <time>2022-04-09T14:25:00.000Z</time>
      </trkpt>
      <trkpt lat="37.47877" lon="-6.00864">
        <ele>14.962327</ele>
        <time>2022-04-09T14:25:12.000Z</time>
      </trkpt>
      <trkpt lat="37.47932" lon="-6.00857">
        <ele>14.992872</ele>
        <time>2022-04-09T14:25:24.000Z</time>
      </trkpt>
      <trkpt lat="37.4794" lon="-6.00855">
        <ele>14.992872</ele>
        <time>2022-04-09T14:25:27.000Z</time>
      </trkpt>
      <trkpt lat="37.47941" lon="-6.00853">
        <ele>14.992872</ele>
        <time>2022-04-09T14:25:28.000Z</time>
      </trkpt>
      <trkpt lat="37.47941" lon="-6.00851">
        <ele>14.992872</ele>
        <time>2022-04-09T14:25:29.000Z</time>
      </trkpt>
      <trkpt lat="37.47937" lon="-6.00846">
        <ele>14.992872</ele>
        <time>2022-04-09T14:25:31.000Z</time>
      </trkpt>
      <trkpt lat="37.47934" lon="-6.00845">
        <ele>14.992872</ele>
        <time>2022-04-09T14:25:32.000Z</time>
      </trkpt>
      <trkpt lat="37.47914" lon="-6.00845">
        <ele>14.992872</ele>
        <time>2022-04-09T14:25:38.000Z</time>
      </trkpt>
      <trkpt lat="37.47889" lon="-6.00852">
        <ele>14.992872</ele>
        <time>2022-04-09T14:25:46.000Z</time>
      </trkpt>
      <trkpt lat="37.47865" lon="-6.00856">
        <ele>14.992872</ele>
        <time>2022-04-09T14:25:54.000Z</time>
      </trkpt>
      <trkpt lat="37.47847" lon="-6.00859">
        <ele>14.992872</ele>
        <time>2022-04-09T14:26:01.000Z</time>
      </trkpt>
      <trkpt lat="37.47835" lon="-6.00862">
        <ele>14.992872</ele>
        <time>2022-04-09T14:26:08.000Z</time>
      </trkpt>
      <trkpt lat="37.47818" lon="-6.00862">
        <ele>14.992872</ele>
        <time>2022-04-09T14:26:14.000Z</time>
      </trkpt>
      <trkpt lat="37.47802" lon="-6.00858">
        <ele>14.992872</ele>
        <time>2022-04-09T14:26:20.000Z</time>
      </trkpt>
      <trkpt lat="37.47798" lon="-6.00856">
        <ele>14.992872</ele>
        <time>2022-04-09T14:26:22.000Z</time>
      </trkpt>
      <trkpt lat="37.47797" lon="-6.00853">
        <ele>14.992872</ele>
        <time>2022-04-09T14:26:23.000Z</time>
      </trkpt>
      <trkpt lat="37.47799" lon="-6.0084">
        <ele>14.992872</ele>
        <time>2022-04-09T14:26:28.000Z</time>
      </trkpt>
      <trkpt lat="37.47798" lon="-6.00838">
        <ele>14.992872</ele>
        <time>2022-04-09T14:26:29.000Z</time>
      </trkpt>
      <trkpt lat="37.47794" lon="-6.00838">
        <ele>14.992872</ele>
        <time>2022-04-09T14:26:31.000Z</time>
      </trkpt>
      <trkpt lat="37.47794" lon="-6.00838">
        <ele>14.992872</ele>
        <time>2022-04-09T14:26:33.000Z</time>
      </trkpt>
    </trkseg>
  </trk>
</gpx>